﻿<?xml version="1.0" encoding="utf-8"?><gpx creator="Garmin Desktop App" version="1.1" xsi:schemaLocation="http://www.topografix.com/GPX/1/1 http://www.topografix.com/GPX/1/1/gpx.xsd http://www.garmin.com/xmlschemas/WaypointExtension/v1 http://www8.garmin.com/xmlschemas/WaypointExtensionv1.xsd http://www.garmin.com/xmlschemas/TrackPointExtension/v1 http://www.garmin.com/xmlschemas/TrackPointExtensionv1.xsd http://www.garmin.com/xmlschemas/GpxExtensions/v3 http://www8.garmin.com/xmlschemas/GpxExtensionsv3.xsd http://www.garmin.com/xmlschemas/ActivityExtension/v1 http://www8.garmin.com/xmlschemas/ActivityExtensionv1.xsd http://www.garmin.com/xmlschemas/AdventuresExtensions/v1 http://www8.garmin.com/xmlschemas/AdventuresExtensionv1.xsd http://www.garmin.com/xmlschemas/PressureExtension/v1 http://www.garmin.com/xmlschemas/PressureExtensionv1.xsd http://www.garmin.com/xmlschemas/TripExtensions/v1 http://www.garmin.com/xmlschemas/TripExtensionsv1.xsd" xmlns="http://www.topografix.com/GPX/1/1" xmlns:xsi="http://www.w3.org/2001/XMLSchema-instance" xmlns:wptx1="http://www.garmin.com/xmlschemas/WaypointExtension/v1" xmlns:gpxtrx="http://www.garmin.com/xmlschemas/GpxExtensions/v3" xmlns:gpxtpx="http://www.garmin.com/xmlschemas/TrackPointExtension/v1" xmlns:gpxx="http://www.garmin.com/xmlschemas/GpxExtensions/v3" xmlns:trp="http://www.garmin.com/xmlschemas/TripExtensions/v1" xmlns:adv="http://www.garmin.com/xmlschemas/AdventuresExtensions/v1" xmlns:prs="http://www.garmin.com/xmlschemas/PressureExtension/v1">

  <metadata>
    <link href="http://www.garmin.com">
      <text>Garmin International</text>
    </link>
    <time>2013-05-09T15:39:52Z</time>
    <bounds maxlat="46.015523560345173" maxlon="9.316769437864423" minlat="45.959073537960649" minlon="9.283071672543883" />
  </metadata>

  <trk>
    <name>lierna-varenna2013-05-05</name>
    <extensions>
      <gpxx:TrackExtension>
        <gpxx:DisplayColor>Yellow</gpxx:DisplayColor>
      </gpxx:TrackExtension>
    </extensions>
    <trkseg>
      <trkpt lat="45.959822712466121" lon="9.301469027996063">
        <ele>214.99000000000001</ele>
        <time>2013-05-05T06:47:46Z</time>
      </trkpt>
      <trkpt lat="45.959837296977639" lon="9.301499454304576">
        <ele>215.47</ele>
        <time>2013-05-05T06:48:07Z</time>
      </trkpt>
      <trkpt lat="45.959849869832397" lon="9.301503142341971">
        <ele>215.47</ele>
        <time>2013-05-05T06:48:23Z</time>
      </trkpt>
      <trkpt lat="45.95984660089016" lon="9.30145712569356">
        <ele>215.47</ele>
        <time>2013-05-05T06:48:27Z</time>
      </trkpt>
      <trkpt lat="45.959834530949593" lon="9.301434494554997">
        <ele>215.47</ele>
        <time>2013-05-05T06:48:29Z</time>
      </trkpt>
      <trkpt lat="45.959833525121212" lon="9.301402140408754">
        <ele>215.47</ele>
        <time>2013-05-05T06:48:32Z</time>
      </trkpt>
      <trkpt lat="45.959860682487488" lon="9.301413120701909">
        <ele>214.50999999999999</ele>
        <time>2013-05-05T06:48:41Z</time>
      </trkpt>
      <trkpt lat="45.95988817512989" lon="9.301461316645145">
        <ele>214.50999999999999</ele>
        <time>2013-05-05T06:48:57Z</time>
      </trkpt>
      <trkpt lat="45.959897227585316" lon="9.301470452919602">
        <ele>214.50999999999999</ele>
        <time>2013-05-05T06:49:28Z</time>
      </trkpt>
      <trkpt lat="45.959867388010025" lon="9.301461316645145">
        <ele>215.47</ele>
        <time>2013-05-05T06:49:45Z</time>
      </trkpt>
      <trkpt lat="45.959833357483149" lon="9.301350424066186">
        <ele>215.47</ele>
        <time>2013-05-05T06:49:59Z</time>
      </trkpt>
      <trkpt lat="45.959835285320878" lon="9.301340030506253">
        <ele>214.99000000000001</ele>
        <time>2013-05-05T06:50:15Z</time>
      </trkpt>
      <trkpt lat="45.959833776578307" lon="9.301351346075535">
        <ele>215.47</ele>
        <time>2013-05-05T06:50:37Z</time>
      </trkpt>
      <trkpt lat="45.959834279492497" lon="9.301359057426453">
        <ele>215.47</ele>
        <time>2013-05-05T06:50:47Z</time>
      </trkpt>
      <trkpt lat="45.95981240272522" lon="9.301421167328954">
        <ele>215.47</ele>
        <time>2013-05-05T06:51:01Z</time>
      </trkpt>
      <trkpt lat="45.959830172359943" lon="9.301414964720607">
        <ele>215.47</ele>
        <time>2013-05-05T06:51:18Z</time>
      </trkpt>
      <trkpt lat="45.959841404110193" lon="9.301409181207418">
        <ele>215.47</ele>
        <time>2013-05-05T06:51:33Z</time>
      </trkpt>
      <trkpt lat="45.959866717457771" lon="9.301439020782709">
        <ele>215.47</ele>
        <time>2013-05-05T06:51:51Z</time>
      </trkpt>
      <trkpt lat="45.959871578961611" lon="9.301450503990054">
        <ele>215.47</ele>
        <time>2013-05-05T06:51:53Z</time>
      </trkpt>
      <trkpt lat="45.959880463778973" lon="9.301418149843812">
        <ele>214.03</ele>
        <time>2013-05-05T06:52:08Z</time>
      </trkpt>
      <trkpt lat="45.959849115461111" lon="9.301391495391727">
        <ele>214.03</ele>
        <time>2013-05-05T06:52:33Z</time>
      </trkpt>
      <trkpt lat="45.959853138774633" lon="9.301415635272861">
        <ele>214.03</ele>
        <time>2013-05-05T06:52:38Z</time>
      </trkpt>
      <trkpt lat="45.959863197058439" lon="9.301452348008752">
        <ele>214.99000000000001</ele>
        <time>2013-05-05T06:52:50Z</time>
      </trkpt>
      <trkpt lat="45.959853725507855" lon="9.301473638042808">
        <ele>215.47</ele>
        <time>2013-05-05T06:53:05Z</time>
      </trkpt>
      <trkpt lat="45.959850372746587" lon="9.301469195634127">
        <ele>214.99000000000001</ele>
        <time>2013-05-05T06:53:21Z</time>
      </trkpt>
      <trkpt lat="45.959845008328557" lon="9.301471207290888">
        <ele>215.47</ele>
        <time>2013-05-05T06:53:36Z</time>
      </trkpt>
      <trkpt lat="45.959822461009026" lon="9.301482606679201">
        <ele>215.47</ele>
        <time>2013-05-05T06:53:54Z</time>
      </trkpt>
      <trkpt lat="45.959789268672466" lon="9.301497861742973">
        <ele>215.47</ele>
        <time>2013-05-05T06:54:11Z</time>
      </trkpt>
      <trkpt lat="45.959818605333567" lon="9.301485205069184">
        <ele>215.47</ele>
        <time>2013-05-05T06:54:23Z</time>
      </trkpt>
      <trkpt lat="45.959809385240078" lon="9.301492497324944">
        <ele>214.99000000000001</ele>
        <time>2013-05-05T06:54:33Z</time>
      </trkpt>
      <trkpt lat="45.959811564534903" lon="9.30149232968688">
        <ele>215.47</ele>
        <time>2013-05-05T06:54:47Z</time>
      </trkpt>
      <trkpt lat="45.959844505414367" lon="9.3014947604388">
        <ele>215.47</ele>
        <time>2013-05-05T06:55:06Z</time>
      </trkpt>
      <trkpt lat="45.959898484870791" lon="9.301500041037798">
        <ele>215.47</ele>
        <time>2013-05-05T06:55:15Z</time>
      </trkpt>
      <trkpt lat="45.960006443783641" lon="9.301576148718596">
        <ele>215.47</ele>
        <time>2013-05-05T06:55:25Z</time>
      </trkpt>
      <trkpt lat="45.960067380219698" lon="9.301619818434119">
        <ele>215.47</ele>
        <time>2013-05-05T06:55:32Z</time>
      </trkpt>
      <trkpt lat="45.960255805402994" lon="9.301632223650813">
        <ele>214.99000000000001</ele>
        <time>2013-05-05T06:55:48Z</time>
      </trkpt>
      <trkpt lat="45.96025806851685" lon="9.301626607775688">
        <ele>215.94999999999999</ele>
        <time>2013-05-05T06:55:49Z</time>
      </trkpt>
      <trkpt lat="45.960442051291466" lon="9.301619818434119">
        <ele>215.47</ele>
        <time>2013-05-05T06:56:03Z</time>
      </trkpt>
      <trkpt lat="45.960448421537876" lon="9.301743283867836">
        <ele>216.91</ele>
        <time>2013-05-05T06:56:10Z</time>
      </trkpt>
      <trkpt lat="45.960437105968595" lon="9.301823247224093">
        <ele>217.40000000000001</ele>
        <time>2013-05-05T06:56:15Z</time>
      </trkpt>
      <trkpt lat="45.960408858954906" lon="9.301952915266156">
        <ele>218.36000000000001</ele>
        <time>2013-05-05T06:56:25Z</time>
      </trkpt>
      <trkpt lat="45.960412630811334" lon="9.302007397636771">
        <ele>219.31999999999999</ele>
        <time>2013-05-05T06:56:29Z</time>
      </trkpt>
      <trkpt lat="45.960390167310834" lon="9.302184004336596">
        <ele>220.28</ele>
        <time>2013-05-05T06:56:43Z</time>
      </trkpt>
      <trkpt lat="45.960304001346231" lon="9.302303697913885">
        <ele>222.19999999999999</ele>
        <time>2013-05-05T06:56:56Z</time>
      </trkpt>
      <trkpt lat="45.960287656635046" lon="9.302325490862131">
        <ele>222.68000000000001</ele>
        <time>2013-05-05T06:56:58Z</time>
      </trkpt>
      <trkpt lat="45.960231246426702" lon="9.302443591877818">
        <ele>223.63999999999999</ele>
        <time>2013-05-05T06:57:10Z</time>
      </trkpt>
      <trkpt lat="45.960230240598321" lon="9.302456080913544">
        <ele>224.12</ele>
        <time>2013-05-05T06:57:11Z</time>
      </trkpt>
      <trkpt lat="45.960196712985635" lon="9.302632017061114">
        <ele>225.56999999999999</ele>
        <time>2013-05-05T06:57:26Z</time>
      </trkpt>
      <trkpt lat="45.960184391587973" lon="9.302837541326881">
        <ele>226.53</ele>
        <time>2013-05-05T06:57:42Z</time>
      </trkpt>
      <trkpt lat="45.960189420729876" lon="9.303034264594317">
        <ele>227.00999999999999</ele>
        <time>2013-05-05T06:57:55Z</time>
      </trkpt>
      <trkpt lat="45.960160084068775" lon="9.303212882950902">
        <ele>227.00999999999999</ele>
        <time>2013-05-05T06:58:08Z</time>
      </trkpt>
      <trkpt lat="45.960171734914184" lon="9.303291169926524">
        <ele>227.97</ele>
        <time>2013-05-05T06:58:12Z</time>
      </trkpt>
      <trkpt lat="45.96015446819365" lon="9.303466435521841">
        <ele>229.41</ele>
        <time>2013-05-05T06:58:25Z</time>
      </trkpt>
      <trkpt lat="45.960089508444071" lon="9.303591661155224">
        <ele>230.37</ele>
        <time>2013-05-05T06:58:38Z</time>
      </trkpt>
      <trkpt lat="45.959877530112863" lon="9.303632648661733">
        <ele>232.30000000000001</ele>
        <time>2013-05-05T06:58:53Z</time>
      </trkpt>
      <trkpt lat="45.959752220660448" lon="9.303563497960568">
        <ele>232.78</ele>
        <time>2013-05-05T06:59:06Z</time>
      </trkpt>
      <trkpt lat="45.959728667512536" lon="9.303549416363239">
        <ele>233.74000000000001</ele>
        <time>2013-05-05T06:59:08Z</time>
      </trkpt>
      <trkpt lat="45.959564801305532" lon="9.303466351702809">
        <ele>233.74000000000001</ele>
        <time>2013-05-05T06:59:24Z</time>
      </trkpt>
      <trkpt lat="45.959544936195016" lon="9.303465681150556">
        <ele>235.66</ele>
        <time>2013-05-05T06:59:26Z</time>
      </trkpt>
      <trkpt lat="45.959472097456455" lon="9.303468950092793">
        <ele>235.18000000000001</ele>
        <time>2013-05-05T06:59:32Z</time>
      </trkpt>
      <trkpt lat="45.959327341988683" lon="9.30345956236124">
        <ele>236.13999999999999</ele>
        <time>2013-05-05T06:59:46Z</time>
      </trkpt>
      <trkpt lat="45.959126511588693" lon="9.303481942042708">
        <ele>237.09999999999999</ele>
        <time>2013-05-05T07:00:03Z</time>
      </trkpt>
      <trkpt lat="45.959103293716908" lon="9.303489234298468">
        <ele>237.58000000000001</ele>
        <time>2013-05-05T07:00:05Z</time>
      </trkpt>
      <trkpt lat="45.959073537960649" lon="9.303544471040368">
        <ele>237.58000000000001</ele>
        <time>2013-05-05T07:00:10Z</time>
      </trkpt>
      <trkpt lat="45.959094576537609" lon="9.303593253716826">
        <ele>238.53999999999999</ele>
        <time>2013-05-05T07:00:14Z</time>
      </trkpt>
      <trkpt lat="45.95916205085814" lon="9.30363591760397">
        <ele>239.50999999999999</ele>
        <time>2013-05-05T07:00:21Z</time>
      </trkpt>
      <trkpt lat="45.959202032536268" lon="9.303652597591281">
        <ele>239.50999999999999</ele>
        <time>2013-05-05T07:00:25Z</time>
      </trkpt>
      <trkpt lat="45.959243690595031" lon="9.303697943687439">
        <ele>239.99000000000001</ele>
        <time>2013-05-05T07:00:30Z</time>
      </trkpt>
      <trkpt lat="45.95931988209486" lon="9.303916124626994">
        <ele>240.94999999999999</ele>
        <time>2013-05-05T07:00:44Z</time>
      </trkpt>
      <trkpt lat="45.959373945370317" lon="9.304191470146179">
        <ele>242.87</ele>
        <time>2013-05-05T07:01:01Z</time>
      </trkpt>
      <trkpt lat="45.959387943148613" lon="9.304235223680735">
        <ele>243.34999999999999</ele>
        <time>2013-05-05T07:01:04Z</time>
      </trkpt>
      <trkpt lat="45.959410406649113" lon="9.304377213120461">
        <ele>243.83000000000001</ele>
        <time>2013-05-05T07:01:13Z</time>
      </trkpt>
      <trkpt lat="45.959392972290516" lon="9.304625485092402">
        <ele>247.19999999999999</ele>
        <time>2013-05-05T07:01:31Z</time>
      </trkpt>
      <trkpt lat="45.959413088858128" lon="9.30484576150775">
        <ele>249.12</ele>
        <time>2013-05-05T07:01:54Z</time>
      </trkpt>
      <trkpt lat="45.959428930655122" lon="9.305110881105065">
        <ele>252</ele>
        <time>2013-05-05T07:02:15Z</time>
      </trkpt>
      <trkpt lat="45.959435971453786" lon="9.305151281878352">
        <ele>252.96000000000001</ele>
        <time>2013-05-05T07:02:19Z</time>
      </trkpt>
      <trkpt lat="45.959397749975324" lon="9.305378179997206">
        <ele>255.37</ele>
        <time>2013-05-05T07:02:35Z</time>
      </trkpt>
      <trkpt lat="45.959389787167311" lon="9.305405337363482">
        <ele>255.84999999999999</ele>
        <time>2013-05-05T07:02:37Z</time>
      </trkpt>
      <trkpt lat="45.959345698356628" lon="9.305612286552787">
        <ele>258.25</ele>
        <time>2013-05-05T07:02:52Z</time>
      </trkpt>
      <trkpt lat="45.959297167137265" lon="9.305752599611878">
        <ele>259.69</ele>
        <time>2013-05-05T07:03:03Z</time>
      </trkpt>
      <trkpt lat="45.959240840747952" lon="9.305833401158452">
        <ele>260.17000000000002</ele>
        <time>2013-05-05T07:03:10Z</time>
      </trkpt>
      <trkpt lat="45.959216533228755" lon="9.305855864658952">
        <ele>260.64999999999998</ele>
        <time>2013-05-05T07:03:20Z</time>
      </trkpt>
      <trkpt lat="45.959228854626417" lon="9.305904731154442">
        <ele>261.62</ele>
        <time>2013-05-05T07:03:24Z</time>
      </trkpt>
      <trkpt lat="45.959363300353289" lon="9.305980922654271">
        <ele>263.54000000000002</ele>
        <time>2013-05-05T07:03:39Z</time>
      </trkpt>
      <trkpt lat="45.959372604265809" lon="9.305991064757109">
        <ele>263.06</ele>
        <time>2013-05-05T07:03:40Z</time>
      </trkpt>
      <trkpt lat="45.959404706954956" lon="9.306048648431897">
        <ele>263.54000000000002</ele>
        <time>2013-05-05T07:03:44Z</time>
      </trkpt>
      <trkpt lat="45.959443096071482" lon="9.306303123012185">
        <ele>265.45999999999998</ele>
        <time>2013-05-05T07:03:59Z</time>
      </trkpt>
      <trkpt lat="45.959449633955956" lon="9.306324915960431">
        <ele>265.94</ele>
        <time>2013-05-05T07:04:01Z</time>
      </trkpt>
      <trkpt lat="45.95947721041739" lon="9.306416530162096">
        <ele>266.89999999999998</ele>
        <time>2013-05-05T07:04:08Z</time>
      </trkpt>
      <trkpt lat="45.95955247990787" lon="9.306568745523691">
        <ele>268.35000000000002</ele>
        <time>2013-05-05T07:04:20Z</time>
      </trkpt>
      <trkpt lat="45.959581648930907" lon="9.306671591475606">
        <ele>269.79000000000002</ele>
        <time>2013-05-05T07:04:31Z</time>
      </trkpt>
      <trkpt lat="45.959590952843428" lon="9.306748453527689">
        <ele>271.23000000000002</ele>
        <time>2013-05-05T07:04:50Z</time>
      </trkpt>
      <trkpt lat="45.959591371938586" lon="9.306794721633196">
        <ele>271.70999999999998</ele>
        <time>2013-05-05T07:04:58Z</time>
      </trkpt>
      <trkpt lat="45.959577290341258" lon="9.306905781850219">
        <ele>272.67000000000002</ele>
        <time>2013-05-05T07:05:09Z</time>
      </trkpt>
      <trkpt lat="45.959567483514547" lon="9.306978536769748">
        <ele>274.58999999999997</ele>
        <time>2013-05-05T07:05:17Z</time>
      </trkpt>
      <trkpt lat="45.959566561505198" lon="9.307051207870245">
        <ele>275.06999999999999</ele>
        <time>2013-05-05T07:05:22Z</time>
      </trkpt>
      <trkpt lat="45.959563292562962" lon="9.307183306664228">
        <ele>277.48000000000002</ele>
        <time>2013-05-05T07:05:34Z</time>
      </trkpt>
      <trkpt lat="45.959564633667469" lon="9.307199567556381">
        <ele>278.44</ele>
        <time>2013-05-05T07:05:36Z</time>
      </trkpt>
      <trkpt lat="45.959559017792344" lon="9.307287661358714">
        <ele>280.36000000000001</ele>
        <time>2013-05-05T07:05:48Z</time>
      </trkpt>
      <trkpt lat="45.959564549848437" lon="9.307313058525324">
        <ele>280.36000000000001</ele>
        <time>2013-05-05T07:05:50Z</time>
      </trkpt>
      <trkpt lat="45.959590198472142" lon="9.307471225038171">
        <ele>280.83999999999997</ele>
        <time>2013-05-05T07:06:00Z</time>
      </trkpt>
      <trkpt lat="45.959599586203694" lon="9.307600138708949">
        <ele>282.27999999999997</ele>
        <time>2013-05-05T07:06:09Z</time>
      </trkpt>
      <trkpt lat="45.959608973935246" lon="9.307770542800427">
        <ele>283.73000000000002</ele>
        <time>2013-05-05T07:06:22Z</time>
      </trkpt>
      <trkpt lat="45.959608303382993" lon="9.307817984372377">
        <ele>283.73000000000002</ele>
        <time>2013-05-05T07:06:25Z</time>
      </trkpt>
      <trkpt lat="45.95960671082139" lon="9.308059047907591">
        <ele>285.64999999999998</ele>
        <time>2013-05-05T07:06:39Z</time>
      </trkpt>
      <trkpt lat="45.959637220948935" lon="9.30826473981142">
        <ele>287.08999999999997</ele>
        <time>2013-05-05T07:06:53Z</time>
      </trkpt>
      <trkpt lat="45.959662031382322" lon="9.308340512216091">
        <ele>288.05000000000001</ele>
        <time>2013-05-05T07:06:59Z</time>
      </trkpt>
      <trkpt lat="45.959716429933906" lon="9.308378985151649">
        <ele>288.05000000000001</ele>
        <time>2013-05-05T07:07:06Z</time>
      </trkpt>
      <trkpt lat="45.959857748821378" lon="9.30827890522778">
        <ele>286.61000000000001</ele>
        <time>2013-05-05T07:07:21Z</time>
      </trkpt>
      <trkpt lat="45.959955314174294" lon="9.308276725932956">
        <ele>286.61000000000001</ele>
        <time>2013-05-05T07:07:31Z</time>
      </trkpt>
      <trkpt lat="45.960084227845073" lon="9.308359203860164">
        <ele>289.49000000000001</ele>
        <time>2013-05-05T07:07:48Z</time>
      </trkpt>
      <trkpt lat="45.960091017186642" lon="9.308364484459162">
        <ele>289.97000000000003</ele>
        <time>2013-05-05T07:07:49Z</time>
      </trkpt>
      <trkpt lat="45.960197048261762" lon="9.308492727577686">
        <ele>292.86000000000001</ele>
        <time>2013-05-05T07:08:04Z</time>
      </trkpt>
      <trkpt lat="45.96020232886076" lon="9.308497253805399">
        <ele>293.33999999999997</ele>
        <time>2013-05-05T07:08:05Z</time>
      </trkpt>
      <trkpt lat="45.960232336074114" lon="9.308546036481857">
        <ele>293.33999999999997</ele>
        <time>2013-05-05T07:08:10Z</time>
      </trkpt>
      <trkpt lat="45.960243819281459" lon="9.308574786409736">
        <ele>294.30000000000001</ele>
        <time>2013-05-05T07:08:12Z</time>
      </trkpt>
      <trkpt lat="45.960277179256082" lon="9.308624994009733">
        <ele>294.30000000000001</ele>
        <time>2013-05-05T07:08:18Z</time>
      </trkpt>
      <trkpt lat="45.96034649759531" lon="9.308669082820416">
        <ele>295.74000000000001</ele>
        <time>2013-05-05T07:08:30Z</time>
      </trkpt>
      <trkpt lat="45.960388239473104" lon="9.308701269328594">
        <ele>296.69999999999999</ele>
        <time>2013-05-05T07:08:36Z</time>
      </trkpt>
      <trkpt lat="45.960442721843719" lon="9.308803444728255">
        <ele>298.63</ele>
        <time>2013-05-05T07:08:48Z</time>
      </trkpt>
      <trkpt lat="45.960483625531197" lon="9.308970244601369">
        <ele>301.02999999999997</ele>
        <time>2013-05-05T07:09:02Z</time>
      </trkpt>
      <trkpt lat="45.960495611652732" lon="9.309012740850449">
        <ele>301.99000000000001</ele>
        <time>2013-05-05T07:09:05Z</time>
      </trkpt>
      <trkpt lat="45.960496114566922" lon="9.309038389474154">
        <ele>301.99000000000001</ele>
        <time>2013-05-05T07:09:07Z</time>
      </trkpt>
      <trkpt lat="45.960545232519507" lon="9.309184737503529">
        <ele>303.91000000000003</ele>
        <time>2013-05-05T07:09:20Z</time>
      </trkpt>
      <trkpt lat="45.960607174783945" lon="9.309280375018716">
        <ele>306.31999999999999</ele>
        <time>2013-05-05T07:09:31Z</time>
      </trkpt>
      <trkpt lat="45.960622848942876" lon="9.309300994500518">
        <ele>306.31999999999999</ele>
        <time>2013-05-05T07:09:34Z</time>
      </trkpt>
      <trkpt lat="45.96068655140698" lon="9.309438541531563">
        <ele>308.72000000000003</ele>
        <time>2013-05-05T07:09:49Z</time>
      </trkpt>
      <trkpt lat="45.960761234164238" lon="9.309556391090155">
        <ele>312.08999999999997</ele>
        <time>2013-05-05T07:10:04Z</time>
      </trkpt>
      <trkpt lat="45.960808759555221" lon="9.309685220941901">
        <ele>314.00999999999999</ele>
        <time>2013-05-05T07:10:17Z</time>
      </trkpt>
      <trkpt lat="45.960863241925836" lon="9.309776332229376">
        <ele>316.41000000000003</ele>
        <time>2013-05-05T07:10:29Z</time>
      </trkpt>
      <trkpt lat="45.960842873901129" lon="9.309799382463098">
        <ele>315.93000000000001</ele>
        <time>2013-05-05T07:10:43Z</time>
      </trkpt>
      <trkpt lat="45.960910096764565" lon="9.309838777408004">
        <ele>316.88999999999999</ele>
        <time>2013-05-05T07:10:57Z</time>
      </trkpt>
      <trkpt lat="45.960934069007635" lon="9.309916226193309">
        <ele>318.32999999999998</ele>
        <time>2013-05-05T07:11:11Z</time>
      </trkpt>
      <trkpt lat="45.960957454517484" lon="9.310052683576942">
        <ele>321.22000000000003</ele>
        <time>2013-05-05T07:11:24Z</time>
      </trkpt>
      <trkpt lat="45.960964998230338" lon="9.310098951682448">
        <ele>322.18000000000001</ele>
        <time>2013-05-05T07:11:28Z</time>
      </trkpt>
      <trkpt lat="45.960995424538851" lon="9.310207413509488">
        <ele>324.10000000000002</ele>
        <time>2013-05-05T07:11:38Z</time>
      </trkpt>
      <trkpt lat="45.961014032363892" lon="9.310208084061742">
        <ele>324.10000000000002</ele>
        <time>2013-05-05T07:11:40Z</time>
      </trkpt>
      <trkpt lat="45.961114279925823" lon="9.310286119580269">
        <ele>326.01999999999998</ele>
        <time>2013-05-05T07:11:56Z</time>
      </trkpt>
      <trkpt lat="45.961116794496775" lon="9.310383265838027">
        <ele>328.91000000000003</ele>
        <time>2013-05-05T07:12:11Z</time>
      </trkpt>
      <trkpt lat="45.961117632687092" lon="9.310361305251718">
        <ele>328.43000000000001</ele>
        <time>2013-05-05T07:12:25Z</time>
      </trkpt>
      <trkpt lat="45.961140180006623" lon="9.310564734041691">
        <ele>329.87</ele>
        <time>2013-05-05T07:12:36Z</time>
      </trkpt>
      <trkpt lat="45.961149064823985" lon="9.310609828680754">
        <ele>330.35000000000002</ele>
        <time>2013-05-05T07:12:47Z</time>
      </trkpt>
      <trkpt lat="45.961177563294768" lon="9.310613600537181">
        <ele>331.31</ele>
        <time>2013-05-05T07:12:51Z</time>
      </trkpt>
      <trkpt lat="45.961193656548858" lon="9.3106609582901">
        <ele>332.26999999999998</ele>
        <time>2013-05-05T07:12:55Z</time>
      </trkpt>
      <trkpt lat="45.961200781166553" lon="9.310688534751535">
        <ele>332.26999999999998</ele>
        <time>2013-05-05T07:12:57Z</time>
      </trkpt>
      <trkpt lat="45.961250653490424" lon="9.310737736523151">
        <ele>333.23000000000002</ele>
        <time>2013-05-05T07:13:12Z</time>
      </trkpt>
      <trkpt lat="45.96125140786171" lon="9.3107386585325">
        <ele>333.70999999999998</ele>
        <time>2013-05-05T07:13:17Z</time>
      </trkpt>
      <trkpt lat="45.961267584934831" lon="9.310666490346193">
        <ele>332.75</ele>
        <time>2013-05-05T07:13:23Z</time>
      </trkpt>
      <trkpt lat="45.961364060640335" lon="9.310717452317476">
        <ele>333.70999999999998</ele>
        <time>2013-05-05T07:13:31Z</time>
      </trkpt>
      <trkpt lat="45.961450478062034" lon="9.310712004080415">
        <ele>335.16000000000003</ele>
        <time>2013-05-05T07:13:40Z</time>
      </trkpt>
      <trkpt lat="45.961478054523468" lon="9.310693563893437">
        <ele>335.63999999999999</ele>
        <time>2013-05-05T07:13:44Z</time>
      </trkpt>
      <trkpt lat="45.961623815819621" lon="9.310646709054709">
        <ele>335.63999999999999</ele>
        <time>2013-05-05T07:13:59Z</time>
      </trkpt>
      <trkpt lat="45.961761195212603" lon="9.310592226684094">
        <ele>335.16000000000003</ele>
        <time>2013-05-05T07:14:12Z</time>
      </trkpt>
      <trkpt lat="45.961787514388561" lon="9.310542354360223">
        <ele>335.16000000000003</ele>
        <time>2013-05-05T07:14:17Z</time>
      </trkpt>
      <trkpt lat="45.961801679804921" lon="9.310532128438354">
        <ele>335.16000000000003</ele>
        <time>2013-05-05T07:14:31Z</time>
      </trkpt>
      <trkpt lat="45.961827747523785" lon="9.310500444844365">
        <ele>335.16000000000003</ele>
        <time>2013-05-05T07:14:46Z</time>
      </trkpt>
      <trkpt lat="45.96183973364532" lon="9.310459038242698">
        <ele>335.16000000000003</ele>
        <time>2013-05-05T07:15:07Z</time>
      </trkpt>
      <trkpt lat="45.961833028122783" lon="9.310479909181595">
        <ele>335.16000000000003</ele>
        <time>2013-05-05T07:15:36Z</time>
      </trkpt>
      <trkpt lat="45.961828585714102" lon="9.310462391003966">
        <ele>335.63999999999999</ele>
        <time>2013-05-05T07:15:56Z</time>
      </trkpt>
      <trkpt lat="45.961822886019945" lon="9.310433557257056">
        <ele>335.63999999999999</ele>
        <time>2013-05-05T07:16:24Z</time>
      </trkpt>
      <trkpt lat="45.961812241002917" lon="9.310419475659728">
        <ele>335.63999999999999</ele>
        <time>2013-05-05T07:16:56Z</time>
      </trkpt>
      <trkpt lat="45.961814001202583" lon="9.310430372133851">
        <ele>335.63999999999999</ele>
        <time>2013-05-05T07:17:10Z</time>
      </trkpt>
      <trkpt lat="45.961833279579878" lon="9.310447555035353">
        <ele>335.16000000000003</ele>
        <time>2013-05-05T07:17:28Z</time>
      </trkpt>
      <trkpt lat="45.961813582107425" lon="9.310457948595285">
        <ele>335.63999999999999</ele>
        <time>2013-05-05T07:17:47Z</time>
      </trkpt>
      <trkpt lat="45.961834201589227" lon="9.310461636632681">
        <ele>335.63999999999999</ele>
        <time>2013-05-05T07:18:05Z</time>
      </trkpt>
      <trkpt lat="45.961864460259676" lon="9.310463229194284">
        <ele>335.63999999999999</ele>
        <time>2013-05-05T07:18:08Z</time>
      </trkpt>
      <trkpt lat="45.961934449151158" lon="9.310444369912148">
        <ele>336.60000000000002</ele>
        <time>2013-05-05T07:18:15Z</time>
      </trkpt>
      <trkpt lat="45.962082305923104" lon="9.310580743476749">
        <ele>335.63999999999999</ele>
        <time>2013-05-05T07:18:32Z</time>
      </trkpt>
      <trkpt lat="45.962153552100062" lon="9.310735641047359">
        <ele>334.68000000000001</ele>
        <time>2013-05-05T07:18:40Z</time>
      </trkpt>
      <trkpt lat="45.962238209322095" lon="9.310795906931162">
        <ele>333.70999999999998</ele>
        <time>2013-05-05T07:18:50Z</time>
      </trkpt>
      <trkpt lat="45.962253464385867" lon="9.310797667130828">
        <ele>334.19999999999999</ele>
        <time>2013-05-05T07:18:53Z</time>
      </trkpt>
      <trkpt lat="45.962254386395216" lon="9.310823148116469">
        <ele>334.19999999999999</ele>
        <time>2013-05-05T07:18:56Z</time>
      </trkpt>
      <trkpt lat="45.96229805611074" lon="9.310903865844011">
        <ele>334.19999999999999</ele>
        <time>2013-05-05T07:19:01Z</time>
      </trkpt>
      <trkpt lat="45.962362010031939" lon="9.311196310445666">
        <ele>335.16000000000003</ele>
        <time>2013-05-05T07:19:17Z</time>
      </trkpt>
      <trkpt lat="45.962317669764161" lon="9.311228496953845">
        <ele>336.12</ele>
        <time>2013-05-05T07:19:28Z</time>
      </trkpt>
      <trkpt lat="45.962227396667004" lon="9.311174182221293">
        <ele>338.51999999999998</ele>
        <time>2013-05-05T07:19:43Z</time>
      </trkpt>
      <trkpt lat="45.962116587907076" lon="9.311178456991911">
        <ele>341.88999999999999</ele>
        <time>2013-05-05T07:19:57Z</time>
      </trkpt>
      <trkpt lat="45.962040899321437" lon="9.311182228848338">
        <ele>345.25</ele>
        <time>2013-05-05T07:20:11Z</time>
      </trkpt>
      <trkpt lat="45.961946099996567" lon="9.311177786439657">
        <ele>348.62</ele>
        <time>2013-05-05T07:20:25Z</time>
      </trkpt>
      <trkpt lat="45.961865382269025" lon="9.311213493347168">
        <ele>351.5</ele>
        <time>2013-05-05T07:20:40Z</time>
      </trkpt>
      <trkpt lat="45.96176890656352" lon="9.311296977102757">
        <ele>353.42000000000002</ele>
        <time>2013-05-05T07:20:55Z</time>
      </trkpt>
      <trkpt lat="45.961689697578549" lon="9.311316590756178">
        <ele>354.86000000000001</ele>
        <time>2013-05-05T07:21:09Z</time>
      </trkpt>
      <trkpt lat="45.961709395051003" lon="9.311339221894741">
        <ele>355.82999999999998</ele>
        <time>2013-05-05T07:21:21Z</time>
      </trkpt>
      <trkpt lat="45.961775779724121" lon="9.311364954337478">
        <ele>357.75</ele>
        <time>2013-05-05T07:21:35Z</time>
      </trkpt>
      <trkpt lat="45.96185389906168" lon="9.311364283785224">
        <ele>359.67000000000002</ele>
        <time>2013-05-05T07:21:47Z</time>
      </trkpt>
      <trkpt lat="45.961918942630291" lon="9.311349363997579">
        <ele>362.55000000000001</ele>
        <time>2013-05-05T07:22:01Z</time>
      </trkpt>
      <trkpt lat="45.961963953450322" lon="9.311462352052331">
        <ele>366.39999999999998</ele>
        <time>2013-05-05T07:22:19Z</time>
      </trkpt>
      <trkpt lat="45.961960852146149" lon="9.311472410336137">
        <ele>366.39999999999998</ele>
        <time>2013-05-05T07:22:20Z</time>
      </trkpt>
      <trkpt lat="45.961882816627622" lon="9.311608029529452">
        <ele>367.83999999999997</ele>
        <time>2013-05-05T07:22:35Z</time>
      </trkpt>
      <trkpt lat="45.961848618462682" lon="9.311672067269683">
        <ele>369.27999999999997</ele>
        <time>2013-05-05T07:22:47Z</time>
      </trkpt>
      <trkpt lat="45.961894216015935" lon="9.311776086688042">
        <ele>371.20999999999998</ele>
        <time>2013-05-05T07:23:01Z</time>
      </trkpt>
      <trkpt lat="45.961916763335466" lon="9.311877004802227">
        <ele>373.61000000000001</ele>
        <time>2013-05-05T07:23:14Z</time>
      </trkpt>
      <trkpt lat="45.961896982043982" lon="9.311931068077683">
        <ele>376.49000000000001</ele>
        <time>2013-05-05T07:23:25Z</time>
      </trkpt>
      <trkpt lat="45.961904609575868" lon="9.311985801905394">
        <ele>377.44999999999999</ele>
        <time>2013-05-05T07:23:38Z</time>
      </trkpt>
      <trkpt lat="45.961855910718441" lon="9.312061574310064">
        <ele>379.86000000000001</ele>
        <time>2013-05-05T07:23:51Z</time>
      </trkpt>
      <trkpt lat="45.961847528815269" lon="9.31213466450572">
        <ele>381.77999999999997</ele>
        <time>2013-05-05T07:24:03Z</time>
      </trkpt>
      <trkpt lat="45.96176739782095" lon="9.312072973698378">
        <ele>384.66000000000003</ele>
        <time>2013-05-05T07:24:17Z</time>
      </trkpt>
      <trkpt lat="45.961706712841988" lon="9.312053024768829">
        <ele>387.06999999999999</ele>
        <time>2013-05-05T07:24:30Z</time>
      </trkpt>
      <trkpt lat="45.961656337603927" lon="9.312057970091701">
        <ele>389.47000000000003</ele>
        <time>2013-05-05T07:24:43Z</time>
      </trkpt>
      <trkpt lat="45.961634293198586" lon="9.312137933447957">
        <ele>391.87</ele>
        <time>2013-05-05T07:24:58Z</time>
      </trkpt>
      <trkpt lat="45.961569584906101" lon="9.31218596175313">
        <ele>394.27999999999997</ele>
        <time>2013-05-05T07:25:12Z</time>
      </trkpt>
      <trkpt lat="45.961500518023968" lon="9.312270786613226">
        <ele>396.19999999999999</ele>
        <time>2013-05-05T07:25:28Z</time>
      </trkpt>
      <trkpt lat="45.961434217169881" lon="9.312334908172488">
        <ele>398.60000000000002</ele>
        <time>2013-05-05T07:25:42Z</time>
      </trkpt>
      <trkpt lat="45.961465230211616" lon="9.31245326064527">
        <ele>401.00999999999999</ele>
        <time>2013-05-05T07:25:56Z</time>
      </trkpt>
      <trkpt lat="45.961507055908442" lon="9.312533643096685">
        <ele>402.93000000000001</ele>
        <time>2013-05-05T07:26:08Z</time>
      </trkpt>
      <trkpt lat="45.961559191346169" lon="9.312624586746097">
        <ele>404.37</ele>
        <time>2013-05-05T07:26:20Z</time>
      </trkpt>
      <trkpt lat="45.961610991507769" lon="9.312717709690332">
        <ele>405.81</ele>
        <time>2013-05-05T07:26:34Z</time>
      </trkpt>
      <trkpt lat="45.961650051176548" lon="9.312819549813867">
        <ele>407.74000000000001</ele>
        <time>2013-05-05T07:26:47Z</time>
      </trkpt>
      <trkpt lat="45.961705539375544" lon="9.312924491241574">
        <ele>409.66000000000003</ele>
        <time>2013-05-05T07:27:02Z</time>
      </trkpt>
      <trkpt lat="45.961727248504758" lon="9.312987523153424">
        <ele>411.57999999999998</ele>
        <time>2013-05-05T07:27:13Z</time>
      </trkpt>
      <trkpt lat="45.961762284860015" lon="9.31304250843823">
        <ele>414.47000000000003</ele>
        <time>2013-05-05T07:27:28Z</time>
      </trkpt>
      <trkpt lat="45.961806541308761" lon="9.313125321641564">
        <ele>417.35000000000002</ele>
        <time>2013-05-05T07:27:42Z</time>
      </trkpt>
      <trkpt lat="45.961840488016605" lon="9.313207548111677">
        <ele>418.79000000000002</ele>
        <time>2013-05-05T07:27:55Z</time>
      </trkpt>
      <trkpt lat="45.961881391704082" lon="9.313224060460925">
        <ele>420.70999999999998</ele>
        <time>2013-05-05T07:28:08Z</time>
      </trkpt>
      <trkpt lat="45.961907962337136" lon="9.31332154199481">
        <ele>422.63999999999999</ele>
        <time>2013-05-05T07:28:22Z</time>
      </trkpt>
      <trkpt lat="45.961938472464681" lon="9.31342514231801">
        <ele>424.56</ele>
        <time>2013-05-05T07:28:35Z</time>
      </trkpt>
      <trkpt lat="45.961955403909087" lon="9.313532346859574">
        <ele>426.95999999999998</ele>
        <time>2013-05-05T07:28:51Z</time>
      </trkpt>
      <trkpt lat="45.961974347010255" lon="9.313624547794461">
        <ele>428.88999999999999</ele>
        <time>2013-05-05T07:29:06Z</time>
      </trkpt>
      <trkpt lat="45.962013406679034" lon="9.313699901103973">
        <ele>431.76999999999998</ele>
        <time>2013-05-05T07:29:21Z</time>
      </trkpt>
      <trkpt lat="45.962009551003575" lon="9.313788749277592">
        <ele>434.64999999999998</ele>
        <time>2013-05-05T07:29:35Z</time>
      </trkpt>
      <trkpt lat="45.961997900158167" lon="9.313889583572745">
        <ele>437.06</ele>
        <time>2013-05-05T07:29:48Z</time>
      </trkpt>
      <trkpt lat="45.962010808289051" lon="9.313972480595112">
        <ele>438.98000000000002</ele>
        <time>2013-05-05T07:30:00Z</time>
      </trkpt>
      <trkpt lat="45.962017765268683" lon="9.314077673479915">
        <ele>441.38</ele>
        <time>2013-05-05T07:30:14Z</time>
      </trkpt>
      <trkpt lat="45.962027236819267" lon="9.314172556623817">
        <ele>444.26999999999998</ele>
        <time>2013-05-05T07:30:28Z</time>
      </trkpt>
      <trkpt lat="45.962045677006245" lon="9.3142494186759">
        <ele>446.67000000000002</ele>
        <time>2013-05-05T07:30:42Z</time>
      </trkpt>
      <trkpt lat="45.962041318416595" lon="9.314308930188417">
        <ele>449.06999999999999</ele>
        <time>2013-05-05T07:30:54Z</time>
      </trkpt>
      <trkpt lat="45.962105272337794" lon="9.3143598921597">
        <ele>451</ele>
        <time>2013-05-05T07:31:09Z</time>
      </trkpt>
      <trkpt lat="45.962199652567506" lon="9.314437257125974">
        <ele>451.95999999999998</ele>
        <time>2013-05-05T07:31:26Z</time>
      </trkpt>
      <trkpt lat="45.962268300354481" lon="9.314457038417459">
        <ele>453.88</ele>
        <time>2013-05-05T07:31:41Z</time>
      </trkpt>
      <trkpt lat="45.962264444679022" lon="9.314479166641831">
        <ele>455.80000000000001</ele>
        <time>2013-05-05T07:31:58Z</time>
      </trkpt>
      <trkpt lat="45.962289087474346" lon="9.314461648464203">
        <ele>454.83999999999997</ele>
        <time>2013-05-05T07:32:15Z</time>
      </trkpt>
      <trkpt lat="45.962274922057986" lon="9.314431138336659">
        <ele>454.36000000000001</ele>
        <time>2013-05-05T07:32:38Z</time>
      </trkpt>
      <trkpt lat="45.962260589003563" lon="9.314425690099597">
        <ele>454.83999999999997</ele>
        <time>2013-05-05T07:33:04Z</time>
      </trkpt>
      <trkpt lat="45.962245836853981" lon="9.314489057287574">
        <ele>454.36000000000001</ele>
        <time>2013-05-05T07:33:29Z</time>
      </trkpt>
      <trkpt lat="45.962266707792878" lon="9.314456786960363">
        <ele>454.83999999999997</ele>
        <time>2013-05-05T07:33:57Z</time>
      </trkpt>
      <trkpt lat="45.962262684479356" lon="9.314462402835488">
        <ele>454.36000000000001</ele>
        <time>2013-05-05T07:33:58Z</time>
      </trkpt>
      <trkpt lat="45.962242064997554" lon="9.314472964033485">
        <ele>455.80000000000001</ele>
        <time>2013-05-05T07:34:10Z</time>
      </trkpt>
      <trkpt lat="45.962239047512412" lon="9.314475394785404">
        <ele>455.80000000000001</ele>
        <time>2013-05-05T07:34:27Z</time>
      </trkpt>
      <trkpt lat="45.962261511012912" lon="9.314436921849847">
        <ele>456.27999999999997</ele>
        <time>2013-05-05T07:34:47Z</time>
      </trkpt>
      <trkpt lat="45.962267881259322" lon="9.314453015103936">
        <ele>455.80000000000001</ele>
        <time>2013-05-05T07:35:15Z</time>
      </trkpt>
      <trkpt lat="45.962271736934781" lon="9.314468940719962">
        <ele>455.80000000000001</ele>
        <time>2013-05-05T07:35:31Z</time>
      </trkpt>
      <trkpt lat="45.962245417758822" lon="9.314466593787074">
        <ele>456.27999999999997</ele>
        <time>2013-05-05T07:36:07Z</time>
      </trkpt>
      <trkpt lat="45.962257403880358" lon="9.31442485190928">
        <ele>455.31999999999999</ele>
        <time>2013-05-05T07:36:34Z</time>
      </trkpt>
      <trkpt lat="45.962266204878688" lon="9.314440861344338">
        <ele>455.80000000000001</ele>
        <time>2013-05-05T07:36:54Z</time>
      </trkpt>
      <trkpt lat="45.962238628417253" lon="9.314463408663869">
        <ele>456.27999999999997</ele>
        <time>2013-05-05T07:37:13Z</time>
      </trkpt>
      <trkpt lat="45.962261594831944" lon="9.314487213268876">
        <ele>456.27999999999997</ele>
        <time>2013-05-05T07:37:39Z</time>
      </trkpt>
      <trkpt lat="45.962259499356151" lon="9.314489560201764">
        <ele>456.27999999999997</ele>
        <time>2013-05-05T07:38:03Z</time>
      </trkpt>
      <trkpt lat="45.962228905409575" lon="9.314510012045503">
        <ele>456.27999999999997</ele>
        <time>2013-05-05T07:38:23Z</time>
      </trkpt>
      <trkpt lat="45.962234269827604" lon="9.314550328999758">
        <ele>457.24000000000001</ele>
        <time>2013-05-05T07:38:51Z</time>
      </trkpt>
      <trkpt lat="45.96223259344697" lon="9.314537756145001">
        <ele>457.24000000000001</ele>
        <time>2013-05-05T07:39:09Z</time>
      </trkpt>
      <trkpt lat="45.962245417758822" lon="9.314525853842497">
        <ele>457.24000000000001</ele>
        <time>2013-05-05T07:39:29Z</time>
      </trkpt>
      <trkpt lat="45.962246675044298" lon="9.314492745324969">
        <ele>457.24000000000001</ele>
        <time>2013-05-05T07:39:48Z</time>
      </trkpt>
      <trkpt lat="45.962241310626268" lon="9.31448545306921">
        <ele>457.72000000000003</ele>
        <time>2013-05-05T07:40:08Z</time>
      </trkpt>
      <trkpt lat="45.962175512686372" lon="9.314492242410779">
        <ele>455.80000000000001</ele>
        <time>2013-05-05T07:40:21Z</time>
      </trkpt>
      <trkpt lat="45.962043078616261" lon="9.314397694543004">
        <ele>452.44</ele>
        <time>2013-05-05T07:40:37Z</time>
      </trkpt>
      <trkpt lat="45.961970156058669" lon="9.314304739236832">
        <ele>450.51999999999998</ele>
        <time>2013-05-05T07:40:51Z</time>
      </trkpt>
      <trkpt lat="45.961951967328787" lon="9.31430222466588">
        <ele>450.02999999999997</ele>
        <time>2013-05-05T07:41:05Z</time>
      </trkpt>
      <trkpt lat="45.961977783590555" lon="9.314288897439838">
        <ele>450.51999999999998</ele>
        <time>2013-05-05T07:41:32Z</time>
      </trkpt>
      <trkpt lat="45.962022207677364" lon="9.314223183318973">
        <ele>449.55000000000001</ele>
        <time>2013-05-05T07:41:50Z</time>
      </trkpt>
      <trkpt lat="45.962053807452321" lon="9.314112877473235">
        <ele>448.58999999999997</ele>
        <time>2013-05-05T07:42:03Z</time>
      </trkpt>
      <trkpt lat="45.962033439427614" lon="9.31405839510262">
        <ele>445.70999999999998</ele>
        <time>2013-05-05T07:42:14Z</time>
      </trkpt>
      <trkpt lat="45.962110050022602" lon="9.314142884686589">
        <ele>447.14999999999998</ele>
        <time>2013-05-05T07:42:26Z</time>
      </trkpt>
      <trkpt lat="45.9620669670403" lon="9.314272552728653">
        <ele>449.55000000000001</ele>
        <time>2013-05-05T07:42:42Z</time>
      </trkpt>
      <trkpt lat="45.962057411670685" lon="9.314334411174059">
        <ele>451.95999999999998</ele>
        <time>2013-05-05T07:42:56Z</time>
      </trkpt>
      <trkpt lat="45.962110804393888" lon="9.314368357881904">
        <ele>454.36000000000001</ele>
        <time>2013-05-05T07:43:09Z</time>
      </trkpt>
      <trkpt lat="45.96217735670507" lon="9.314425690099597">
        <ele>455.80000000000001</ele>
        <time>2013-05-05T07:43:22Z</time>
      </trkpt>
      <trkpt lat="45.962210800498724" lon="9.31441018357873">
        <ele>456.75999999999999</ele>
        <time>2013-05-05T07:43:36Z</time>
      </trkpt>
      <trkpt lat="45.962266037240624" lon="9.314476232975721">
        <ele>459.17000000000002</ele>
        <time>2013-05-05T07:43:54Z</time>
      </trkpt>
      <trkpt lat="45.962242232635617" lon="9.314530296251178">
        <ele>458.69</ele>
        <time>2013-05-05T07:44:14Z</time>
      </trkpt>
      <trkpt lat="45.962278777733445" lon="9.314475897699595">
        <ele>459.17000000000002</ele>
        <time>2013-05-05T07:44:39Z</time>
      </trkpt>
      <trkpt lat="45.962253548204899" lon="9.314544294029474">
        <ele>459.17000000000002</ele>
        <time>2013-05-05T07:45:07Z</time>
      </trkpt>
      <trkpt lat="45.962260086089373" lon="9.314527111127973">
        <ele>459.17000000000002</ele>
        <time>2013-05-05T07:45:31Z</time>
      </trkpt>
      <trkpt lat="45.962251368910074" lon="9.314512023702264">
        <ele>459.64999999999998</ele>
        <time>2013-05-05T07:45:55Z</time>
      </trkpt>
      <trkpt lat="45.9622448310256" lon="9.314537085592747">
        <ele>459.64999999999998</ele>
        <time>2013-05-05T07:46:13Z</time>
      </trkpt>
      <trkpt lat="45.962256314232945" lon="9.314526272937655">
        <ele>459.64999999999998</ele>
        <time>2013-05-05T07:46:28Z</time>
      </trkpt>
      <trkpt lat="45.962319681420922" lon="9.314524848014116">
        <ele>461.56999999999999</ele>
        <time>2013-05-05T07:46:45Z</time>
      </trkpt>
      <trkpt lat="45.962365530431271" lon="9.314583521336317">
        <ele>463.00999999999999</ele>
        <time>2013-05-05T07:46:58Z</time>
      </trkpt>
      <trkpt lat="45.962396543473005" lon="9.314649989828467">
        <ele>465.42000000000002</ele>
        <time>2013-05-05T07:47:11Z</time>
      </trkpt>
      <trkpt lat="45.962452283129096" lon="9.31471218355">
        <ele>467.33999999999997</ele>
        <time>2013-05-05T07:47:27Z</time>
      </trkpt>
      <trkpt lat="45.962491258978844" lon="9.314774125814438">
        <ele>469.74000000000001</ele>
        <time>2013-05-05T07:47:42Z</time>
      </trkpt>
      <trkpt lat="45.962514979764819" lon="9.314830116927624">
        <ele>471.18000000000001</ele>
        <time>2013-05-05T07:47:55Z</time>
      </trkpt>
      <trkpt lat="45.962539371103048" lon="9.31483238004148">
        <ele>474.06999999999999</ele>
        <time>2013-05-05T07:48:11Z</time>
      </trkpt>
      <trkpt lat="45.962620843201876" lon="9.314875714480877">
        <ele>474.06999999999999</ele>
        <time>2013-05-05T07:48:25Z</time>
      </trkpt>
      <trkpt lat="45.962709691375494" lon="9.314897758886218">
        <ele>474.06999999999999</ele>
        <time>2013-05-05T07:48:37Z</time>
      </trkpt>
      <trkpt lat="45.96272905357182" lon="9.314895579591394">
        <ele>474.06999999999999</ele>
        <time>2013-05-05T07:48:39Z</time>
      </trkpt>
      <trkpt lat="45.96278915181756" lon="9.314907565712929">
        <ele>475.02999999999997</ele>
        <time>2013-05-05T07:48:46Z</time>
      </trkpt>
      <trkpt lat="45.962859224528074" lon="9.314901027828455">
        <ele>475.50999999999999</ele>
        <time>2013-05-05T07:48:53Z</time>
      </trkpt>
      <trkpt lat="45.962955113500357" lon="9.314953582361341">
        <ele>477.43000000000001</ele>
        <time>2013-05-05T07:49:07Z</time>
      </trkpt>
      <trkpt lat="45.963030969724059" lon="9.31501904502511">
        <ele>478.87</ele>
        <time>2013-05-05T07:49:19Z</time>
      </trkpt>
      <trkpt lat="45.963097354397178" lon="9.314997587352991">
        <ele>480.31999999999999</ele>
        <time>2013-05-05T07:49:34Z</time>
      </trkpt>
      <trkpt lat="45.963143203407526" lon="9.314977722242475">
        <ele>482.72000000000003</ele>
        <time>2013-05-05T07:49:47Z</time>
      </trkpt>
      <trkpt lat="45.963214533403516" lon="9.314917791634798">
        <ele>482.24000000000001</ele>
        <time>2013-05-05T07:50:00Z</time>
      </trkpt>
      <trkpt lat="45.963354175910354" lon="9.314889628440142">
        <ele>482.24000000000001</ele>
        <time>2013-05-05T07:50:15Z</time>
      </trkpt>
      <trkpt lat="45.963445287197828" lon="9.315040251240134">
        <ele>483.68000000000001</ele>
        <time>2013-05-05T07:50:30Z</time>
      </trkpt>
      <trkpt lat="45.963540840893984" lon="9.315144689753652">
        <ele>483.68000000000001</ele>
        <time>2013-05-05T07:50:43Z</time>
      </trkpt>
      <trkpt lat="45.963644273579121" lon="9.31528827175498">
        <ele>483.68000000000001</ele>
        <time>2013-05-05T07:50:58Z</time>
      </trkpt>
      <trkpt lat="45.963745024055243" lon="9.315364379435778">
        <ele>483.68000000000001</ele>
        <time>2013-05-05T07:51:12Z</time>
      </trkpt>
      <trkpt lat="45.963865136727691" lon="9.315438726916909">
        <ele>484.16000000000003</ele>
        <time>2013-05-05T07:51:26Z</time>
      </trkpt>
      <trkpt lat="45.963923810049891" lon="9.31540310382843">
        <ele>484.16000000000003</ele>
        <time>2013-05-05T07:51:35Z</time>
      </trkpt>
      <trkpt lat="45.964010898023844" lon="9.315390530973673">
        <ele>483.19999999999999</ele>
        <time>2013-05-05T07:51:45Z</time>
      </trkpt>
      <trkpt lat="45.96412212587893" lon="9.315377622842789">
        <ele>485.12</ele>
        <time>2013-05-05T07:52:01Z</time>
      </trkpt>
      <trkpt lat="45.964190773665905" lon="9.315340407192707">
        <ele>484.63999999999999</ele>
        <time>2013-05-05T07:52:11Z</time>
      </trkpt>
      <trkpt lat="45.96433762460947" lon="9.315313836559653">
        <ele>484.63999999999999</ele>
        <time>2013-05-05T07:52:26Z</time>
      </trkpt>
      <trkpt lat="45.964457402005792" lon="9.315342083573341">
        <ele>485.60000000000002</ele>
        <time>2013-05-05T07:52:39Z</time>
      </trkpt>
      <trkpt lat="45.964517081156373" lon="9.315430680289865">
        <ele>486.56</ele>
        <time>2013-05-05T07:52:51Z</time>
      </trkpt>
      <trkpt lat="45.964531330391765" lon="9.315498573705554">
        <ele>488.49000000000001</ele>
        <time>2013-05-05T07:53:05Z</time>
      </trkpt>
      <trkpt lat="45.964577933773398" lon="9.315547440201044">
        <ele>491.37</ele>
        <time>2013-05-05T07:53:19Z</time>
      </trkpt>
      <trkpt lat="45.964635433629155" lon="9.31559756398201">
        <ele>493.76999999999998</ele>
        <time>2013-05-05T07:53:33Z</time>
      </trkpt>
      <trkpt lat="45.96470165066421" lon="9.315619859844446">
        <ele>495.22000000000003</ele>
        <time>2013-05-05T07:53:49Z</time>
      </trkpt>
      <trkpt lat="45.964740291237831" lon="9.315621200948954">
        <ele>496.66000000000003</ele>
        <time>2013-05-05T07:54:04Z</time>
      </trkpt>
      <trkpt lat="45.964789660647511" lon="9.315696638077498">
        <ele>499.06</ele>
        <time>2013-05-05T07:54:19Z</time>
      </trkpt>
      <trkpt lat="45.964836766943336" lon="9.315728656947613">
        <ele>501.94999999999999</ele>
        <time>2013-05-05T07:54:34Z</time>
      </trkpt>
      <trkpt lat="45.964891836047173" lon="9.315759586170316">
        <ele>503.87</ele>
        <time>2013-05-05T07:54:46Z</time>
      </trkpt>
      <trkpt lat="45.964914383366704" lon="9.315782971680164">
        <ele>504.82999999999998</ele>
        <time>2013-05-05T07:54:58Z</time>
      </trkpt>
      <trkpt lat="45.96494154073298" lon="9.315757909789681">
        <ele>507.23000000000002</ele>
        <time>2013-05-05T07:55:09Z</time>
      </trkpt>
      <trkpt lat="45.965032232925296" lon="9.315790766850114">
        <ele>507.70999999999998</ele>
        <time>2013-05-05T07:55:24Z</time>
      </trkpt>
      <trkpt lat="45.965121584013104" lon="9.315867964178324">
        <ele>508.67000000000002</ele>
        <time>2013-05-05T07:55:41Z</time>
      </trkpt>
      <trkpt lat="45.96522836945951" lon="9.315918507054448">
        <ele>511.07999999999998</ele>
        <time>2013-05-05T07:55:59Z</time>
      </trkpt>
      <trkpt lat="45.965292742475867" lon="9.315963098779321">
        <ele>513.48000000000002</ele>
        <time>2013-05-05T07:56:12Z</time>
      </trkpt>
      <trkpt lat="45.965372873470187" lon="9.31600509211421">
        <ele>515.39999999999998</ele>
        <time>2013-05-05T07:56:25Z</time>
      </trkpt>
      <trkpt lat="45.965400198474526" lon="9.316026633605361">
        <ele>517.33000000000004</ele>
        <time>2013-05-05T07:56:38Z</time>
      </trkpt>
      <trkpt lat="45.965440180152655" lon="9.316085558384657">
        <ele>519.73000000000002</ele>
        <time>2013-05-05T07:56:51Z</time>
      </trkpt>
      <trkpt lat="45.965460631996393" lon="9.316093605011702">
        <ele>521.16999999999996</ele>
        <time>2013-05-05T07:57:08Z</time>
      </trkpt>
      <trkpt lat="45.965501284226775" lon="9.31611648760736">
        <ele>523.58000000000004</ele>
        <time>2013-05-05T07:57:22Z</time>
      </trkpt>
      <trkpt lat="45.965534895658493" lon="9.316102406010032">
        <ele>525.98000000000002</ele>
        <time>2013-05-05T07:57:33Z</time>
      </trkpt>
      <trkpt lat="45.965576805174351" lon="9.316048761829734">
        <ele>527.41999999999996</ele>
        <time>2013-05-05T07:57:44Z</time>
      </trkpt>
      <trkpt lat="45.965618127956986" lon="9.316059574484825">
        <ele>529.82000000000005</ele>
        <time>2013-05-05T07:57:54Z</time>
      </trkpt>
      <trkpt lat="45.965697756037116" lon="9.315999643877149">
        <ele>530.29999999999995</ele>
        <time>2013-05-05T07:58:07Z</time>
      </trkpt>
      <trkpt lat="45.965750813484192" lon="9.316054629161954">
        <ele>529.82000000000005</ele>
        <time>2013-05-05T07:58:15Z</time>
      </trkpt>
      <trkpt lat="45.965841673314571" lon="9.316184716299176">
        <ele>531.26999999999998</ele>
        <time>2013-05-05T07:58:31Z</time>
      </trkpt>
      <trkpt lat="45.965854665264487" lon="9.316260991618037">
        <ele>534.14999999999998</ele>
        <time>2013-05-05T07:58:46Z</time>
      </trkpt>
      <trkpt lat="45.965875368565321" lon="9.316347576677799">
        <ele>537.02999999999997</ele>
        <time>2013-05-05T07:59:01Z</time>
      </trkpt>
      <trkpt lat="45.965910237282515" lon="9.316379344090819">
        <ele>539.44000000000005</ele>
        <time>2013-05-05T07:59:17Z</time>
      </trkpt>
      <trkpt lat="45.965963378548622" lon="9.316460313275456">
        <ele>541.84000000000003</ele>
        <time>2013-05-05T07:59:30Z</time>
      </trkpt>
      <trkpt lat="45.965995732694864" lon="9.316501468420029">
        <ele>542.79999999999995</ele>
        <time>2013-05-05T07:59:43Z</time>
      </trkpt>
      <trkpt lat="45.966021968051791" lon="9.316578079015017">
        <ele>544.72000000000003</ele>
        <time>2013-05-05T07:59:55Z</time>
      </trkpt>
      <trkpt lat="45.966058680787683" lon="9.316656617447734">
        <ele>545.20000000000005</ele>
        <time>2013-05-05T08:00:06Z</time>
      </trkpt>
      <trkpt lat="45.966131268069148" lon="9.316722918301821">
        <ele>547.13</ele>
        <time>2013-05-05T08:00:19Z</time>
      </trkpt>
      <trkpt lat="45.966196646913886" lon="9.316769437864423">
        <ele>548.09000000000003</ele>
        <time>2013-05-05T08:00:33Z</time>
      </trkpt>
      <trkpt lat="45.966229503974319" lon="9.316670279949904">
        <ele>550.00999999999999</ele>
        <time>2013-05-05T08:00:49Z</time>
      </trkpt>
      <trkpt lat="45.966268060728908" lon="9.316593082621694">
        <ele>551.92999999999995</ele>
        <time>2013-05-05T08:01:03Z</time>
      </trkpt>
      <trkpt lat="45.966297900304198" lon="9.316551927477121">
        <ele>554.82000000000005</ele>
        <time>2013-05-05T08:01:15Z</time>
      </trkpt>
      <trkpt lat="45.966326398774981" lon="9.316484788432717">
        <ele>556.74000000000001</ele>
        <time>2013-05-05T08:01:26Z</time>
      </trkpt>
      <trkpt lat="45.966341821476817" lon="9.316473053768277">
        <ele>557.70000000000005</ele>
        <time>2013-05-05T08:01:39Z</time>
      </trkpt>
      <trkpt lat="45.966370906680822" lon="9.316435921937227">
        <ele>559.62</ele>
        <time>2013-05-05T08:01:54Z</time>
      </trkpt>
      <trkpt lat="45.96636151894927" lon="9.31640088558197">
        <ele>560.11000000000001</ele>
        <time>2013-05-05T08:02:06Z</time>
      </trkpt>
      <trkpt lat="45.966378198936582" lon="9.316378086805344">
        <ele>560.11000000000001</ele>
        <time>2013-05-05T08:02:14Z</time>
      </trkpt>
      <trkpt lat="45.966485738754272" lon="9.316315390169621">
        <ele>559.13999999999999</ele>
        <time>2013-05-05T08:02:28Z</time>
      </trkpt>
      <trkpt lat="45.966543406248093" lon="9.316283874213696">
        <ele>558.65999999999997</ele>
        <time>2013-05-05T08:02:34Z</time>
      </trkpt>
      <trkpt lat="45.966605180874467" lon="9.316246155649424">
        <ele>559.62</ele>
        <time>2013-05-05T08:02:42Z</time>
      </trkpt>
      <trkpt lat="45.966609036549926" lon="9.316215058788657">
        <ele>559.13999999999999</ele>
        <time>2013-05-05T08:02:44Z</time>
      </trkpt>
      <trkpt lat="45.966649688780308" lon="9.316146159544587">
        <ele>557.70000000000005</ele>
        <time>2013-05-05T08:02:51Z</time>
      </trkpt>
      <trkpt lat="45.966727556660771" lon="9.316085642203689">
        <ele>559.13999999999999</ele>
        <time>2013-05-05T08:03:03Z</time>
      </trkpt>
      <trkpt lat="45.966737614944577" lon="9.316073153167963">
        <ele>559.13999999999999</ele>
        <time>2013-05-05T08:03:05Z</time>
      </trkpt>
      <trkpt lat="45.966861080378294" lon="9.3160470854491">
        <ele>557.22000000000003</ele>
        <time>2013-05-05T08:03:20Z</time>
      </trkpt>
      <trkpt lat="45.966868791729212" lon="9.316044235602021">
        <ele>556.74000000000001</ele>
        <time>2013-05-05T08:03:21Z</time>
      </trkpt>
      <trkpt lat="45.967021593824029" lon="9.316041301935911">
        <ele>556.25999999999999</ele>
        <time>2013-05-05T08:03:35Z</time>
      </trkpt>
      <trkpt lat="45.96713600680232" lon="9.315971815958619">
        <ele>556.74000000000001</ele>
        <time>2013-05-05T08:03:49Z</time>
      </trkpt>
      <trkpt lat="45.967220664024353" lon="9.315860169008374">
        <ele>556.74000000000001</ele>
        <time>2013-05-05T08:04:02Z</time>
      </trkpt>
      <trkpt lat="45.967316217720509" lon="9.31587366387248">
        <ele>558.65999999999997</ele>
        <time>2013-05-05T08:04:14Z</time>
      </trkpt>
      <trkpt lat="45.967397019267082" lon="9.315857067704201">
        <ele>561.07000000000005</ele>
        <time>2013-05-05T08:04:28Z</time>
      </trkpt>
      <trkpt lat="45.967436581850052" lon="9.315833514556289">
        <ele>563.47000000000003</ele>
        <time>2013-05-05T08:04:42Z</time>
      </trkpt>
      <trkpt lat="45.967504056170583" lon="9.315837286412716">
        <ele>565.38999999999999</ele>
        <time>2013-05-05T08:04:56Z</time>
      </trkpt>
      <trkpt lat="45.96755133010447" lon="9.315840220078826">
        <ele>567.79999999999995</ele>
        <time>2013-05-05T08:05:11Z</time>
      </trkpt>
      <trkpt lat="45.967572703957558" lon="9.315819516777992">
        <ele>568.75999999999999</ele>
        <time>2013-05-05T08:05:25Z</time>
      </trkpt>
      <trkpt lat="45.967645877972245" lon="9.315814068540931">
        <ele>570.67999999999995</ele>
        <time>2013-05-05T08:05:39Z</time>
      </trkpt>
      <trkpt lat="45.967694744467735" lon="9.315911633893848">
        <ele>573.55999999999995</ele>
        <time>2013-05-05T08:05:54Z</time>
      </trkpt>
      <trkpt lat="45.967718046158552" lon="9.316008361056447">
        <ele>575.97000000000003</ele>
        <time>2013-05-05T08:06:06Z</time>
      </trkpt>
      <trkpt lat="45.967746209353209" lon="9.316024202853441">
        <ele>577.40999999999997</ele>
        <time>2013-05-05T08:06:21Z</time>
      </trkpt>
      <trkpt lat="45.967792142182589" lon="9.316023113206029">
        <ele>579.80999999999995</ele>
        <time>2013-05-05T08:06:36Z</time>
      </trkpt>
      <trkpt lat="45.967791890725493" lon="9.315962763503194">
        <ele>581.73000000000002</ele>
        <time>2013-05-05T08:06:47Z</time>
      </trkpt>
      <trkpt lat="45.967834135517478" lon="9.315919764339924">
        <ele>583.65999999999997</ele>
        <time>2013-05-05T08:07:00Z</time>
      </trkpt>
      <trkpt lat="45.96781125292182" lon="9.315894786268473">
        <ele>585.58000000000004</ele>
        <time>2013-05-05T08:07:14Z</time>
      </trkpt>
      <trkpt lat="45.967788370326161" lon="9.315816331654787">
        <ele>587.5</ele>
        <time>2013-05-05T08:07:28Z</time>
      </trkpt>
      <trkpt lat="45.967761632055044" lon="9.315716922283173">
        <ele>590.38999999999999</ele>
        <time>2013-05-05T08:07:44Z</time>
      </trkpt>
      <trkpt lat="45.967719219624996" lon="9.315627403557301">
        <ele>592.30999999999995</ele>
        <time>2013-05-05T08:07:58Z</time>
      </trkpt>
      <trkpt lat="45.967704467475414" lon="9.315567305311561">
        <ele>594.71000000000004</ele>
        <time>2013-05-05T08:08:11Z</time>
      </trkpt>
      <trkpt lat="45.967650907114148" lon="9.315547272562981">
        <ele>596.14999999999998</ele>
        <time>2013-05-05T08:08:25Z</time>
      </trkpt>
      <trkpt lat="45.967665743082762" lon="9.315485497936606">
        <ele>598.55999999999995</ele>
        <time>2013-05-05T08:08:38Z</time>
      </trkpt>
      <trkpt lat="45.967717207968235" lon="9.315478457137942">
        <ele>600.96000000000004</ele>
        <time>2013-05-05T08:08:52Z</time>
      </trkpt>
      <trkpt lat="45.967718046158552" lon="9.315464291721582">
        <ele>603.36000000000001</ele>
        <time>2013-05-05T08:09:06Z</time>
      </trkpt>
      <trkpt lat="45.967653589323163" lon="9.315431183204055">
        <ele>605.76999999999998</ele>
        <time>2013-05-05T08:09:21Z</time>
      </trkpt>
      <trkpt lat="45.967578655108809" lon="9.31543973274529">
        <ele>608.16999999999996</ele>
        <time>2013-05-05T08:09:35Z</time>
      </trkpt>
      <trkpt lat="45.967527525499463" lon="9.315454820170999">
        <ele>610.57000000000005</ele>
        <time>2013-05-05T08:09:50Z</time>
      </trkpt>
      <trkpt lat="45.967455441132188" lon="9.315468231216073">
        <ele>612.01999999999998</ele>
        <time>2013-05-05T08:10:03Z</time>
      </trkpt>
      <trkpt lat="45.967450076714158" lon="9.315371168777347">
        <ele>614.41999999999996</ele>
        <time>2013-05-05T08:10:17Z</time>
      </trkpt>
      <trkpt lat="45.967503553256392" lon="9.315333031117916">
        <ele>615.86000000000001</ele>
        <time>2013-05-05T08:10:30Z</time>
      </trkpt>
      <trkpt lat="45.967549150809646" lon="9.315256169065833">
        <ele>617.77999999999997</ele>
        <time>2013-05-05T08:10:44Z</time>
      </trkpt>
      <trkpt lat="45.967492405325174" lon="9.315270083025098">
        <ele>620.66999999999996</ele>
        <time>2013-05-05T08:11:00Z</time>
      </trkpt>
      <trkpt lat="45.96742526628077" lon="9.315271759405732">
        <ele>622.11000000000001</ele>
        <time>2013-05-05T08:11:12Z</time>
      </trkpt>
      <trkpt lat="45.9673788305372" lon="9.315273351967335">
        <ele>624.02999999999997</ele>
        <time>2013-05-05T08:11:26Z</time>
      </trkpt>
      <trkpt lat="45.967318983748555" lon="9.315294055268168">
        <ele>626.91999999999996</ele>
        <time>2013-05-05T08:11:40Z</time>
      </trkpt>
      <trkpt lat="45.967278331518173" lon="9.315219959244132">
        <ele>629.32000000000005</ele>
        <time>2013-05-05T08:11:54Z</time>
      </trkpt>
      <trkpt lat="45.96721513196826" lon="9.315219623968005">
        <ele>631.24000000000001</ele>
        <time>2013-05-05T08:12:06Z</time>
      </trkpt>
      <trkpt lat="45.967205241322517" lon="9.315188946202397">
        <ele>631.72000000000003</ele>
        <time>2013-05-05T08:12:17Z</time>
      </trkpt>
      <trkpt lat="45.967178586870432" lon="9.315058942884207">
        <ele>632.20000000000005</ele>
        <time>2013-05-05T08:12:29Z</time>
      </trkpt>
      <trkpt lat="45.967157129198313" lon="9.314914438873529">
        <ele>634.61000000000001</ele>
        <time>2013-05-05T08:12:45Z</time>
      </trkpt>
      <trkpt lat="45.96716626547277" lon="9.314872277900577">
        <ele>634.61000000000001</ele>
        <time>2013-05-05T08:12:49Z</time>
      </trkpt>
      <trkpt lat="45.967138102278113" lon="9.314734898507595">
        <ele>636.04999999999995</ele>
        <time>2013-05-05T08:13:03Z</time>
      </trkpt>
      <trkpt lat="45.96710323356092" lon="9.314634818583727">
        <ele>637.49000000000001</ele>
        <time>2013-05-05T08:13:17Z</time>
      </trkpt>
      <trkpt lat="45.967116476967931" lon="9.314541528001428">
        <ele>639.40999999999997</ele>
        <time>2013-05-05T08:13:31Z</time>
      </trkpt>
      <trkpt lat="45.967122763395309" lon="9.314457876607776">
        <ele>642.29999999999995</ele>
        <time>2013-05-05T08:13:44Z</time>
      </trkpt>
      <trkpt lat="45.967163918539882" lon="9.314435916021466">
        <ele>644.70000000000005</ele>
        <time>2013-05-05T08:13:58Z</time>
      </trkpt>
      <trkpt lat="45.967157213017344" lon="9.314396856352687">
        <ele>647.59000000000003</ele>
        <time>2013-05-05T08:14:13Z</time>
      </trkpt>
      <trkpt lat="45.967191075906157" lon="9.314333405345678">
        <ele>649.50999999999999</ele>
        <time>2013-05-05T08:14:24Z</time>
      </trkpt>
      <trkpt lat="45.967190824449062" lon="9.314268948510289">
        <ele>651.42999999999995</ele>
        <time>2013-05-05T08:14:36Z</time>
      </trkpt>
      <trkpt lat="45.967153944075108" lon="9.314203904941678">
        <ele>654.30999999999995</ele>
        <time>2013-05-05T08:14:51Z</time>
      </trkpt>
      <trkpt lat="45.967138605192304" lon="9.314171886071563">
        <ele>654.79999999999995</ele>
        <time>2013-05-05T08:15:08Z</time>
      </trkpt>
      <trkpt lat="45.967129720374942" lon="9.314155960455537">
        <ele>655.27999999999997</ele>
        <time>2013-05-05T08:15:15Z</time>
      </trkpt>
      <trkpt lat="45.967115303501487" lon="9.314115978777409">
        <ele>655.75999999999999</ele>
        <time>2013-05-05T08:15:29Z</time>
      </trkpt>
      <trkpt lat="45.967116393148899" lon="9.314103908836842">
        <ele>656.24000000000001</ele>
        <time>2013-05-05T08:15:33Z</time>
      </trkpt>
      <trkpt lat="45.967190824449062" lon="9.314084798097611">
        <ele>657.67999999999995</ele>
        <time>2013-05-05T08:15:43Z</time>
      </trkpt>
      <trkpt lat="45.967210689559579" lon="9.314134167507291">
        <ele>656.72000000000003</ele>
        <time>2013-05-05T08:15:53Z</time>
      </trkpt>
      <trkpt lat="45.967166600748897" lon="9.31412486359477">
        <ele>657.20000000000005</ele>
        <time>2013-05-05T08:16:17Z</time>
      </trkpt>
      <trkpt lat="45.967181101441383" lon="9.31411019526422">
        <ele>657.20000000000005</ele>
        <time>2013-05-05T08:16:42Z</time>
      </trkpt>
      <trkpt lat="45.967194344848394" lon="9.314071219414473">
        <ele>657.20000000000005</ele>
        <time>2013-05-05T08:17:08Z</time>
      </trkpt>
      <trkpt lat="45.967186549678445" lon="9.314074153080583">
        <ele>656.72000000000003</ele>
        <time>2013-05-05T08:17:38Z</time>
      </trkpt>
      <trkpt lat="45.967172216624022" lon="9.314078176394105">
        <ele>657.20000000000005</ele>
        <time>2013-05-05T08:18:01Z</time>
      </trkpt>
      <trkpt lat="45.967198284342885" lon="9.314082367345691">
        <ele>657.20000000000005</ele>
        <time>2013-05-05T08:18:26Z</time>
      </trkpt>
      <trkpt lat="45.967169953510165" lon="9.314081026241183">
        <ele>657.20000000000005</ele>
        <time>2013-05-05T08:18:56Z</time>
      </trkpt>
      <trkpt lat="45.967161487787962" lon="9.314129808917642">
        <ele>657.20000000000005</ele>
        <time>2013-05-05T08:19:25Z</time>
      </trkpt>
      <trkpt lat="45.967177916318178" lon="9.314079768955708">
        <ele>657.20000000000005</ele>
        <time>2013-05-05T08:19:56Z</time>
      </trkpt>
      <trkpt lat="45.96717800013721" lon="9.31411505676806">
        <ele>657.67999999999995</ele>
        <time>2013-05-05T08:20:21Z</time>
      </trkpt>
      <trkpt lat="45.967211863026023" lon="9.314087983220816">
        <ele>656.72000000000003</ele>
        <time>2013-05-05T08:20:48Z</time>
      </trkpt>
      <trkpt lat="45.96722099930048" lon="9.314136514440179">
        <ele>657.20000000000005</ele>
        <time>2013-05-05T08:21:17Z</time>
      </trkpt>
      <trkpt lat="45.96717556938529" lon="9.314202144742012">
        <ele>656.72000000000003</ele>
        <time>2013-05-05T08:21:52Z</time>
      </trkpt>
      <trkpt lat="45.967221753671765" lon="9.314103657379746">
        <ele>657.20000000000005</ele>
        <time>2013-05-05T08:22:14Z</time>
      </trkpt>
      <trkpt lat="45.967219490557909" lon="9.314115392044187">
        <ele>657.20000000000005</ele>
        <time>2013-05-05T08:22:37Z</time>
      </trkpt>
      <trkpt lat="45.967243714258075" lon="9.314069291576743">
        <ele>657.67999999999995</ele>
        <time>2013-05-05T08:23:13Z</time>
      </trkpt>
      <trkpt lat="45.967250503599644" lon="9.314066860824823">
        <ele>657.67999999999995</ele>
        <time>2013-05-05T08:23:40Z</time>
      </trkpt>
      <trkpt lat="45.967226028442383" lon="9.314059065654874">
        <ele>657.20000000000005</ele>
        <time>2013-05-05T08:24:01Z</time>
      </trkpt>
      <trkpt lat="45.967188561335206" lon="9.314090413972735">
        <ele>657.20000000000005</ele>
        <time>2013-05-05T08:24:25Z</time>
      </trkpt>
      <trkpt lat="45.967178670689464" lon="9.314089994877577">
        <ele>657.20000000000005</ele>
        <time>2013-05-05T08:24:52Z</time>
      </trkpt>
      <trkpt lat="45.967175988480449" lon="9.314122349023819">
        <ele>657.20000000000005</ele>
        <time>2013-05-05T08:25:24Z</time>
      </trkpt>
      <trkpt lat="45.967182610183954" lon="9.314120672643185">
        <ele>657.20000000000005</ele>
        <time>2013-05-05T08:25:48Z</time>
      </trkpt>
      <trkpt lat="45.96715796738863" lon="9.314117822796106">
        <ele>657.20000000000005</ele>
        <time>2013-05-05T08:26:20Z</time>
      </trkpt>
      <trkpt lat="45.967149920761585" lon="9.314129892736673">
        <ele>657.20000000000005</ele>
        <time>2013-05-05T08:26:47Z</time>
      </trkpt>
      <trkpt lat="45.967157632112503" lon="9.314135340973735">
        <ele>657.67999999999995</ele>
        <time>2013-05-05T08:27:11Z</time>
      </trkpt>
      <trkpt lat="45.967151345685124" lon="9.31410675868392">
        <ele>658.15999999999997</ele>
        <time>2013-05-05T08:27:26Z</time>
      </trkpt>
      <trkpt lat="45.967134749516845" lon="9.314063675701618">
        <ele>658.15999999999997</ele>
        <time>2013-05-05T08:27:37Z</time>
      </trkpt>
      <trkpt lat="45.967130726203322" lon="9.314067782834172">
        <ele>658.63999999999999</ele>
        <time>2013-05-05T08:27:51Z</time>
      </trkpt>
      <trkpt lat="45.967143969610333" lon="9.314076583832502">
        <ele>658.15999999999997</ele>
        <time>2013-05-05T08:28:04Z</time>
      </trkpt>
      <trkpt lat="45.967139527201653" lon="9.314086893573403">
        <ele>658.15999999999997</ele>
        <time>2013-05-05T08:28:05Z</time>
      </trkpt>
      <trkpt lat="45.967130642384291" lon="9.314115224406123">
        <ele>656.72000000000003</ele>
        <time>2013-05-05T08:28:21Z</time>
      </trkpt>
      <trkpt lat="45.967160146683455" lon="9.314093431457877">
        <ele>658.15999999999997</ele>
        <time>2013-05-05T08:28:32Z</time>
      </trkpt>
      <trkpt lat="45.967207169160247" lon="9.31401539593935">
        <ele>658.63999999999999</ele>
        <time>2013-05-05T08:28:47Z</time>
      </trkpt>
      <trkpt lat="45.967250503599644" lon="9.313947083428502">
        <ele>659.60000000000002</ele>
        <time>2013-05-05T08:28:59Z</time>
      </trkpt>
      <trkpt lat="45.967299034819007" lon="9.313841806724668">
        <ele>661.51999999999998</ele>
        <time>2013-05-05T08:29:12Z</time>
      </trkpt>
      <trkpt lat="45.9673753939569" lon="9.313849685713649">
        <ele>663.45000000000005</ele>
        <time>2013-05-05T08:29:26Z</time>
      </trkpt>
      <trkpt lat="45.96739643253386" lon="9.313913974910975">
        <ele>665.37</ele>
        <time>2013-05-05T08:29:41Z</time>
      </trkpt>
      <trkpt lat="45.967417303472757" lon="9.314019670709968">
        <ele>668.25</ele>
        <time>2013-05-05T08:29:54Z</time>
      </trkpt>
      <trkpt lat="45.967387212440372" lon="9.314039284363389">
        <ele>668.25</ele>
        <time>2013-05-05T08:30:12Z</time>
      </trkpt>
      <trkpt lat="45.967442533001304" lon="9.314087564125657">
        <ele>670.17999999999995</ele>
        <time>2013-05-05T08:30:26Z</time>
      </trkpt>
      <trkpt lat="45.967489471659064" lon="9.314045403152704">
        <ele>673.05999999999995</ele>
        <time>2013-05-05T08:30:38Z</time>
      </trkpt>
      <trkpt lat="45.967512438073754" lon="9.313981784507632">
        <ele>675.46000000000004</ele>
        <time>2013-05-05T08:30:48Z</time>
      </trkpt>
      <trkpt lat="45.967545378953218" lon="9.313877345994115">
        <ele>677.87</ele>
        <time>2013-05-05T08:31:02Z</time>
      </trkpt>
      <trkpt lat="45.967612434178591" lon="9.313833843916655">
        <ele>679.30999999999995</ele>
        <time>2013-05-05T08:31:14Z</time>
      </trkpt>
      <trkpt lat="45.967654595151544" lon="9.313716916367412">
        <ele>681.71000000000004</ele>
        <time>2013-05-05T08:31:29Z</time>
      </trkpt>
      <trkpt lat="45.967701449990273" lon="9.313687663525343">
        <ele>683.63</ele>
        <time>2013-05-05T08:31:42Z</time>
      </trkpt>
      <trkpt lat="45.967744281515479" lon="9.313632510602474">
        <ele>685.55999999999995</ele>
        <time>2013-05-05T08:31:55Z</time>
      </trkpt>
      <trkpt lat="45.967807564884424" lon="9.313606023788452">
        <ele>687.96000000000004</ele>
        <time>2013-05-05T08:32:08Z</time>
      </trkpt>
      <trkpt lat="45.967851653695107" lon="9.313591523095965">
        <ele>689.39999999999998</ele>
        <time>2013-05-05T08:32:20Z</time>
      </trkpt>
      <trkpt lat="45.967911751940846" lon="9.313630918040872">
        <ele>691.80999999999995</ele>
        <time>2013-05-05T08:32:33Z</time>
      </trkpt>
      <trkpt lat="45.9679348859936" lon="9.313636450096965">
        <ele>692.76999999999998</ele>
        <time>2013-05-05T08:32:44Z</time>
      </trkpt>
      <trkpt lat="45.967992972582579" lon="9.313648855313659">
        <ele>695.64999999999998</ele>
        <time>2013-05-05T08:32:56Z</time>
      </trkpt>
      <trkpt lat="45.968062458559871" lon="9.31360543705523">
        <ele>697.57000000000005</ele>
        <time>2013-05-05T08:33:09Z</time>
      </trkpt>
      <trkpt lat="45.968093723058701" lon="9.313568389043212">
        <ele>699.01999999999998</ele>
        <time>2013-05-05T08:33:21Z</time>
      </trkpt>
      <trkpt lat="45.968169495463371" lon="9.313499825075269">
        <ele>701.41999999999996</ele>
        <time>2013-05-05T08:33:37Z</time>
      </trkpt>
      <trkpt lat="45.968229845166206" lon="9.313483396545053">
        <ele>703.34000000000003</ele>
        <time>2013-05-05T08:33:51Z</time>
      </trkpt>
      <trkpt lat="45.968280723318458" lon="9.313461100682616">
        <ele>705.25999999999999</ele>
        <time>2013-05-05T08:34:03Z</time>
      </trkpt>
      <trkpt lat="45.968284578993917" lon="9.313459256663919">
        <ele>705.75</ele>
        <time>2013-05-05T08:34:04Z</time>
      </trkpt>
      <trkpt lat="45.968323387205601" lon="9.313417011871934">
        <ele>707.19000000000005</ele>
        <time>2013-05-05T08:34:16Z</time>
      </trkpt>
      <trkpt lat="45.96836244687438" lon="9.313365882262588">
        <ele>709.11000000000001</ele>
        <time>2013-05-05T08:34:29Z</time>
      </trkpt>
      <trkpt lat="45.968398908153176" lon="9.313334282487631">
        <ele>711.02999999999997</ele>
        <time>2013-05-05T08:34:43Z</time>
      </trkpt>
      <trkpt lat="45.968471663072705" lon="9.31329321116209">
        <ele>712.95000000000005</ele>
        <time>2013-05-05T08:34:56Z</time>
      </trkpt>
      <trkpt lat="45.968536455184221" lon="9.313272507861257">
        <ele>715.36000000000001</ele>
        <time>2013-05-05T08:35:11Z</time>
      </trkpt>
      <trkpt lat="45.968605522066355" lon="9.313317183405161">
        <ele>717.27999999999997</ele>
        <time>2013-05-05T08:35:25Z</time>
      </trkpt>
      <trkpt lat="45.968651119619608" lon="9.313347861170769">
        <ele>719.20000000000005</ele>
        <time>2013-05-05T08:35:39Z</time>
      </trkpt>
      <trkpt lat="45.968691939488053" lon="9.313353057950735">
        <ele>722.09000000000003</ele>
        <time>2013-05-05T08:35:56Z</time>
      </trkpt>
      <trkpt lat="45.968754719942808" lon="9.313397649675608">
        <ele>723.52999999999997</ele>
        <time>2013-05-05T08:36:09Z</time>
      </trkpt>
      <trkpt lat="45.96878020092845" lon="9.313452634960413">
        <ele>724.97000000000003</ele>
        <time>2013-05-05T08:36:15Z</time>
      </trkpt>
      <trkpt lat="45.968846501782537" lon="9.313543913885951">
        <ele>727.37</ele>
        <time>2013-05-05T08:36:31Z</time>
      </trkpt>
      <trkpt lat="45.968898385763168" lon="9.313662685453892">
        <ele>728.34000000000003</ele>
        <time>2013-05-05T08:36:47Z</time>
      </trkpt>
      <trkpt lat="45.968930907547474" lon="9.313746085390449">
        <ele>730.25999999999999</ele>
        <time>2013-05-05T08:37:01Z</time>
      </trkpt>
      <trkpt lat="45.968994777649641" lon="9.313802160322666">
        <ele>733.13999999999999</ele>
        <time>2013-05-05T08:37:15Z</time>
      </trkpt>
      <trkpt lat="45.969049343839288" lon="9.313923781737685">
        <ele>735.07000000000005</ele>
        <time>2013-05-05T08:37:27Z</time>
      </trkpt>
      <trkpt lat="45.96910416148603" lon="9.314031405374408">
        <ele>737.47000000000003</ele>
        <time>2013-05-05T08:37:39Z</time>
      </trkpt>
      <trkpt lat="45.969127966091037" lon="9.314093515276909">
        <ele>737.95000000000005</ele>
        <time>2013-05-05T08:37:46Z</time>
      </trkpt>
      <trkpt lat="45.96918772906065" lon="9.314193176105619">
        <ele>739.87</ele>
        <time>2013-05-05T08:37:59Z</time>
      </trkpt>
      <trkpt lat="45.969206923618913" lon="9.314297866076231">
        <ele>742.75999999999999</ele>
        <time>2013-05-05T08:38:11Z</time>
      </trkpt>
      <trkpt lat="45.969238942489028" lon="9.314382188022137">
        <ele>744.20000000000005</ele>
        <time>2013-05-05T08:38:24Z</time>
      </trkpt>
      <trkpt lat="45.96929962746799" lon="9.314428120851517">
        <ele>747.08000000000004</ele>
        <time>2013-05-05T08:38:39Z</time>
      </trkpt>
      <trkpt lat="45.96935679204762" lon="9.314477071166039">
        <ele>748.51999999999998</ele>
        <time>2013-05-05T08:38:53Z</time>
      </trkpt>
      <trkpt lat="45.969412112608552" lon="9.314513532444835">
        <ele>750.92999999999995</ele>
        <time>2013-05-05T08:39:08Z</time>
      </trkpt>
      <trkpt lat="45.969437006860971" lon="9.314541528001428">
        <ele>752.37</ele>
        <time>2013-05-05T08:39:12Z</time>
      </trkpt>
      <trkpt lat="45.969509426504374" lon="9.314599698409438">
        <ele>754.28999999999996</ele>
        <time>2013-05-05T08:39:28Z</time>
      </trkpt>
      <trkpt lat="45.969588467851281" lon="9.314668094739318">
        <ele>756.69000000000005</ele>
        <time>2013-05-05T08:39:42Z</time>
      </trkpt>
      <trkpt lat="45.969638340175152" lon="9.314722325652838">
        <ele>759.10000000000002</ele>
        <time>2013-05-05T08:39:55Z</time>
      </trkpt>
      <trkpt lat="45.969700366258621" lon="9.31482114829123">
        <ele>761.5</ele>
        <time>2013-05-05T08:40:09Z</time>
      </trkpt>
      <trkpt lat="45.969740096479654" lon="9.314936399459839">
        <ele>763.41999999999996</ele>
        <time>2013-05-05T08:40:22Z</time>
      </trkpt>
      <trkpt lat="45.969764739274979" lon="9.315034970641136">
        <ele>765.35000000000002</ele>
        <time>2013-05-05T08:40:35Z</time>
      </trkpt>
      <trkpt lat="45.969819137826562" lon="9.315124237909913">
        <ele>768.23000000000002</ele>
        <time>2013-05-05T08:40:50Z</time>
      </trkpt>
      <trkpt lat="45.969887115061283" lon="9.315179558470845">
        <ele>771.11000000000001</ele>
        <time>2013-05-05T08:41:04Z</time>
      </trkpt>
      <trkpt lat="45.969962552189827" lon="9.315296318382025">
        <ele>773.51999999999998</ele>
        <time>2013-05-05T08:41:20Z</time>
      </trkpt>
      <trkpt lat="45.969980992376804" lon="9.315313920378685">
        <ele>774.48000000000002</ele>
        <time>2013-05-05T08:41:36Z</time>
      </trkpt>
      <trkpt lat="45.970022063702345" lon="9.315347531810403">
        <ele>775.44000000000005</ele>
        <time>2013-05-05T08:41:58Z</time>
      </trkpt>
      <trkpt lat="45.970094231888652" lon="9.315442414954305">
        <ele>778.32000000000005</ele>
        <time>2013-05-05T08:42:11Z</time>
      </trkpt>
      <trkpt lat="45.970137733966112" lon="9.315503602847457">
        <ele>780.73000000000002</ele>
        <time>2013-05-05T08:42:23Z</time>
      </trkpt>
      <trkpt lat="45.970135973766446" lon="9.315618854016066">
        <ele>783.13</ele>
        <time>2013-05-05T08:42:36Z</time>
      </trkpt>
      <trkpt lat="45.970204956829548" lon="9.315598653629422">
        <ele>785.04999999999995</ele>
        <time>2013-05-05T08:42:50Z</time>
      </trkpt>
      <trkpt lat="45.970297576859593" lon="9.315585913136601">
        <ele>787.94000000000005</ele>
        <time>2013-05-05T08:43:04Z</time>
      </trkpt>
      <trkpt lat="45.970344934612513" lon="9.315513074398041">
        <ele>790.34000000000003</ele>
        <time>2013-05-05T08:43:17Z</time>
      </trkpt>
      <trkpt lat="45.97043177112937" lon="9.31549203582108">
        <ele>792.25999999999999</ele>
        <time>2013-05-05T08:43:31Z</time>
      </trkpt>
      <trkpt lat="45.970525816082954" lon="9.315477283671498">
        <ele>794.19000000000005</ele>
        <time>2013-05-05T08:43:47Z</time>
      </trkpt>
      <trkpt lat="45.97059647552669" lon="9.315473847091198">
        <ele>796.11000000000001</ele>
        <time>2013-05-05T08:43:59Z</time>
      </trkpt>
      <trkpt lat="45.970664033666253" lon="9.315501339733601">
        <ele>798.50999999999999</ele>
        <time>2013-05-05T08:44:13Z</time>
      </trkpt>
      <trkpt lat="45.970736788585782" lon="9.315504189580679">
        <ele>799.95000000000005</ele>
        <time>2013-05-05T08:44:27Z</time>
      </trkpt>
      <trkpt lat="45.970816668123007" lon="9.315537801012397">
        <ele>801.88</ele>
        <time>2013-05-05T08:44:42Z</time>
      </trkpt>
      <trkpt lat="45.970866791903973" lon="9.315538555383682">
        <ele>802.84000000000003</ele>
        <time>2013-05-05T08:44:52Z</time>
      </trkpt>
      <trkpt lat="45.970941139385104" lon="9.315473847091198">
        <ele>805.72000000000003</ele>
        <time>2013-05-05T08:45:08Z</time>
      </trkpt>
      <trkpt lat="45.971020013093948" lon="9.315480552613735">
        <ele>807.63999999999999</ele>
        <time>2013-05-05T08:45:23Z</time>
      </trkpt>
      <trkpt lat="45.971074746921659" lon="9.31550620123744">
        <ele>809.57000000000005</ele>
        <time>2013-05-05T08:45:36Z</time>
      </trkpt>
      <trkpt lat="45.971131911501288" lon="9.315542243421078">
        <ele>811.49000000000001</ele>
        <time>2013-05-05T08:45:49Z</time>
      </trkpt>
      <trkpt lat="45.971199218183756" lon="9.315506955608726">
        <ele>812.92999999999995</ele>
        <time>2013-05-05T08:46:00Z</time>
      </trkpt>
      <trkpt lat="45.971277086064219" lon="9.315536459907889">
        <ele>814.85000000000002</ele>
        <time>2013-05-05T08:46:14Z</time>
      </trkpt>
      <trkpt lat="45.971400132402778" lon="9.315556241199374">
        <ele>816.77999999999997</ele>
        <time>2013-05-05T08:46:30Z</time>
      </trkpt>
      <trkpt lat="45.971488310024142" lon="9.315476026386023">
        <ele>818.70000000000005</ele>
        <time>2013-05-05T08:46:46Z</time>
      </trkpt>
      <trkpt lat="45.971563328057528" lon="9.315453814342618">
        <ele>820.62</ele>
        <time>2013-05-05T08:47:01Z</time>
      </trkpt>
      <trkpt lat="45.971612446010113" lon="9.315416179597378">
        <ele>822.54999999999995</ele>
        <time>2013-05-05T08:47:14Z</time>
      </trkpt>
      <trkpt lat="45.971704144030809" lon="9.315346777439117">
        <ele>825.42999999999995</ele>
        <time>2013-05-05T08:47:30Z</time>
      </trkpt>
      <trkpt lat="45.971753345802426" lon="9.315251223742962">
        <ele>828.30999999999995</ele>
        <time>2013-05-05T08:47:48Z</time>
      </trkpt>
      <trkpt lat="45.971831129863858" lon="9.315183162689209">
        <ele>831.67999999999995</ele>
        <time>2013-05-05T08:48:02Z</time>
      </trkpt>
      <trkpt lat="45.97189231775701" lon="9.315127339214087">
        <ele>834.08000000000004</ele>
        <time>2013-05-05T08:48:18Z</time>
      </trkpt>
      <trkpt lat="45.971921570599079" lon="9.315061625093222">
        <ele>837.45000000000005</ele>
        <time>2013-05-05T08:48:34Z</time>
      </trkpt>
      <trkpt lat="45.971971862018108" lon="9.314947379752994">
        <ele>840.33000000000004</ele>
        <time>2013-05-05T08:48:50Z</time>
      </trkpt>
      <trkpt lat="45.972028942778707" lon="9.31485584937036">
        <ele>842.25</ele>
        <time>2013-05-05T08:49:03Z</time>
      </trkpt>
      <trkpt lat="45.972060458734632" lon="9.31477764621377">
        <ele>845.13999999999999</ele>
        <time>2013-05-05T08:49:18Z</time>
      </trkpt>
      <trkpt lat="45.972117455676198" lon="9.314721487462521">
        <ele>847.05999999999995</ele>
        <time>2013-05-05T08:49:33Z</time>
      </trkpt>
      <trkpt lat="45.972196999937296" lon="9.314725678414106">
        <ele>849.46000000000004</ele>
        <time>2013-05-05T08:49:47Z</time>
      </trkpt>
      <trkpt lat="45.972261959686875" lon="9.314697599038482">
        <ele>851.38</ele>
        <time>2013-05-05T08:50:03Z</time>
      </trkpt>
      <trkpt lat="45.972297415137291" lon="9.314616546034813">
        <ele>854.26999999999998</ele>
        <time>2013-05-05T08:50:17Z</time>
      </trkpt>
      <trkpt lat="45.972373271360993" lon="9.314548149704933">
        <ele>857.14999999999998</ele>
        <time>2013-05-05T08:50:31Z</time>
      </trkpt>
      <trkpt lat="45.972474776208401" lon="9.314476987347007">
        <ele>859.55999999999995</ele>
        <time>2013-05-05T08:50:47Z</time>
      </trkpt>
      <trkpt lat="45.972546525299549" lon="9.314429629594088">
        <ele>862.91999999999996</ele>
        <time>2013-05-05T08:51:02Z</time>
      </trkpt>
      <trkpt lat="45.972623387351632" lon="9.314403813332319">
        <ele>864.84000000000003</ele>
        <time>2013-05-05T08:51:15Z</time>
      </trkpt>
      <trkpt lat="45.972687341272831" lon="9.314374728128314">
        <ele>867.73000000000002</ele>
        <time>2013-05-05T08:51:29Z</time>
      </trkpt>
      <trkpt lat="45.972754312679172" lon="9.314282527193427">
        <ele>870.13</ele>
        <time>2013-05-05T08:51:43Z</time>
      </trkpt>
      <trkpt lat="45.972811644896865" lon="9.314235001802445">
        <ele>872.52999999999997</ele>
        <time>2013-05-05T08:51:56Z</time>
      </trkpt>
      <trkpt lat="45.972886579111218" lon="9.314280012622476">
        <ele>874.46000000000004</ele>
        <time>2013-05-05T08:52:10Z</time>
      </trkpt>
      <trkpt lat="45.972901834174991" lon="9.314244473353028">
        <ele>875.41999999999996</ele>
        <time>2013-05-05T08:52:20Z</time>
      </trkpt>
      <trkpt lat="45.972901582717896" lon="9.314183620736003">
        <ele>874.94000000000005</ele>
        <time>2013-05-05T08:52:25Z</time>
      </trkpt>
      <trkpt lat="45.972932260483503" lon="9.31406132876873">
        <ele>874.46000000000004</ele>
        <time>2013-05-05T08:52:40Z</time>
      </trkpt>
      <trkpt lat="45.972956316545606" lon="9.314092928543687">
        <ele>874.46000000000004</ele>
        <time>2013-05-05T08:53:10Z</time>
      </trkpt>
      <trkpt lat="45.972958412021399" lon="9.314084127545357">
        <ele>874.46000000000004</ele>
        <time>2013-05-05T08:53:12Z</time>
      </trkpt>
      <trkpt lat="45.97295556217432" lon="9.314056048169732">
        <ele>873.98000000000002</ele>
        <time>2013-05-05T08:53:19Z</time>
      </trkpt>
      <trkpt lat="45.972963692620397" lon="9.313977006822825">
        <ele>873.98000000000002</ele>
        <time>2013-05-05T08:53:23Z</time>
      </trkpt>
      <trkpt lat="45.972985150292516" lon="9.313879776746035">
        <ele>874.46000000000004</ele>
        <time>2013-05-05T08:53:30Z</time>
      </trkpt>
      <trkpt lat="45.972994118928909" lon="9.313859576359391">
        <ele>874.46000000000004</ele>
        <time>2013-05-05T08:53:32Z</time>
      </trkpt>
      <trkpt lat="45.973087828606367" lon="9.313664948567748">
        <ele>874.46000000000004</ele>
        <time>2013-05-05T08:53:49Z</time>
      </trkpt>
      <trkpt lat="45.973092773929238" lon="9.313654387369752">
        <ele>874.94000000000005</ele>
        <time>2013-05-05T08:53:50Z</time>
      </trkpt>
      <trkpt lat="45.973107777535915" lon="9.313594875857234">
        <ele>874.46000000000004</ele>
        <time>2013-05-05T08:53:55Z</time>
      </trkpt>
      <trkpt lat="45.97312806174159" lon="9.313586661592126">
        <ele>874.94000000000005</ele>
        <time>2013-05-05T08:54:10Z</time>
      </trkpt>
      <trkpt lat="45.973123535513878" lon="9.31355606764555">
        <ele>874.46000000000004</ele>
        <time>2013-05-05T08:54:12Z</time>
      </trkpt>
      <trkpt lat="45.973147759214044" lon="9.313459591940045">
        <ele>873.98000000000002</ele>
        <time>2013-05-05T08:54:18Z</time>
      </trkpt>
      <trkpt lat="45.973155805841088" lon="9.313336294144392">
        <ele>874.46000000000004</ele>
        <time>2013-05-05T08:54:33Z</time>
      </trkpt>
      <trkpt lat="45.973174665123224" lon="9.313117945566773">
        <ele>874.46000000000004</ele>
        <time>2013-05-05T08:54:46Z</time>
      </trkpt>
      <trkpt lat="45.973210288211703" lon="9.31293061003089">
        <ele>873.00999999999999</ele>
        <time>2013-05-05T08:55:00Z</time>
      </trkpt>
      <trkpt lat="45.973206181079149" lon="9.312903955578804">
        <ele>873.00999999999999</ele>
        <time>2013-05-05T08:55:09Z</time>
      </trkpt>
      <trkpt lat="45.973272062838078" lon="9.312790632247925">
        <ele>871.09000000000003</ele>
        <time>2013-05-05T08:55:16Z</time>
      </trkpt>
      <trkpt lat="45.973304836079478" lon="9.312658784911037">
        <ele>869.64999999999998</ele>
        <time>2013-05-05T08:55:32Z</time>
      </trkpt>
      <trkpt lat="45.973337860777974" lon="9.31262668222189">
        <ele>870.13</ele>
        <time>2013-05-05T08:55:52Z</time>
      </trkpt>
      <trkpt lat="45.973441964015365" lon="9.31256172247231">
        <ele>867.25</ele>
        <time>2013-05-05T08:56:04Z</time>
      </trkpt>
      <trkpt lat="45.973486639559269" lon="9.3125881254673">
        <ele>866.28999999999996</ele>
        <time>2013-05-05T08:56:14Z</time>
      </trkpt>
      <trkpt lat="45.973458308726549" lon="9.312587287276983">
        <ele>866.28999999999996</ele>
        <time>2013-05-05T08:56:32Z</time>
      </trkpt>
      <trkpt lat="45.973467696458101" lon="9.312561890110374">
        <ele>866.76999999999998</ele>
        <time>2013-05-05T08:56:51Z</time>
      </trkpt>
      <trkpt lat="45.973471719771624" lon="9.312573792412877">
        <ele>866.76999999999998</ele>
        <time>2013-05-05T08:57:11Z</time>
      </trkpt>
      <trkpt lat="45.973458979278803" lon="9.312582341954112">
        <ele>866.76999999999998</ele>
        <time>2013-05-05T08:57:31Z</time>
      </trkpt>
      <trkpt lat="45.973472474142909" lon="9.312564237043262">
        <ele>866.76999999999998</ele>
        <time>2013-05-05T08:58:00Z</time>
      </trkpt>
      <trkpt lat="45.973455291241407" lon="9.312591226771474">
        <ele>867.25</ele>
        <time>2013-05-05T08:58:19Z</time>
      </trkpt>
      <trkpt lat="45.973408604040742" lon="9.312547808513045">
        <ele>868.21000000000004</ele>
        <time>2013-05-05T08:58:33Z</time>
      </trkpt>
      <trkpt lat="45.973368287086487" lon="9.312651911750436">
        <ele>869.16999999999996</ele>
        <time>2013-05-05T08:58:49Z</time>
      </trkpt>
      <trkpt lat="45.973364766687155" lon="9.312658365815878">
        <ele>869.16999999999996</ele>
        <time>2013-05-05T08:58:50Z</time>
      </trkpt>
      <trkpt lat="45.973358731716871" lon="9.312656940892339">
        <ele>869.64999999999998</ele>
        <time>2013-05-05T08:59:02Z</time>
      </trkpt>
      <trkpt lat="45.973317995667458" lon="9.3127332162112">
        <ele>871.09000000000003</ele>
        <time>2013-05-05T08:59:15Z</time>
      </trkpt>
      <trkpt lat="45.973269799724221" lon="9.312779232859612">
        <ele>872.04999999999995</ele>
        <time>2013-05-05T08:59:27Z</time>
      </trkpt>
      <trkpt lat="45.973267704248428" lon="9.312788872048259">
        <ele>872.04999999999995</ele>
        <time>2013-05-05T08:59:28Z</time>
      </trkpt>
      <trkpt lat="45.973258735612035" lon="9.312837067991495">
        <ele>872.04999999999995</ele>
        <time>2013-05-05T08:59:33Z</time>
      </trkpt>
      <trkpt lat="45.973241468891501" lon="9.31294770911336">
        <ele>873.5</ele>
        <time>2013-05-05T08:59:42Z</time>
      </trkpt>
      <trkpt lat="45.973192350938916" lon="9.31308601051569">
        <ele>873.98000000000002</ele>
        <time>2013-05-05T08:59:59Z</time>
      </trkpt>
      <trkpt lat="45.973167791962624" lon="9.313145270571113">
        <ele>873.98000000000002</ele>
        <time>2013-05-05T09:00:24Z</time>
      </trkpt>
      <trkpt lat="45.973200229927897" lon="9.313224647194147">
        <ele>874.94000000000005</ele>
        <time>2013-05-05T09:00:37Z</time>
      </trkpt>
      <trkpt lat="45.973207941278815" lon="9.31325607933104">
        <ele>874.46000000000004</ele>
        <time>2013-05-05T09:00:49Z</time>
      </trkpt>
      <trkpt lat="45.97320718690753" lon="9.313296731561422">
        <ele>874.94000000000005</ele>
        <time>2013-05-05T09:00:52Z</time>
      </trkpt>
      <trkpt lat="45.973166953772306" lon="9.313410306349397">
        <ele>874.46000000000004</ele>
        <time>2013-05-05T09:01:10Z</time>
      </trkpt>
      <trkpt lat="45.973129738122225" lon="9.313460597768426">
        <ele>874.94000000000005</ele>
        <time>2013-05-05T09:01:28Z</time>
      </trkpt>
      <trkpt lat="45.973133342340589" lon="9.313479121774435">
        <ele>874.46000000000004</ele>
        <time>2013-05-05T09:01:29Z</time>
      </trkpt>
      <trkpt lat="45.973142813891172" lon="9.313514996320009">
        <ele>874.94000000000005</ele>
        <time>2013-05-05T09:01:32Z</time>
      </trkpt>
      <trkpt lat="45.973091181367636" lon="9.313791347667575">
        <ele>875.41999999999996</ele>
        <time>2013-05-05T09:01:51Z</time>
      </trkpt>
      <trkpt lat="45.973085481673479" lon="9.313793862238526">
        <ele>875.41999999999996</ele>
        <time>2013-05-05T09:01:57Z</time>
      </trkpt>
      <trkpt lat="45.973074166104198" lon="9.313821103423834">
        <ele>875.89999999999998</ele>
        <time>2013-05-05T09:01:59Z</time>
      </trkpt>
      <trkpt lat="45.972982216626406" lon="9.314048672094941">
        <ele>874.94000000000005</ele>
        <time>2013-05-05T09:02:16Z</time>
      </trkpt>
      <trkpt lat="45.972936619073153" lon="9.31421865709126">
        <ele>875.89999999999998</ele>
        <time>2013-05-05T09:02:29Z</time>
      </trkpt>
      <trkpt lat="45.972946677356958" lon="9.314309181645513">
        <ele>875.89999999999998</ele>
        <time>2013-05-05T09:02:43Z</time>
      </trkpt>
      <trkpt lat="45.97297802567482" lon="9.314409093931317">
        <ele>877.34000000000003</ele>
        <time>2013-05-05T09:02:58Z</time>
      </trkpt>
      <trkpt lat="45.972960842773318" lon="9.314395599067211">
        <ele>876.38</ele>
        <time>2013-05-05T09:03:09Z</time>
      </trkpt>
      <trkpt lat="45.972969811409712" lon="9.314375901594758">
        <ele>877.34000000000003</ele>
        <time>2013-05-05T09:03:27Z</time>
      </trkpt>
      <trkpt lat="45.97293452359736" lon="9.314392749220133">
        <ele>876.38</ele>
        <time>2013-05-05T09:03:53Z</time>
      </trkpt>
      <trkpt lat="45.972938295453787" lon="9.314402220770717">
        <ele>876.38</ele>
        <time>2013-05-05T09:04:23Z</time>
      </trkpt>
      <trkpt lat="45.972961178049445" lon="9.314397107809782">
        <ele>876.38</ele>
        <time>2013-05-05T09:05:06Z</time>
      </trkpt>
      <trkpt lat="45.972939049825072" lon="9.314422840252519">
        <ele>876.38</ele>
        <time>2013-05-05T09:05:51Z</time>
      </trkpt>
      <trkpt lat="45.972971990704536" lon="9.314431138336659">
        <ele>876.38</ele>
        <time>2013-05-05T09:06:35Z</time>
      </trkpt>
      <trkpt lat="45.972945839166641" lon="9.31438721716404">
        <ele>876.38</ele>
        <time>2013-05-05T09:07:19Z</time>
      </trkpt>
      <trkpt lat="45.972934691235423" lon="9.314354192465544">
        <ele>876.38</ele>
        <time>2013-05-05T09:07:48Z</time>
      </trkpt>
      <trkpt lat="45.972922369837761" lon="9.314345726743341">
        <ele>875.89999999999998</ele>
        <time>2013-05-05T09:08:33Z</time>
      </trkpt>
      <trkpt lat="45.972939133644104" lon="9.314357796683908">
        <ele>876.38</ele>
        <time>2013-05-05T09:09:05Z</time>
      </trkpt>
      <trkpt lat="45.972928488627076" lon="9.314403058961034">
        <ele>876.38</ele>
        <time>2013-05-05T09:09:49Z</time>
      </trkpt>
      <trkpt lat="45.972991269081831" lon="9.314408926293254">
        <ele>876.38</ele>
        <time>2013-05-05T09:10:06Z</time>
      </trkpt>
      <trkpt lat="45.972972325980663" lon="9.314424600452185">
        <ele>875.89999999999998</ele>
        <time>2013-05-05T09:10:45Z</time>
      </trkpt>
      <trkpt lat="45.972967883571982" lon="9.314443627372384">
        <ele>875.89999999999998</ele>
        <time>2013-05-05T09:11:25Z</time>
      </trkpt>
      <trkpt lat="45.972942318767309" lon="9.31445368565619">
        <ele>876.38</ele>
        <time>2013-05-05T09:12:05Z</time>
      </trkpt>
      <trkpt lat="45.972991604357958" lon="9.314445639029145">
        <ele>876.38</ele>
        <time>2013-05-05T09:12:50Z</time>
      </trkpt>
      <trkpt lat="45.972959501668811" lon="9.31449031457305">
        <ele>876.38</ele>
        <time>2013-05-05T09:13:30Z</time>
      </trkpt>
      <trkpt lat="45.972994957119226" lon="9.314426193013787">
        <ele>876.38</ele>
        <time>2013-05-05T09:14:17Z</time>
      </trkpt>
      <trkpt lat="45.973003255203366" lon="9.314420828595758">
        <ele>876.38</ele>
        <time>2013-05-05T09:15:03Z</time>
      </trkpt>
      <trkpt lat="45.972995376214385" lon="9.314421331509948">
        <ele>876.38</ele>
        <time>2013-05-05T09:15:44Z</time>
      </trkpt>
      <trkpt lat="45.972986742854118" lon="9.31439308449626">
        <ele>876.86000000000001</ele>
        <time>2013-05-05T09:16:29Z</time>
      </trkpt>
      <trkpt lat="45.972979450598359" lon="9.314419906586409">
        <ele>876.38</ele>
        <time>2013-05-05T09:17:12Z</time>
      </trkpt>
      <trkpt lat="45.972999231889844" lon="9.314423846080899">
        <ele>876.86000000000001</ele>
        <time>2013-05-05T09:17:57Z</time>
      </trkpt>
      <trkpt lat="45.972995879128575" lon="9.314411692321301">
        <ele>876.86000000000001</ele>
        <time>2013-05-05T09:18:02Z</time>
      </trkpt>
      <trkpt lat="45.972956484183669" lon="9.31444731540978">
        <ele>877.82000000000005</ele>
        <time>2013-05-05T09:18:18Z</time>
      </trkpt>
      <trkpt lat="45.972941229119897" lon="9.314456451684237">
        <ele>877.82000000000005</ele>
        <time>2013-05-05T09:18:37Z</time>
      </trkpt>
      <trkpt lat="45.972938127815723" lon="9.314447902143002">
        <ele>877.34000000000003</ele>
        <time>2013-05-05T09:19:02Z</time>
      </trkpt>
      <trkpt lat="45.972954807803035" lon="9.314459636807442">
        <ele>877.34000000000003</ele>
        <time>2013-05-05T09:19:24Z</time>
      </trkpt>
      <trkpt lat="45.972923208028078" lon="9.314488554373384">
        <ele>877.34000000000003</ele>
        <time>2013-05-05T09:19:49Z</time>
      </trkpt>
      <trkpt lat="45.972964949905872" lon="9.314450332894921">
        <ele>877.82000000000005</ele>
        <time>2013-05-05T09:20:18Z</time>
      </trkpt>
      <trkpt lat="45.972964279353619" lon="9.314422002062202">
        <ele>877.82000000000005</ele>
        <time>2013-05-05T09:20:38Z</time>
      </trkpt>
      <trkpt lat="45.973012642934918" lon="9.314427031204104">
        <ele>877.82000000000005</ele>
        <time>2013-05-05T09:21:12Z</time>
      </trkpt>
      <trkpt lat="45.972968218848109" lon="9.314455529674888">
        <ele>877.82000000000005</ele>
        <time>2013-05-05T09:21:34Z</time>
      </trkpt>
      <trkpt lat="45.972978947684169" lon="9.314410770311952">
        <ele>877.82000000000005</ele>
        <time>2013-05-05T09:21:49Z</time>
      </trkpt>
      <trkpt lat="45.973049020394683" lon="9.314420158043504">
        <ele>879.25999999999999</ele>
        <time>2013-05-05T09:22:09Z</time>
      </trkpt>
      <trkpt lat="45.973149603232741" lon="9.31453675031662">
        <ele>881.19000000000005</ele>
        <time>2013-05-05T09:22:24Z</time>
      </trkpt>
      <trkpt lat="45.973192770034075" lon="9.314651498571038">
        <ele>883.11000000000001</ele>
        <time>2013-05-05T09:22:38Z</time>
      </trkpt>
      <trkpt lat="45.973230740055442" lon="9.314718469977379">
        <ele>885.02999999999997</ele>
        <time>2013-05-05T09:22:54Z</time>
      </trkpt>
      <trkpt lat="45.973228057846427" lon="9.314774880185723">
        <ele>886.95000000000005</ele>
        <time>2013-05-05T09:23:09Z</time>
      </trkpt>
      <trkpt lat="45.97325311973691" lon="9.314790470525622">
        <ele>887.42999999999995</ele>
        <time>2013-05-05T09:23:28Z</time>
      </trkpt>
      <trkpt lat="45.97329662181437" lon="9.314935142174363">
        <ele>889.36000000000001</ele>
        <time>2013-05-05T09:23:45Z</time>
      </trkpt>
      <trkpt lat="45.973338279873133" lon="9.315084675326943">
        <ele>891.75999999999999</ele>
        <time>2013-05-05T09:23:59Z</time>
      </trkpt>
      <trkpt lat="45.973361833021045" lon="9.315191544592381">
        <ele>894.15999999999997</ele>
        <time>2013-05-05T09:24:13Z</time>
      </trkpt>
      <trkpt lat="45.973365856334567" lon="9.315314842388034">
        <ele>896.57000000000005</ele>
        <time>2013-05-05T09:24:27Z</time>
      </trkpt>
      <trkpt lat="45.973371556028724" lon="9.31543436832726">
        <ele>898.49000000000001</ele>
        <time>2013-05-05T09:24:42Z</time>
      </trkpt>
      <trkpt lat="45.973389577120543" lon="9.315551798790693">
        <ele>901.37</ele>
        <time>2013-05-05T09:24:58Z</time>
      </trkpt>
      <trkpt lat="45.973419500514865" lon="9.315647436305881">
        <ele>903.77999999999997</ele>
        <time>2013-05-05T09:25:12Z</time>
      </trkpt>
      <trkpt lat="45.973427044227719" lon="9.315742654725909">
        <ele>905.70000000000005</ele>
        <time>2013-05-05T09:25:24Z</time>
      </trkpt>
      <trkpt lat="45.973420590162277" lon="9.315820187330246">
        <ele>907.13999999999999</ele>
        <time>2013-05-05T09:25:36Z</time>
      </trkpt>
      <trkpt lat="45.973432995378971" lon="9.315808620303869">
        <ele>909.05999999999995</ele>
        <time>2013-05-05T09:25:50Z</time>
      </trkpt>
      <trkpt lat="45.97347347997129" lon="9.315690351650119">
        <ele>910.99000000000001</ele>
        <time>2013-05-05T09:26:03Z</time>
      </trkpt>
      <trkpt lat="45.973523184657097" lon="9.315612064674497">
        <ele>912.90999999999997</ele>
        <time>2013-05-05T09:26:16Z</time>
      </trkpt>
      <trkpt lat="45.973577415570617" lon="9.315472589805722">
        <ele>915.30999999999995</ele>
        <time>2013-05-05T09:26:30Z</time>
      </trkpt>
      <trkpt lat="45.973604237660766" lon="9.315399583429098">
        <ele>917.24000000000001</ele>
        <time>2013-05-05T09:26:43Z</time>
      </trkpt>
      <trkpt lat="45.973624689504504" lon="9.315344765782356">
        <ele>917.72000000000003</ele>
        <time>2013-05-05T09:26:48Z</time>
      </trkpt>
      <trkpt lat="45.973680010065436" lon="9.315241919830442">
        <ele>919.63999999999999</ele>
        <time>2013-05-05T09:27:02Z</time>
      </trkpt>
      <trkpt lat="45.973744634538889" lon="9.315165057778359">
        <ele>921.55999999999995</ele>
        <time>2013-05-05T09:27:16Z</time>
      </trkpt>
      <trkpt lat="45.973800458014011" lon="9.315064307302237">
        <ele>923</ele>
        <time>2013-05-05T09:27:31Z</time>
      </trkpt>
      <trkpt lat="45.973870530724525" lon="9.31500337086618">
        <ele>924.92999999999995</ele>
        <time>2013-05-05T09:27:43Z</time>
      </trkpt>
      <trkpt lat="45.973933478817344" lon="9.314936818554997">
        <ele>926.37</ele>
        <time>2013-05-05T09:27:56Z</time>
      </trkpt>
      <trkpt lat="45.973957786336541" lon="9.314909996464849">
        <ele>926.85000000000002</ele>
        <time>2013-05-05T09:28:16Z</time>
      </trkpt>
      <trkpt lat="45.973982429131866" lon="9.314896836876869">
        <ele>926.85000000000002</ele>
        <time>2013-05-05T09:28:47Z</time>
      </trkpt>
      <trkpt lat="45.97398217767477" lon="9.314860291779041">
        <ele>927.33000000000004</ele>
        <time>2013-05-05T09:28:51Z</time>
      </trkpt>
      <trkpt lat="45.974000785499811" lon="9.314825087785721">
        <ele>928.28999999999996</ele>
        <time>2013-05-05T09:29:06Z</time>
      </trkpt>
      <trkpt lat="45.974035235121846" lon="9.31480061262846">
        <ele>930.21000000000004</ele>
        <time>2013-05-05T09:29:16Z</time>
      </trkpt>
      <trkpt lat="45.974026098847389" lon="9.314798517152667">
        <ele>930.69000000000005</ele>
        <time>2013-05-05T09:29:31Z</time>
      </trkpt>
      <trkpt lat="45.974128441885114" lon="9.314739927649498">
        <ele>931.64999999999998</ele>
        <time>2013-05-05T09:29:46Z</time>
      </trkpt>
      <trkpt lat="45.974229024723172" lon="9.314709585160017">
        <ele>935.01999999999998</ele>
        <time>2013-05-05T09:30:01Z</time>
      </trkpt>
      <trkpt lat="45.974314101040363" lon="9.314722241833806">
        <ele>937.89999999999998</ele>
        <time>2013-05-05T09:30:14Z</time>
      </trkpt>
      <trkpt lat="45.974384928122163" lon="9.314764905720949">
        <ele>940.30999999999995</ele>
        <time>2013-05-05T09:30:28Z</time>
      </trkpt>
      <trkpt lat="45.974409822374582" lon="9.314718553796411">
        <ele>942.71000000000004</ele>
        <time>2013-05-05T09:30:42Z</time>
      </trkpt>
      <trkpt lat="45.974399596452713" lon="9.314705142751336">
        <ele>943.19000000000005</ele>
        <time>2013-05-05T09:30:44Z</time>
      </trkpt>
      <trkpt lat="45.974405463784933" lon="9.314589304849505">
        <ele>942.71000000000004</ele>
        <time>2013-05-05T09:30:57Z</time>
      </trkpt>
      <trkpt lat="45.974397081881762" lon="9.31459148414433">
        <ele>942.23000000000002</ele>
        <time>2013-05-05T09:31:24Z</time>
      </trkpt>
      <trkpt lat="45.974399847909808" lon="9.314658874645829">
        <ele>942.23000000000002</ele>
        <time>2013-05-05T09:31:37Z</time>
      </trkpt>
      <trkpt lat="45.974400518462062" lon="9.314666334539652">
        <ele>942.23000000000002</ele>
        <time>2013-05-05T09:31:45Z</time>
      </trkpt>
      <trkpt lat="45.974402697756886" lon="9.314741855487227">
        <ele>942.71000000000004</ele>
        <time>2013-05-05T09:31:59Z</time>
      </trkpt>
      <trkpt lat="45.97441460005939" lon="9.314732719212771">
        <ele>942.71000000000004</ele>
        <time>2013-05-05T09:32:16Z</time>
      </trkpt>
      <trkpt lat="45.974397249519825" lon="9.31474395096302">
        <ele>943.19000000000005</ele>
        <time>2013-05-05T09:32:33Z</time>
      </trkpt>
      <trkpt lat="45.974405966699123" lon="9.314732719212771">
        <ele>943.66999999999996</ele>
        <time>2013-05-05T09:32:56Z</time>
      </trkpt>
      <trkpt lat="45.974397249519825" lon="9.314679075032473">
        <ele>943.19000000000005</ele>
        <time>2013-05-05T09:33:15Z</time>
      </trkpt>
      <trkpt lat="45.974377635866404" lon="9.314693408086896">
        <ele>943.19000000000005</ele>
        <time>2013-05-05T09:33:32Z</time>
      </trkpt>
      <trkpt lat="45.974387610331178" lon="9.314704304561019">
        <ele>943.66999999999996</ele>
        <time>2013-05-05T09:33:52Z</time>
      </trkpt>
      <trkpt lat="45.974402613937855" lon="9.314730456098914">
        <ele>944.14999999999998</ele>
        <time>2013-05-05T09:34:19Z</time>
      </trkpt>
      <trkpt lat="45.974362716078758" lon="9.314701203256846">
        <ele>943.66999999999996</ele>
        <time>2013-05-05T09:34:43Z</time>
      </trkpt>
      <trkpt lat="45.974358273670077" lon="9.31475518271327">
        <ele>943.66999999999996</ele>
        <time>2013-05-05T09:35:07Z</time>
      </trkpt>
      <trkpt lat="45.97441166639328" lon="9.314734563231468">
        <ele>942.23000000000002</ele>
        <time>2013-05-05T09:35:20Z</time>
      </trkpt>
      <trkpt lat="45.974487354978919" lon="9.314801786094904">
        <ele>939.83000000000004</ele>
        <time>2013-05-05T09:35:35Z</time>
      </trkpt>
      <trkpt lat="45.974538903683424" lon="9.314798433333635">
        <ele>939.35000000000002</ele>
        <time>2013-05-05T09:35:50Z</time>
      </trkpt>
      <trkpt lat="45.974647365510464" lon="9.314793404191732">
        <ele>939.35000000000002</ele>
        <time>2013-05-05T09:36:05Z</time>
      </trkpt>
      <trkpt lat="45.974693968892097" lon="9.314766163006425">
        <ele>940.78999999999996</ele>
        <time>2013-05-05T09:36:19Z</time>
      </trkpt>
      <trkpt lat="45.974843585863709" lon="9.314739927649498">
        <ele>941.26999999999998</ele>
        <time>2013-05-05T09:36:33Z</time>
      </trkpt>
      <trkpt lat="45.974909970536828" lon="9.31485140696168">
        <ele>943.19000000000005</ele>
        <time>2013-05-05T09:36:46Z</time>
      </trkpt>
      <trkpt lat="45.974982725456357" lon="9.314968083053827">
        <ele>945.59000000000003</ele>
        <time>2013-05-05T09:37:01Z</time>
      </trkpt>
      <trkpt lat="45.975044164806604" lon="9.315029857680202">
        <ele>948</ele>
        <time>2013-05-05T09:37:15Z</time>
      </trkpt>
      <trkpt lat="45.975097892805934" lon="9.315081406384707">
        <ele>950.39999999999998</ele>
        <time>2013-05-05T09:37:27Z</time>
      </trkpt>
      <trkpt lat="45.975175760686398" lon="9.315106049180031">
        <ele>952.79999999999995</ele>
        <time>2013-05-05T09:37:41Z</time>
      </trkpt>
      <trkpt lat="45.975254382938147" lon="9.315112587064505">
        <ele>954.73000000000002</ele>
        <time>2013-05-05T09:37:54Z</time>
      </trkpt>
      <trkpt lat="45.975336944684386" lon="9.315116191282868">
        <ele>957.13</ele>
        <time>2013-05-05T09:38:08Z</time>
      </trkpt>
      <trkpt lat="45.975428475067019" lon="9.315104205161333">
        <ele>959.04999999999995</ele>
        <time>2013-05-05T09:38:22Z</time>
      </trkpt>
      <trkpt lat="45.975522603839636" lon="9.315091716125608">
        <ele>960.98000000000002</ele>
        <time>2013-05-05T09:38:36Z</time>
      </trkpt>
      <trkpt lat="45.975599549710751" lon="9.315159609541297">
        <ele>962.89999999999998</ele>
        <time>2013-05-05T09:38:49Z</time>
      </trkpt>
      <trkpt lat="45.975671214982867" lon="9.315204536542296">
        <ele>964.34000000000003</ele>
        <time>2013-05-05T09:39:04Z</time>
      </trkpt>
      <trkpt lat="45.975756458938122" lon="9.315219791606069">
        <ele>967.22000000000003</ele>
        <time>2013-05-05T09:39:17Z</time>
      </trkpt>
      <trkpt lat="45.975871877744794" lon="9.315231190994382">
        <ele>969.14999999999998</ele>
        <time>2013-05-05T09:39:33Z</time>
      </trkpt>
      <trkpt lat="45.975976400077343" lon="9.315199255943298">
        <ele>971.54999999999995</ele>
        <time>2013-05-05T09:39:48Z</time>
      </trkpt>
      <trkpt lat="45.976048987358809" lon="9.315148964524269">
        <ele>973.47000000000003</ele>
        <time>2013-05-05T09:40:00Z</time>
      </trkpt>
      <trkpt lat="45.976100116968155" lon="9.315129769966006">
        <ele>974.42999999999995</ele>
        <time>2013-05-05T09:40:08Z</time>
      </trkpt>
      <trkpt lat="45.976155437529087" lon="9.315106803551316">
        <ele>975.88</ele>
        <time>2013-05-05T09:40:16Z</time>
      </trkpt>
      <trkpt lat="45.976215871050954" lon="9.315012926235795">
        <ele>977.79999999999995</ele>
        <time>2013-05-05T09:40:30Z</time>
      </trkpt>
      <trkpt lat="45.976306311786175" lon="9.314942853525281">
        <ele>980.20000000000005</ele>
        <time>2013-05-05T09:40:44Z</time>
      </trkpt>
      <trkpt lat="45.976330284029245" lon="9.314933130517602">
        <ele>980.67999999999995</ele>
        <time>2013-05-05T09:40:48Z</time>
      </trkpt>
      <trkpt lat="45.976408738642931" lon="9.314863728359342">
        <ele>982.12</ele>
        <time>2013-05-05T09:41:01Z</time>
      </trkpt>
      <trkpt lat="45.976515859365463" lon="9.314830116927624">
        <ele>983.57000000000005</ele>
        <time>2013-05-05T09:41:15Z</time>
      </trkpt>
      <trkpt lat="45.976620800793171" lon="9.314804216846824">
        <ele>984.52999999999997</ele>
        <time>2013-05-05T09:41:28Z</time>
      </trkpt>
      <trkpt lat="45.976700512692332" lon="9.314740095287561">
        <ele>985.97000000000003</ele>
        <time>2013-05-05T09:41:41Z</time>
      </trkpt>
      <trkpt lat="45.976709146052599" lon="9.314696928486228">
        <ele>986.45000000000005</ele>
        <time>2013-05-05T09:41:45Z</time>
      </trkpt>
      <trkpt lat="45.976780811324716" lon="9.31458511389792">
        <ele>988.37</ele>
        <time>2013-05-05T09:41:59Z</time>
      </trkpt>
      <trkpt lat="45.976783242076635" lon="9.314574971795082">
        <ele>988.37</ele>
        <time>2013-05-05T09:42:00Z</time>
      </trkpt>
      <trkpt lat="45.976867731660604" lon="9.31439015083015">
        <ele>989.80999999999995</ele>
        <time>2013-05-05T09:42:15Z</time>
      </trkpt>
      <trkpt lat="45.976915424689651" lon="9.314325610175729">
        <ele>990.29999999999995</ele>
        <time>2013-05-05T09:42:28Z</time>
      </trkpt>
      <trkpt lat="45.976939564570785" lon="9.31432762183249">
        <ele>990.77999999999997</ele>
        <time>2013-05-05T09:42:40Z</time>
      </trkpt>
      <trkpt lat="45.97696328535676" lon="9.314294010400772">
        <ele>990.77999999999997</ele>
        <time>2013-05-05T09:42:53Z</time>
      </trkpt>
      <trkpt lat="45.976970745250583" lon="9.31424162350595">
        <ele>990.77999999999997</ele>
        <time>2013-05-05T09:42:57Z</time>
      </trkpt>
      <trkpt lat="45.976948784664273" lon="9.314050264656544">
        <ele>989.33000000000004</ele>
        <time>2013-05-05T09:43:12Z</time>
      </trkpt>
      <trkpt lat="45.976934619247913" lon="9.313989579677582">
        <ele>989.33000000000004</ele>
        <time>2013-05-05T09:43:25Z</time>
      </trkpt>
      <trkpt lat="45.976934200152755" lon="9.313908191397786">
        <ele>989.33000000000004</ele>
        <time>2013-05-05T09:43:39Z</time>
      </trkpt>
      <trkpt lat="45.976911401376128" lon="9.313882291316986">
        <ele>988.85000000000002</ele>
        <time>2013-05-05T09:43:58Z</time>
      </trkpt>
      <trkpt lat="45.976934032514691" lon="9.313917830586433">
        <ele>989.33000000000004</ele>
        <time>2013-05-05T09:44:13Z</time>
      </trkpt>
      <trkpt lat="45.976941576227546" lon="9.313945071771741">
        <ele>988.85000000000002</ele>
        <time>2013-05-05T09:44:25Z</time>
      </trkpt>
      <trkpt lat="45.976939564570785" lon="9.31397432461381">
        <ele>988.85000000000002</ele>
        <time>2013-05-05T09:44:38Z</time>
      </trkpt>
      <trkpt lat="45.976909808814526" lon="9.314029980450869">
        <ele>988.85000000000002</ele>
        <time>2013-05-05T09:44:55Z</time>
      </trkpt>
      <trkpt lat="45.976912910118699" lon="9.313996033743024">
        <ele>988.37</ele>
        <time>2013-05-05T09:45:07Z</time>
      </trkpt>
      <trkpt lat="45.976887429133058" lon="9.313974743708968">
        <ele>988.37</ele>
        <time>2013-05-05T09:45:41Z</time>
      </trkpt>
      <trkpt lat="45.976939229294658" lon="9.313958650454879">
        <ele>988.37</ele>
        <time>2013-05-05T09:46:11Z</time>
      </trkpt>
      <trkpt lat="45.97694618627429" lon="9.313983963802457">
        <ele>988.85000000000002</ele>
        <time>2013-05-05T09:46:42Z</time>
      </trkpt>
      <trkpt lat="45.976897906512022" lon="9.313956471160054">
        <ele>988.85000000000002</ele>
        <time>2013-05-05T09:47:20Z</time>
      </trkpt>
      <trkpt lat="45.976915508508682" lon="9.31398119777441">
        <ele>989.33000000000004</ele>
        <time>2013-05-05T09:48:00Z</time>
      </trkpt>
      <trkpt lat="45.97688365727663" lon="9.313994608819485">
        <ele>989.33000000000004</ele>
        <time>2013-05-05T09:48:41Z</time>
      </trkpt>
      <trkpt lat="45.976924477145076" lon="9.313966277986765">
        <ele>989.33000000000004</ele>
        <time>2013-05-05T09:49:20Z</time>
      </trkpt>
      <trkpt lat="45.976905785501003" lon="9.313960913568735">
        <ele>988.85000000000002</ele>
        <time>2013-05-05T09:49:50Z</time>
      </trkpt>
      <trkpt lat="45.976927410811186" lon="9.313972061499953">
        <ele>989.33000000000004</ele>
        <time>2013-05-05T09:50:07Z</time>
      </trkpt>
      <trkpt lat="45.976944677531719" lon="9.313908023759723">
        <ele>989.80999999999995</ele>
        <time>2013-05-05T09:50:45Z</time>
      </trkpt>
      <trkpt lat="45.976948533207178" lon="9.313917830586433">
        <ele>989.80999999999995</ele>
        <time>2013-05-05T09:51:17Z</time>
      </trkpt>
      <trkpt lat="45.976949203759432" lon="9.313926044851542">
        <ele>989.80999999999995</ele>
        <time>2013-05-05T09:51:46Z</time>
      </trkpt>
      <trkpt lat="45.976937133818865" lon="9.313944149762392">
        <ele>990.29999999999995</ele>
        <time>2013-05-05T09:52:19Z</time>
      </trkpt>
      <trkpt lat="45.976959178224206" lon="9.313949178904295">
        <ele>991.25999999999999</ele>
        <time>2013-05-05T09:52:52Z</time>
      </trkpt>
      <trkpt lat="45.9769525565207" lon="9.313934929668903">
        <ele>991.25999999999999</ele>
        <time>2013-05-05T09:53:30Z</time>
      </trkpt>
      <trkpt lat="45.97694518044591" lon="9.31396703235805">
        <ele>991.74000000000001</ele>
        <time>2013-05-05T09:53:58Z</time>
      </trkpt>
      <trkpt lat="45.976949874311686" lon="9.31395186111331">
        <ele>991.74000000000001</ele>
        <time>2013-05-05T09:54:40Z</time>
      </trkpt>
      <trkpt lat="45.976992035284638" lon="9.313985053449869">
        <ele>992.22000000000003</ele>
        <time>2013-05-05T09:55:17Z</time>
      </trkpt>
      <trkpt lat="45.977003686130047" lon="9.313933588564396">
        <ele>992.22000000000003</ele>
        <time>2013-05-05T09:55:52Z</time>
      </trkpt>
      <trkpt lat="45.976957334205508" lon="9.313932247459889">
        <ele>992.70000000000005</ele>
        <time>2013-05-05T09:56:36Z</time>
      </trkpt>
      <trkpt lat="45.976956244558096" lon="9.313931912183762">
        <ele>993.17999999999995</ele>
        <time>2013-05-05T09:57:15Z</time>
      </trkpt>
      <trkpt lat="45.976959597319365" lon="9.313934342935681">
        <ele>993.65999999999997</ele>
        <time>2013-05-05T09:57:52Z</time>
      </trkpt>
      <trkpt lat="45.976969404146075" lon="9.313925290480256">
        <ele>993.65999999999997</ele>
        <time>2013-05-05T09:58:29Z</time>
      </trkpt>
      <trkpt lat="45.976964291185141" lon="9.313929649069905">
        <ele>993.17999999999995</ele>
        <time>2013-05-05T09:59:07Z</time>
      </trkpt>
      <trkpt lat="45.976956160739064" lon="9.313947502523661">
        <ele>993.17999999999995</ele>
        <time>2013-05-05T09:59:38Z</time>
      </trkpt>
      <trkpt lat="45.97695155069232" lon="9.313946580514312">
        <ele>993.17999999999995</ele>
        <time>2013-05-05T10:00:06Z</time>
      </trkpt>
      <trkpt lat="45.976944677531719" lon="9.313939791172743">
        <ele>994.13999999999999</ele>
        <time>2013-05-05T10:00:40Z</time>
      </trkpt>
      <trkpt lat="45.976969739422202" lon="9.313958985731006">
        <ele>993.65999999999997</ele>
        <time>2013-05-05T10:01:20Z</time>
      </trkpt>
      <trkpt lat="45.976948365569115" lon="9.313931576907635">
        <ele>994.13999999999999</ele>
        <time>2013-05-05T10:02:00Z</time>
      </trkpt>
      <trkpt lat="45.976969487965107" lon="9.313970385119319">
        <ele>994.13999999999999</ele>
        <time>2013-05-05T10:02:32Z</time>
      </trkpt>
      <trkpt lat="45.976979797706008" lon="9.313968792557716">
        <ele>995.10000000000002</ele>
        <time>2013-05-05T10:02:52Z</time>
      </trkpt>
      <trkpt lat="45.977001255378127" lon="9.31395823135972">
        <ele>995.58000000000004</ele>
        <time>2013-05-05T10:03:14Z</time>
      </trkpt>
      <trkpt lat="45.977002931758761" lon="9.313956974074245">
        <ele>995.58000000000004</ele>
        <time>2013-05-05T10:03:47Z</time>
      </trkpt>
      <trkpt lat="45.976995304226875" lon="9.313940797001123">
        <ele>994.62</ele>
        <time>2013-05-05T10:04:09Z</time>
      </trkpt>
      <trkpt lat="45.976922800764441" lon="9.314023358747363">
        <ele>994.62</ele>
        <time>2013-05-05T10:04:46Z</time>
      </trkpt>
      <trkpt lat="45.976935122162104" lon="9.314068956300616">
        <ele>995.10000000000002</ele>
        <time>2013-05-05T10:05:22Z</time>
      </trkpt>
      <trkpt lat="45.976919950917363" lon="9.314040876924992">
        <ele>995.10000000000002</ele>
        <time>2013-05-05T10:05:54Z</time>
      </trkpt>
      <trkpt lat="45.976915927603841" lon="9.314075913280249">
        <ele>995.10000000000002</ele>
        <time>2013-05-05T10:06:24Z</time>
      </trkpt>
      <trkpt lat="45.976925902068615" lon="9.314097790047526">
        <ele>995.10000000000002</ele>
        <time>2013-05-05T10:06:58Z</time>
      </trkpt>
      <trkpt lat="45.976967811584473" lon="9.314018245786429">
        <ele>995.10000000000002</ele>
        <time>2013-05-05T10:07:36Z</time>
      </trkpt>
      <trkpt lat="45.976914670318365" lon="9.314051605761051">
        <ele>995.10000000000002</ele>
        <time>2013-05-05T10:08:12Z</time>
      </trkpt>
      <trkpt lat="45.976923387497663" lon="9.314078763127327">
        <ele>995.58000000000004</ele>
        <time>2013-05-05T10:08:51Z</time>
      </trkpt>
      <trkpt lat="45.976928919553757" lon="9.314070884138346">
        <ele>996.05999999999995</ele>
        <time>2013-05-05T10:09:27Z</time>
      </trkpt>
      <trkpt lat="45.976923806592822" lon="9.31406669318676">
        <ele>996.05999999999995</ele>
        <time>2013-05-05T10:09:55Z</time>
      </trkpt>
      <trkpt lat="45.976887177675962" lon="9.314105333760381">
        <ele>996.53999999999996</ele>
        <time>2013-05-05T10:10:30Z</time>
      </trkpt>
      <trkpt lat="45.976919280365109" lon="9.314021347090602">
        <ele>996.53999999999996</ele>
        <time>2013-05-05T10:11:09Z</time>
      </trkpt>
      <trkpt lat="45.976898074150085" lon="9.314073314890266">
        <ele>996.05999999999995</ele>
        <time>2013-05-05T10:11:54Z</time>
      </trkpt>
      <trkpt lat="45.976938642561436" lon="9.314027884975076">
        <ele>996.05999999999995</ele>
        <time>2013-05-05T10:12:34Z</time>
      </trkpt>
      <trkpt lat="45.976932272315025" lon="9.314050767570734">
        <ele>996.05999999999995</ele>
        <time>2013-05-05T10:13:20Z</time>
      </trkpt>
      <trkpt lat="45.976916514337063" lon="9.313987400382757">
        <ele>996.05999999999995</ele>
        <time>2013-05-05T10:14:00Z</time>
      </trkpt>
      <trkpt lat="45.976930595934391" lon="9.313977006822825">
        <ele>996.05999999999995</ele>
        <time>2013-05-05T10:14:41Z</time>
      </trkpt>
      <trkpt lat="45.976961357519031" lon="9.313988070935011">
        <ele>996.05999999999995</ele>
        <time>2013-05-05T10:15:20Z</time>
      </trkpt>
      <trkpt lat="45.976928919553757" lon="9.314005421474576">
        <ele>996.05999999999995</ele>
        <time>2013-05-05T10:15:49Z</time>
      </trkpt>
      <trkpt lat="45.976938726380467" lon="9.314011875540018">
        <ele>995.58000000000004</ele>
        <time>2013-05-05T10:16:32Z</time>
      </trkpt>
      <trkpt lat="45.97693202085793" lon="9.314022269099951">
        <ele>995.58000000000004</ele>
        <time>2013-05-05T10:17:08Z</time>
      </trkpt>
      <trkpt lat="45.976935122162104" lon="9.313969044014812">
        <ele>995.58000000000004</ele>
        <time>2013-05-05T10:17:45Z</time>
      </trkpt>
      <trkpt lat="45.976968314498663" lon="9.314006427302957">
        <ele>995.10000000000002</ele>
        <time>2013-05-05T10:18:25Z</time>
      </trkpt>
      <trkpt lat="45.976949371397495" lon="9.313980443403125">
        <ele>995.10000000000002</ele>
        <time>2013-05-05T10:18:42Z</time>
      </trkpt>
      <trkpt lat="45.976937133818865" lon="9.31398413144052">
        <ele>995.58000000000004</ele>
        <time>2013-05-05T10:19:03Z</time>
      </trkpt>
      <trkpt lat="45.976934619247913" lon="9.314000308513641">
        <ele>995.58000000000004</ele>
        <time>2013-05-05T10:19:46Z</time>
      </trkpt>
      <trkpt lat="45.976944006979465" lon="9.313982455059886">
        <ele>995.10000000000002</ele>
        <time>2013-05-05T10:20:16Z</time>
      </trkpt>
      <trkpt lat="45.976963201537728" lon="9.313962589949369">
        <ele>995.10000000000002</ele>
        <time>2013-05-05T10:20:55Z</time>
      </trkpt>
      <trkpt lat="45.976945767179132" lon="9.313984634354711">
        <ele>994.62</ele>
        <time>2013-05-05T10:21:45Z</time>
      </trkpt>
      <trkpt lat="45.9769681468606" lon="9.313980108126998">
        <ele>995.10000000000002</ele>
        <time>2013-05-05T10:22:34Z</time>
      </trkpt>
      <trkpt lat="45.976942582055926" lon="9.313978767022491">
        <ele>995.10000000000002</ele>
        <time>2013-05-05T10:23:29Z</time>
      </trkpt>
      <trkpt lat="45.976949958130717" lon="9.314009780064225">
        <ele>995.10000000000002</ele>
        <time>2013-05-05T10:24:12Z</time>
      </trkpt>
      <trkpt lat="45.976961776614189" lon="9.314007768407464">
        <ele>994.62</ele>
        <time>2013-05-05T10:24:55Z</time>
      </trkpt>
      <trkpt lat="45.976952975615859" lon="9.313982455059886">
        <ele>994.62</ele>
        <time>2013-05-05T10:25:33Z</time>
      </trkpt>
      <trkpt lat="45.976946270093322" lon="9.313955130055547">
        <ele>994.13999999999999</ele>
        <time>2013-05-05T10:26:10Z</time>
      </trkpt>
      <trkpt lat="45.976956160739064" lon="9.313980611041188">
        <ele>994.13999999999999</ele>
        <time>2013-05-05T10:26:57Z</time>
      </trkpt>
      <trkpt lat="45.976953646168113" lon="9.314022939652205">
        <ele>994.13999999999999</ele>
        <time>2013-05-05T10:27:41Z</time>
      </trkpt>
      <trkpt lat="45.976950125768781" lon="9.314010366797447">
        <ele>994.13999999999999</ele>
        <time>2013-05-05T10:28:10Z</time>
      </trkpt>
      <trkpt lat="45.976960184052587" lon="9.314001901075244">
        <ele>993.65999999999997</ele>
        <time>2013-05-05T10:28:33Z</time>
      </trkpt>
      <trkpt lat="45.976953394711018" lon="9.313981533050537">
        <ele>993.65999999999997</ele>
        <time>2013-05-05T10:28:55Z</time>
      </trkpt>
      <trkpt lat="45.976936463266611" lon="9.313991675153375">
        <ele>994.13999999999999</ele>
        <time>2013-05-05T10:29:13Z</time>
      </trkpt>
      <trkpt lat="45.976914837956429" lon="9.314005505293608">
        <ele>994.13999999999999</ele>
        <time>2013-05-05T10:29:27Z</time>
      </trkpt>
      <trkpt lat="45.976918945088983" lon="9.314003242179751">
        <ele>994.13999999999999</ele>
        <time>2013-05-05T10:29:41Z</time>
      </trkpt>
      <trkpt lat="45.976938307285309" lon="9.313972564414144">
        <ele>995.10000000000002</ele>
        <time>2013-05-05T10:29:51Z</time>
      </trkpt>
      <trkpt lat="45.976921878755093" lon="9.313970720395446">
        <ele>995.10000000000002</ele>
        <time>2013-05-05T10:30:09Z</time>
      </trkpt>
      <trkpt lat="45.976921878755093" lon="9.313957057893276">
        <ele>995.10000000000002</ele>
        <time>2013-05-05T10:30:26Z</time>
      </trkpt>
      <trkpt lat="45.976919364184141" lon="9.313973486423492">
        <ele>995.10000000000002</ele>
        <time>2013-05-05T10:30:41Z</time>
      </trkpt>
      <trkpt lat="45.976918106898665" lon="9.313987651839852">
        <ele>994.62</ele>
        <time>2013-05-05T10:30:55Z</time>
      </trkpt>
      <trkpt lat="45.976911149919033" lon="9.313979102298617">
        <ele>994.62</ele>
        <time>2013-05-05T10:31:17Z</time>
      </trkpt>
      <trkpt lat="45.97690218128264" lon="9.313999721780419">
        <ele>994.62</ele>
        <time>2013-05-05T10:31:36Z</time>
      </trkpt>
      <trkpt lat="45.976912993937731" lon="9.314016234129667">
        <ele>994.62</ele>
        <time>2013-05-05T10:32:00Z</time>
      </trkpt>
      <trkpt lat="45.976915508508682" lon="9.313983460888267">
        <ele>994.62</ele>
        <time>2013-05-05T10:32:16Z</time>
      </trkpt>
      <trkpt lat="45.97691148519516" lon="9.313994944095612">
        <ele>994.13999999999999</ele>
        <time>2013-05-05T10:32:35Z</time>
      </trkpt>
      <trkpt lat="45.976890362799168" lon="9.314079685136676">
        <ele>995.10000000000002</ele>
        <time>2013-05-05T10:32:51Z</time>
      </trkpt>
      <trkpt lat="45.976909389719367" lon="9.314091587439179">
        <ele>994.62</ele>
        <time>2013-05-05T10:33:05Z</time>
      </trkpt>
      <trkpt lat="45.97690561786294" lon="9.314058981835842">
        <ele>994.62</ele>
        <time>2013-05-05T10:33:21Z</time>
      </trkpt>
      <trkpt lat="45.976926069706678" lon="9.314208598807454">
        <ele>995.10000000000002</ele>
        <time>2013-05-05T10:33:38Z</time>
      </trkpt>
      <trkpt lat="45.976942665874958" lon="9.314275067299604">
        <ele>995.10000000000002</ele>
        <time>2013-05-05T10:33:43Z</time>
      </trkpt>
      <trkpt lat="45.976978121325374" lon="9.314383361488581">
        <ele>995.58000000000004</ele>
        <time>2013-05-05T10:33:54Z</time>
      </trkpt>
      <trkpt lat="45.976965799927711" lon="9.314432982355356">
        <ele>995.10000000000002</ele>
        <time>2013-05-05T10:33:57Z</time>
      </trkpt>
      <trkpt lat="45.97696278244257" lon="9.314450584352016">
        <ele>995.10000000000002</ele>
        <time>2013-05-05T10:34:09Z</time>
      </trkpt>
      <trkpt lat="45.976949958130717" lon="9.314446058124304">
        <ele>995.10000000000002</ele>
        <time>2013-05-05T10:34:19Z</time>
      </trkpt>
      <trkpt lat="45.976983066648245" lon="9.314467431977391">
        <ele>995.10000000000002</ele>
        <time>2013-05-05T10:34:35Z</time>
      </trkpt>
      <trkpt lat="45.977051211521029" lon="9.314519483596087">
        <ele>995.58000000000004</ele>
        <time>2013-05-05T10:34:46Z</time>
      </trkpt>
      <trkpt lat="45.977070238441229" lon="9.314544294029474">
        <ele>995.58000000000004</ele>
        <time>2013-05-05T10:34:57Z</time>
      </trkpt>
      <trkpt lat="45.977071411907673" lon="9.314636243507266">
        <ele>996.05999999999995</ele>
        <time>2013-05-05T10:35:13Z</time>
      </trkpt>
      <trkpt lat="45.977082727476954" lon="9.314689803868532">
        <ele>996.53999999999996</ele>
        <time>2013-05-05T10:35:17Z</time>
      </trkpt>
      <trkpt lat="45.97711524926126" lon="9.314845958724618">
        <ele>997.99000000000001</ele>
        <time>2013-05-05T10:35:30Z</time>
      </trkpt>
      <trkpt lat="45.977206863462925" lon="9.314912175759673">
        <ele>999.42999999999995</ele>
        <time>2013-05-05T10:35:43Z</time>
      </trkpt>
      <trkpt lat="45.977246006950736" lon="9.314928771927953">
        <ele>999.90999999999997</ele>
        <time>2013-05-05T10:35:47Z</time>
      </trkpt>
      <trkpt lat="45.977364527061582" lon="9.314946541562676">
        <ele>1000.39</ele>
        <time>2013-05-05T10:36:01Z</time>
      </trkpt>
      <trkpt lat="45.977386152371764" lon="9.314924413338304">
        <ele>1000.87</ele>
        <time>2013-05-05T10:36:16Z</time>
      </trkpt>
      <trkpt lat="45.97737374715507" lon="9.314948050305247">
        <ele>1001.35</ele>
        <time>2013-05-05T10:36:43Z</time>
      </trkpt>
      <trkpt lat="45.977373830974102" lon="9.314953163266182">
        <ele>1001.35</ele>
        <time>2013-05-05T10:37:02Z</time>
      </trkpt>
      <trkpt lat="45.977373998612165" lon="9.314956683665514">
        <ele>1001.35</ele>
        <time>2013-05-05T10:37:25Z</time>
      </trkpt>
      <trkpt lat="45.977441472932696" lon="9.314896166324616">
        <ele>1002.3099999999999</ele>
        <time>2013-05-05T10:37:43Z</time>
      </trkpt>
      <trkpt lat="45.977543648332357" lon="9.314847635105252">
        <ele>1002.3099999999999</ele>
        <time>2013-05-05T10:37:54Z</time>
      </trkpt>
      <trkpt lat="45.977669544517994" lon="9.314802875742316">
        <ele>1002.79</ele>
        <time>2013-05-05T10:38:08Z</time>
      </trkpt>
      <trkpt lat="45.97774556837976" lon="9.314782675355673">
        <ele>1002.79</ele>
        <time>2013-05-05T10:38:16Z</time>
      </trkpt>
      <trkpt lat="45.977863669395447" lon="9.314763229340315">
        <ele>1002.79</ele>
        <time>2013-05-05T10:38:27Z</time>
      </trkpt>
      <trkpt lat="45.978009598329663" lon="9.314742274582386">
        <ele>1002.79</ele>
        <time>2013-05-05T10:38:41Z</time>
      </trkpt>
      <trkpt lat="45.97815896384418" lon="9.314711261540651">
        <ele>1001.83</ele>
        <time>2013-05-05T10:38:56Z</time>
      </trkpt>
      <trkpt lat="45.978337414562702" lon="9.314717128872871">
        <ele>1001.83</ele>
        <time>2013-05-05T10:39:11Z</time>
      </trkpt>
      <trkpt lat="45.978500107303262" lon="9.314678655937314">
        <ele>1000.87</ele>
        <time>2013-05-05T10:39:26Z</time>
      </trkpt>
      <trkpt lat="45.978670427575707" lon="9.314642865210772">
        <ele>998.95000000000005</ele>
        <time>2013-05-05T10:39:42Z</time>
      </trkpt>
      <trkpt lat="45.978688448667526" lon="9.314643451943994">
        <ele>999.42999999999995</ele>
        <time>2013-05-05T10:39:44Z</time>
      </trkpt>
      <trkpt lat="45.97883328795433" lon="9.314633393660188">
        <ele>998.47000000000003</ele>
        <time>2013-05-05T10:39:58Z</time>
      </trkpt>
      <trkpt lat="45.978953903540969" lon="9.31472240947187">
        <ele>998.47000000000003</ele>
        <time>2013-05-05T10:40:11Z</time>
      </trkpt>
      <trkpt lat="45.978967901319265" lon="9.314733557403088">
        <ele>998.47000000000003</ele>
        <time>2013-05-05T10:40:13Z</time>
      </trkpt>
      <trkpt lat="45.978987934067845" lon="9.314744621515274">
        <ele>998.47000000000003</ele>
        <time>2013-05-05T10:40:15Z</time>
      </trkpt>
      <trkpt lat="45.979104358702898" lon="9.314802540466189">
        <ele>997.50999999999999</ele>
        <time>2013-05-05T10:40:28Z</time>
      </trkpt>
      <trkpt lat="45.979225477203727" lon="9.314905554056168">
        <ele>997.50999999999999</ele>
        <time>2013-05-05T10:40:40Z</time>
      </trkpt>
      <trkpt lat="45.979241235181689" lon="9.314911337569356">
        <ele>997.01999999999998</ele>
        <time>2013-05-05T10:40:42Z</time>
      </trkpt>
      <trkpt lat="45.979309799149632" lon="9.315005382522941">
        <ele>997.01999999999998</ele>
        <time>2013-05-05T10:40:50Z</time>
      </trkpt>
      <trkpt lat="45.979319270700216" lon="9.315029019489884">
        <ele>997.50999999999999</ele>
        <time>2013-05-05T10:40:52Z</time>
      </trkpt>
      <trkpt lat="45.97941817715764" lon="9.315219959244132">
        <ele>997.99000000000001</ele>
        <time>2013-05-05T10:41:08Z</time>
      </trkpt>
      <trkpt lat="45.979525046423078" lon="9.315383741632104">
        <ele>998.47000000000003</ele>
        <time>2013-05-05T10:41:24Z</time>
      </trkpt>
      <trkpt lat="45.979605093598366" lon="9.315494801849127">
        <ele>998.47000000000003</ele>
        <time>2013-05-05T10:41:37Z</time>
      </trkpt>
      <trkpt lat="45.97970986738801" lon="9.315587170422077">
        <ele>998.47000000000003</ele>
        <time>2013-05-05T10:41:48Z</time>
      </trkpt>
      <trkpt lat="45.979746412485838" lon="9.315610639750958">
        <ele>998.47000000000003</ele>
        <time>2013-05-05T10:42:03Z</time>
      </trkpt>
      <trkpt lat="45.979740461334586" lon="9.315612483769655">
        <ele>997.99000000000001</ele>
        <time>2013-05-05T10:42:20Z</time>
      </trkpt>
      <trkpt lat="45.979725541546941" lon="9.315624637529254">
        <ele>997.99000000000001</ele>
        <time>2013-05-05T10:42:33Z</time>
      </trkpt>
      <trkpt lat="45.979704335331917" lon="9.315605610609055">
        <ele>998.47000000000003</ele>
        <time>2013-05-05T10:42:53Z</time>
      </trkpt>
      <trkpt lat="45.979774324223399" lon="9.315562946721911">
        <ele>998.47000000000003</ele>
        <time>2013-05-05T10:43:08Z</time>
      </trkpt>
      <trkpt lat="45.979792848229408" lon="9.315527407452464">
        <ele>998.47000000000003</ele>
        <time>2013-05-05T10:43:28Z</time>
      </trkpt>
      <trkpt lat="45.979845318943262" lon="9.315528329461813">
        <ele>997.01999999999998</ele>
        <time>2013-05-05T10:43:44Z</time>
      </trkpt>
      <trkpt lat="45.979879265651107" lon="9.31552086956799">
        <ele>996.05999999999995</ele>
        <time>2013-05-05T10:43:49Z</time>
      </trkpt>
      <trkpt lat="45.979989906772971" lon="9.315494885668159">
        <ele>994.62</ele>
        <time>2013-05-05T10:44:03Z</time>
      </trkpt>
      <trkpt lat="45.980090741068125" lon="9.315511230379343">
        <ele>992.70000000000005</ele>
        <time>2013-05-05T10:44:15Z</time>
      </trkpt>
      <trkpt lat="45.980125861242414" lon="9.315521121025085">
        <ele>992.22000000000003</ele>
        <time>2013-05-05T10:44:19Z</time>
      </trkpt>
      <trkpt lat="45.980256451293826" lon="9.31558826006949">
        <ele>990.77999999999997</ele>
        <time>2013-05-05T10:44:33Z</time>
      </trkpt>
      <trkpt lat="45.980386035516858" lon="9.315662188455463">
        <ele>989.80999999999995</ele>
        <time>2013-05-05T10:44:47Z</time>
      </trkpt>
      <trkpt lat="45.980508914217353" lon="9.315729830414057">
        <ele>988.37</ele>
        <time>2013-05-05T10:45:02Z</time>
      </trkpt>
      <trkpt lat="45.980543615296483" lon="9.315732177346945">
        <ele>988.37</ele>
        <time>2013-05-05T10:45:05Z</time>
      </trkpt>
      <trkpt lat="45.980682084336877" lon="9.315769392997026">
        <ele>986.92999999999995</ele>
        <time>2013-05-05T10:45:17Z</time>
      </trkpt>
      <trkpt lat="45.980801526457071" lon="9.315817086026073">
        <ele>984.52999999999997</ele>
        <time>2013-05-05T10:45:29Z</time>
      </trkpt>
      <trkpt lat="45.980835640802979" lon="9.315834101289511">
        <ele>984.52999999999997</ele>
        <time>2013-05-05T10:45:33Z</time>
      </trkpt>
      <trkpt lat="45.980937648564577" lon="9.315839717164636">
        <ele>984.04999999999995</ele>
        <time>2013-05-05T10:45:40Z</time>
      </trkpt>
      <trkpt lat="45.980996657162905" lon="9.315878776833415">
        <ele>983.57000000000005</ele>
        <time>2013-05-05T10:45:45Z</time>
      </trkpt>
      <trkpt lat="45.981006966903806" lon="9.315923871472478">
        <ele>983.57000000000005</ele>
        <time>2013-05-05T10:45:57Z</time>
      </trkpt>
      <trkpt lat="45.981006883084774" lon="9.315915070474148">
        <ele>984.04999999999995</ele>
        <time>2013-05-05T10:46:10Z</time>
      </trkpt>
      <trkpt lat="45.981054911389947" lon="9.315908532589674">
        <ele>983.09000000000003</ele>
        <time>2013-05-05T10:46:21Z</time>
      </trkpt>
      <trkpt lat="45.981122301891446" lon="9.315837202593684">
        <ele>983.09000000000003</ele>
        <time>2013-05-05T10:46:33Z</time>
      </trkpt>
      <trkpt lat="45.981187848374248" lon="9.315840387716889">
        <ele>982.60000000000002</ele>
        <time>2013-05-05T10:46:44Z</time>
      </trkpt>
      <trkpt lat="45.981216430664063" lon="9.315841058269143">
        <ele>982.12</ele>
        <time>2013-05-05T10:46:56Z</time>
      </trkpt>
      <trkpt lat="45.981225399300456" lon="9.315860085189343">
        <ele>981.63999999999999</ele>
        <time>2013-05-05T10:46:58Z</time>
      </trkpt>
      <trkpt lat="45.981375854462385" lon="9.315873580053449">
        <ele>979.72000000000003</ele>
        <time>2013-05-05T10:47:14Z</time>
      </trkpt>
      <trkpt lat="45.981527818366885" lon="9.31588145904243">
        <ele>978.75999999999999</ele>
        <time>2013-05-05T10:47:30Z</time>
      </trkpt>
      <trkpt lat="45.981648685410619" lon="9.315910879522562">
        <ele>977.79999999999995</ele>
        <time>2013-05-05T10:47:44Z</time>
      </trkpt>
      <trkpt lat="45.981728229671717" lon="9.315872993320227">
        <ele>976.36000000000001</ele>
        <time>2013-05-05T10:47:58Z</time>
      </trkpt>
      <trkpt lat="45.981793524697423" lon="9.315749863162637">
        <ele>974.90999999999997</ele>
        <time>2013-05-05T10:48:12Z</time>
      </trkpt>
      <trkpt lat="45.981816407293081" lon="9.315695632249117">
        <ele>974.90999999999997</ele>
        <time>2013-05-05T10:48:16Z</time>
      </trkpt>
      <trkpt lat="45.981856472790241" lon="9.31555112823844">
        <ele>973.47000000000003</ele>
        <time>2013-05-05T10:48:29Z</time>
      </trkpt>
      <trkpt lat="45.981882456690073" lon="9.31537477299571">
        <ele>972.99000000000001</ele>
        <time>2013-05-05T10:48:43Z</time>
      </trkpt>
      <trkpt lat="45.981944818049669" lon="9.315211409702897">
        <ele>972.50999999999999</ele>
        <time>2013-05-05T10:48:57Z</time>
      </trkpt>
      <trkpt lat="45.981952277943492" lon="9.315104624256492">
        <ele>974.42999999999995</ele>
        <time>2013-05-05T10:49:09Z</time>
      </trkpt>
      <trkpt lat="45.981957642361522" lon="9.315056428313255">
        <ele>974.42999999999995</ele>
        <time>2013-05-05T10:49:28Z</time>
      </trkpt>
      <trkpt lat="45.981987901031971" lon="9.315049136057496">
        <ele>974.42999999999995</ele>
        <time>2013-05-05T10:49:50Z</time>
      </trkpt>
      <trkpt lat="45.982039282098413" lon="9.315238818526268">
        <ele>972.99000000000001</ele>
        <time>2013-05-05T10:50:03Z</time>
      </trkpt>
      <trkpt lat="45.982038443908095" lon="9.315324649214745">
        <ele>972.02999999999997</ele>
        <time>2013-05-05T10:50:11Z</time>
      </trkpt>
      <trkpt lat="45.982061745598912" lon="9.315317692235112">
        <ele>971.54999999999995</ele>
        <time>2013-05-05T10:50:14Z</time>
      </trkpt>
      <trkpt lat="45.982188479974866" lon="9.315308723598719">
        <ele>970.11000000000001</ele>
        <time>2013-05-05T10:50:28Z</time>
      </trkpt>
      <trkpt lat="45.982311274856329" lon="9.315464124083519">
        <ele>969.63</ele>
        <time>2013-05-05T10:50:43Z</time>
      </trkpt>
      <trkpt lat="45.982394758611917" lon="9.315524222329259">
        <ele>968.66999999999996</ele>
        <time>2013-05-05T10:50:59Z</time>
      </trkpt>
      <trkpt lat="45.982435327023268" lon="9.315479127690196">
        <ele>968.17999999999995</ele>
        <time>2013-05-05T10:51:11Z</time>
      </trkpt>
      <trkpt lat="45.98246768116951" lon="9.315479462966323">
        <ele>967.70000000000005</ele>
        <time>2013-05-05T10:51:23Z</time>
      </trkpt>
      <trkpt lat="45.982449660077691" lon="9.315401930361986">
        <ele>967.70000000000005</ele>
        <time>2013-05-05T10:51:37Z</time>
      </trkpt>
      <trkpt lat="45.98245007917285" lon="9.315305454656482">
        <ele>967.70000000000005</ele>
        <time>2013-05-05T10:51:51Z</time>
      </trkpt>
      <trkpt lat="45.982484612613916" lon="9.315154161304236">
        <ele>967.70000000000005</ele>
        <time>2013-05-05T10:52:04Z</time>
      </trkpt>
      <trkpt lat="45.982499113306403" lon="9.315109653398395">
        <ele>967.22000000000003</ele>
        <time>2013-05-05T10:52:07Z</time>
      </trkpt>
      <trkpt lat="45.982520068064332" lon="9.315015524625778">
        <ele>966.74000000000001</ele>
        <time>2013-05-05T10:52:13Z</time>
      </trkpt>
      <trkpt lat="45.982556194067001" lon="9.314936567097902">
        <ele>965.77999999999997</ele>
        <time>2013-05-05T10:52:19Z</time>
      </trkpt>
      <trkpt lat="45.982627524062991" lon="9.314696928486228">
        <ele>964.82000000000005</ele>
        <time>2013-05-05T10:52:34Z</time>
      </trkpt>
      <trkpt lat="45.98265778273344" lon="9.314634734764695">
        <ele>963.86000000000001</ele>
        <time>2013-05-05T10:52:39Z</time>
      </trkpt>
      <trkpt lat="45.982777141034603" lon="9.31448545306921">
        <ele>962.89999999999998</ele>
        <time>2013-05-05T10:52:54Z</time>
      </trkpt>
      <trkpt lat="45.9829206392169" lon="9.314383529126644">
        <ele>962.89999999999998</ele>
        <time>2013-05-05T10:53:09Z</time>
      </trkpt>
      <trkpt lat="45.983041925355792" lon="9.314326029270887">
        <ele>964.34000000000003</ele>
        <time>2013-05-05T10:53:23Z</time>
      </trkpt>
      <trkpt lat="45.983090456575155" lon="9.314340949058533">
        <ele>963.86000000000001</ele>
        <time>2013-05-05T10:53:28Z</time>
      </trkpt>
      <trkpt lat="45.98320696502924" lon="9.314445303753018">
        <ele>964.34000000000003</ele>
        <time>2013-05-05T10:53:42Z</time>
      </trkpt>
      <trkpt lat="45.983338728547096" lon="9.314574804157019">
        <ele>964.82000000000005</ele>
        <time>2013-05-05T10:53:56Z</time>
      </trkpt>
      <trkpt lat="45.983395557850599" lon="9.314758200198412">
        <ele>963.86000000000001</ele>
        <time>2013-05-05T10:54:09Z</time>
      </trkpt>
      <trkpt lat="45.983412824571133" lon="9.314791560173035">
        <ele>963.86000000000001</ele>
        <time>2013-05-05T10:54:12Z</time>
      </trkpt>
      <trkpt lat="45.983469737693667" lon="9.31492131203413">
        <ele>963.38</ele>
        <time>2013-05-05T10:54:22Z</time>
      </trkpt>
      <trkpt lat="45.983531177043915" lon="9.315046034753323">
        <ele>961.94000000000005</ele>
        <time>2013-05-05T10:54:32Z</time>
      </trkpt>
      <trkpt lat="45.983627988025546" lon="9.315115688368678">
        <ele>960.49000000000001</ele>
        <time>2013-05-05T10:54:46Z</time>
      </trkpt>
      <trkpt lat="45.983752962201834" lon="9.315165560692549">
        <ele>959.52999999999997</ele>
        <time>2013-05-05T10:55:00Z</time>
      </trkpt>
      <trkpt lat="45.983766624704003" lon="9.315169416368008">
        <ele>959.52999999999997</ele>
        <time>2013-05-05T10:55:02Z</time>
      </trkpt>
      <trkpt lat="45.983786405995488" lon="9.315186515450478">
        <ele>959.04999999999995</ele>
        <time>2013-05-05T10:55:04Z</time>
      </trkpt>
      <trkpt lat="45.983806354925036" lon="9.315186347812414">
        <ele>959.04999999999995</ele>
        <time>2013-05-05T10:55:06Z</time>
      </trkpt>
      <trkpt lat="45.983897382393479" lon="9.315210236236453">
        <ele>958.57000000000005</ele>
        <time>2013-05-05T10:55:16Z</time>
      </trkpt>
      <trkpt lat="45.983940297737718" lon="9.315289780497551">
        <ele>958.09000000000003</ele>
        <time>2013-05-05T10:55:22Z</time>
      </trkpt>
      <trkpt lat="45.983981871977448" lon="9.315301012247801">
        <ele>958.09000000000003</ele>
        <time>2013-05-05T10:55:32Z</time>
      </trkpt>
      <trkpt lat="45.984003245830536" lon="9.315295144915581">
        <ele>958.09000000000003</ele>
        <time>2013-05-05T10:55:36Z</time>
      </trkpt>
      <trkpt lat="45.984064852818847" lon="9.315289529040456">
        <ele>957.61000000000001</ele>
        <time>2013-05-05T10:55:44Z</time>
      </trkpt>
      <trkpt lat="45.98412461578846" lon="9.315234208479524">
        <ele>957.61000000000001</ele>
        <time>2013-05-05T10:55:51Z</time>
      </trkpt>
      <trkpt lat="45.984147917479277" lon="9.315202441066504">
        <ele>957.61000000000001</ele>
        <time>2013-05-05T10:55:54Z</time>
      </trkpt>
      <trkpt lat="45.984310610219836" lon="9.315128847956657">
        <ele>955.69000000000005</ele>
        <time>2013-05-05T10:56:12Z</time>
      </trkpt>
      <trkpt lat="45.984477661550045" lon="9.315078305080533">
        <ele>955.69000000000005</ele>
        <time>2013-05-05T10:56:27Z</time>
      </trkpt>
      <trkpt lat="45.984615124762058" lon="9.315017536282539">
        <ele>955.69000000000005</ele>
        <time>2013-05-05T10:56:41Z</time>
      </trkpt>
      <trkpt lat="45.98465577699244" lon="9.315007729455829">
        <ele>956.16999999999996</ele>
        <time>2013-05-05T10:56:46Z</time>
      </trkpt>
      <trkpt lat="45.984733058139682" lon="9.315008902922273">
        <ele>956.16999999999996</ele>
        <time>2013-05-05T10:56:53Z</time>
      </trkpt>
      <trkpt lat="45.984912011772394" lon="9.315060786902905">
        <ele>955.69000000000005</ele>
        <time>2013-05-05T10:57:08Z</time>
      </trkpt>
      <trkpt lat="45.984947551041842" lon="9.315072521567345">
        <ele>955.69000000000005</ele>
        <time>2013-05-05T10:57:12Z</time>
      </trkpt>
      <trkpt lat="45.985129773616791" lon="9.315070090815425">
        <ele>954.25</ele>
        <time>2013-05-05T10:57:28Z</time>
      </trkpt>
      <trkpt lat="45.985228596255183" lon="9.315051734447479">
        <ele>953.27999999999997</ele>
        <time>2013-05-05T10:57:37Z</time>
      </trkpt>
      <trkpt lat="45.985402604565024" lon="9.315037820488215">
        <ele>952.79999999999995</ele>
        <time>2013-05-05T10:57:52Z</time>
      </trkpt>
      <trkpt lat="45.985547360032797" lon="9.31501803919673">
        <ele>951.36000000000001</ele>
        <time>2013-05-05T10:58:06Z</time>
      </trkpt>
      <trkpt lat="45.985747268423438" lon="9.314930867403746">
        <ele>950.88</ele>
        <time>2013-05-05T10:58:25Z</time>
      </trkpt>
      <trkpt lat="45.985812060534954" lon="9.314909325912595">
        <ele>950.88</ele>
        <time>2013-05-05T10:58:31Z</time>
      </trkpt>
      <trkpt lat="45.985861010849476" lon="9.314922401681542">
        <ele>950.88</ele>
        <time>2013-05-05T10:58:48Z</time>
      </trkpt>
      <trkpt lat="45.985858328640461" lon="9.314940925687552">
        <ele>950.39999999999998</ele>
        <time>2013-05-05T10:59:05Z</time>
      </trkpt>
      <trkpt lat="45.986008951440454" lon="9.314905051141977">
        <ele>949.91999999999996</ele>
        <time>2013-05-05T10:59:19Z</time>
      </trkpt>
      <trkpt lat="45.986075084656477" lon="9.314890969544649">
        <ele>949.91999999999996</ele>
        <time>2013-05-05T10:59:24Z</time>
      </trkpt>
      <trkpt lat="45.986190000548959" lon="9.314890215173364">
        <ele>949.91999999999996</ele>
        <time>2013-05-05T10:59:38Z</time>
      </trkpt>
      <trkpt lat="45.986225036904216" lon="9.314906476065517">
        <ele>950.39999999999998</ele>
        <time>2013-05-05T10:59:48Z</time>
      </trkpt>
      <trkpt lat="45.986288236454129" lon="9.314925586804748">
        <ele>950.88</ele>
        <time>2013-05-05T11:00:01Z</time>
      </trkpt>
      <trkpt lat="45.986324362456799" lon="9.314955761656165">
        <ele>951.36000000000001</ele>
        <time>2013-05-05T11:00:24Z</time>
      </trkpt>
      <trkpt lat="45.986482109874487" lon="9.314988199621439">
        <ele>951.36000000000001</ele>
        <time>2013-05-05T11:00:38Z</time>
      </trkpt>
      <trkpt lat="45.986499628052115" lon="9.315011836588383">
        <ele>951.84000000000003</ele>
        <time>2013-05-05T11:00:40Z</time>
      </trkpt>
      <trkpt lat="45.986529886722565" lon="9.315038658678532">
        <ele>951.84000000000003</ele>
        <time>2013-05-05T11:00:43Z</time>
      </trkpt>
      <trkpt lat="45.986647987738252" lon="9.315138906240463">
        <ele>952.32000000000005</ele>
        <time>2013-05-05T11:00:56Z</time>
      </trkpt>
      <trkpt lat="45.986754186451435" lon="9.31520470418036">
        <ele>953.27999999999997</ele>
        <time>2013-05-05T11:01:09Z</time>
      </trkpt>
      <trkpt lat="45.986792240291834" lon="9.315230855718255">
        <ele>953.76999999999998</ele>
        <time>2013-05-05T11:01:13Z</time>
      </trkpt>
      <trkpt lat="45.986931044608355" lon="9.315293384715915">
        <ele>954.25</ele>
        <time>2013-05-05T11:01:27Z</time>
      </trkpt>
      <trkpt lat="45.987094910815358" lon="9.315336216241121">
        <ele>954.73000000000002</ele>
        <time>2013-05-05T11:01:42Z</time>
      </trkpt>
      <trkpt lat="45.98723622970283" lon="9.315429506823421">
        <ele>956.16999999999996</ele>
        <time>2013-05-05T11:01:56Z</time>
      </trkpt>
      <trkpt lat="45.987372016534209" lon="9.3155652936548">
        <ele>956.64999999999998</ele>
        <time>2013-05-05T11:02:11Z</time>
      </trkpt>
      <trkpt lat="45.987416356801987" lon="9.315617932006717">
        <ele>957.13</ele>
        <time>2013-05-05T11:02:16Z</time>
      </trkpt>
      <trkpt lat="45.987489195540547" lon="9.315752293914557">
        <ele>958.09000000000003</ele>
        <time>2013-05-05T11:02:28Z</time>
      </trkpt>
      <trkpt lat="45.987650128081441" lon="9.315872071310878">
        <ele>958.09000000000003</ele>
        <time>2013-05-05T11:02:45Z</time>
      </trkpt>
      <trkpt lat="45.987849701195955" lon="9.315977348014712">
        <ele>957.13</ele>
        <time>2013-05-05T11:03:03Z</time>
      </trkpt>
      <trkpt lat="45.988010382279754" lon="9.316003415733576">
        <ele>956.16999999999996</ele>
        <time>2013-05-05T11:03:18Z</time>
      </trkpt>
      <trkpt lat="45.988074168562889" lon="9.316023280844092">
        <ele>956.16999999999996</ele>
        <time>2013-05-05T11:03:24Z</time>
      </trkpt>
      <trkpt lat="45.988263012841344" lon="9.316033003851771">
        <ele>955.69000000000005</ele>
        <time>2013-05-05T11:03:40Z</time>
      </trkpt>
      <trkpt lat="45.988336857408285" lon="9.316052198410034">
        <ele>955.69000000000005</ele>
        <time>2013-05-05T11:03:46Z</time>
      </trkpt>
      <trkpt lat="45.988485217094421" lon="9.316060999408364">
        <ele>954.73000000000002</ele>
        <time>2013-05-05T11:03:59Z</time>
      </trkpt>
      <trkpt lat="45.988592253997922" lon="9.316040296107531">
        <ele>954.73000000000002</ele>
        <time>2013-05-05T11:04:09Z</time>
      </trkpt>
      <trkpt lat="45.988637935370207" lon="9.3160055950284">
        <ele>954.73000000000002</ele>
        <time>2013-05-05T11:04:13Z</time>
      </trkpt>
      <trkpt lat="45.988765759393573" lon="9.31591222062707">
        <ele>954.73000000000002</ele>
        <time>2013-05-05T11:04:26Z</time>
      </trkpt>
      <trkpt lat="45.988960219547153" lon="9.315766291692853">
        <ele>953.76999999999998</ele>
        <time>2013-05-05T11:04:45Z</time>
      </trkpt>
      <trkpt lat="45.988971199840307" lon="9.315756987780333">
        <ele>953.76999999999998</ele>
        <time>2013-05-05T11:04:46Z</time>
      </trkpt>
      <trkpt lat="45.989108579233289" lon="9.31566989980638">
        <ele>954.25</ele>
        <time>2013-05-05T11:04:59Z</time>
      </trkpt>
      <trkpt lat="45.989192733541131" lon="9.315537130460143">
        <ele>954.73000000000002</ele>
        <time>2013-05-05T11:05:11Z</time>
      </trkpt>
      <trkpt lat="45.989240258932114" lon="9.315463872626424">
        <ele>954.25</ele>
        <time>2013-05-05T11:05:17Z</time>
      </trkpt>
      <trkpt lat="45.989296585321426" lon="9.315405366942287">
        <ele>954.25</ele>
        <time>2013-05-05T11:05:23Z</time>
      </trkpt>
      <trkpt lat="45.989318629726768" lon="9.31539623066783">
        <ele>954.25</ele>
        <time>2013-05-05T11:05:25Z</time>
      </trkpt>
      <trkpt lat="45.989428600296378" lon="9.315383490175009">
        <ele>954.73000000000002</ele>
        <time>2013-05-05T11:05:38Z</time>
      </trkpt>
      <trkpt lat="45.989623898640275" lon="9.315359853208065">
        <ele>955.21000000000004</ele>
        <time>2013-05-05T11:05:56Z</time>
      </trkpt>
      <trkpt lat="45.989696150645614" lon="9.315340742468834">
        <ele>956.16999999999996</ele>
        <time>2013-05-05T11:06:08Z</time>
      </trkpt>
      <trkpt lat="45.98983277566731" lon="9.315326744690538">
        <ele>957.61000000000001</ele>
        <time>2013-05-05T11:06:22Z</time>
      </trkpt>
      <trkpt lat="45.989960432052612" lon="9.315295228734613">
        <ele>959.52999999999997</ele>
        <time>2013-05-05T11:06:36Z</time>
      </trkpt>
      <trkpt lat="45.990101164206862" lon="9.315254744142294">
        <ele>960.49000000000001</ele>
        <time>2013-05-05T11:06:51Z</time>
      </trkpt>
      <trkpt lat="45.99022270180285" lon="9.315197914838791">
        <ele>962.41999999999996</ele>
        <time>2013-05-05T11:07:03Z</time>
      </trkpt>
      <trkpt lat="45.990304090082645" lon="9.315160196274519">
        <ele>962.89999999999998</ele>
        <time>2013-05-05T11:07:13Z</time>
      </trkpt>
      <trkpt lat="45.990419425070286" lon="9.31510797701776">
        <ele>964.34000000000003</ele>
        <time>2013-05-05T11:07:25Z</time>
      </trkpt>
      <trkpt lat="45.990519169718027" lon="9.315074700862169">
        <ele>965.29999999999995</ele>
        <time>2013-05-05T11:07:35Z</time>
      </trkpt>
      <trkpt lat="45.990544650703669" lon="9.315073024481535">
        <ele>965.77999999999997</ele>
        <time>2013-05-05T11:07:38Z</time>
      </trkpt>
      <trkpt lat="45.99063559435308" lon="9.315040335059166">
        <ele>966.74000000000001</ele>
        <time>2013-05-05T11:07:49Z</time>
      </trkpt>
      <trkpt lat="45.990764340385795" lon="9.314940674230456">
        <ele>968.66999999999996</ele>
        <time>2013-05-05T11:08:04Z</time>
      </trkpt>
      <trkpt lat="45.990772303193808" lon="9.314934303984046">
        <ele>968.66999999999996</ele>
        <time>2013-05-05T11:08:05Z</time>
      </trkpt>
      <trkpt lat="45.990789486095309" lon="9.3149159476161">
        <ele>968.66999999999996</ele>
        <time>2013-05-05T11:08:07Z</time>
      </trkpt>
      <trkpt lat="45.990895600989461" lon="9.314815951511264">
        <ele>969.63</ele>
        <time>2013-05-05T11:08:20Z</time>
      </trkpt>
      <trkpt lat="45.9910006262362" lon="9.314754009246826">
        <ele>970.59000000000003</ele>
        <time>2013-05-05T11:08:33Z</time>
      </trkpt>
      <trkpt lat="45.991161223500967" lon="9.31482651270926">
        <ele>972.02999999999997</ele>
        <time>2013-05-05T11:08:48Z</time>
      </trkpt>
      <trkpt lat="45.991315031424165" lon="9.314858950674534">
        <ele>973.47000000000003</ele>
        <time>2013-05-05T11:09:03Z</time>
      </trkpt>
      <trkpt lat="45.991467079147696" lon="9.314826261252165">
        <ele>973.95000000000005</ele>
        <time>2013-05-05T11:09:17Z</time>
      </trkpt>
      <trkpt lat="45.991629352793097" lon="9.314801534637809">
        <ele>974.42999999999995</ele>
        <time>2013-05-05T11:09:32Z</time>
      </trkpt>
      <trkpt lat="45.991673609241843" lon="9.314773622900248">
        <ele>974.42999999999995</ele>
        <time>2013-05-05T11:09:36Z</time>
      </trkpt>
      <trkpt lat="45.991772012785077" lon="9.314655270427465">
        <ele>974.42999999999995</ele>
        <time>2013-05-05T11:09:47Z</time>
      </trkpt>
      <trkpt lat="45.991855747997761" lon="9.314471036195755">
        <ele>975.38999999999999</ele>
        <time>2013-05-05T11:10:01Z</time>
      </trkpt>
      <trkpt lat="45.99190017208457" lon="9.314356790855527">
        <ele>975.88</ele>
        <time>2013-05-05T11:10:09Z</time>
      </trkpt>
      <trkpt lat="45.991934286430478" lon="9.31424212642014">
        <ele>975.88</ele>
        <time>2013-05-05T11:10:17Z</time>
      </trkpt>
      <trkpt lat="45.991968400776386" lon="9.314189152792096">
        <ele>976.36000000000001</ele>
        <time>2013-05-05T11:10:21Z</time>
      </trkpt>
      <trkpt lat="45.991980722174048" lon="9.314158307388425">
        <ele>976.36000000000001</ele>
        <time>2013-05-05T11:10:23Z</time>
      </trkpt>
      <trkpt lat="45.992003018036485" lon="9.31409452110529">
        <ele>976.36000000000001</ele>
        <time>2013-05-05T11:10:28Z</time>
      </trkpt>
      <trkpt lat="45.992040317505598" lon="9.314024364575744">
        <ele>976.36000000000001</ele>
        <time>2013-05-05T11:10:34Z</time>
      </trkpt>
      <trkpt lat="45.992157747969031" lon="9.313877681270242">
        <ele>977.32000000000005</ele>
        <time>2013-05-05T11:10:48Z</time>
      </trkpt>
      <trkpt lat="45.992261096835136" lon="9.313732087612152">
        <ele>977.79999999999995</ele>
        <time>2013-05-05T11:11:00Z</time>
      </trkpt>
      <trkpt lat="45.992326224222779" lon="9.313586074858904">
        <ele>979.24000000000001</ele>
        <time>2013-05-05T11:11:11Z</time>
      </trkpt>
      <trkpt lat="45.992401158437133" lon="9.313404019922018">
        <ele>979.72000000000003</ele>
        <time>2013-05-05T11:11:25Z</time>
      </trkpt>
      <trkpt lat="45.992418928071856" lon="9.313348866999149">
        <ele>979.72000000000003</ele>
        <time>2013-05-05T11:11:29Z</time>
      </trkpt>
      <trkpt lat="45.992438541725278" lon="9.313295474275947">
        <ele>980.20000000000005</ele>
        <time>2013-05-05T11:11:33Z</time>
      </trkpt>
      <trkpt lat="45.992433931678534" lon="9.313017530366778">
        <ele>979.24000000000001</ele>
        <time>2013-05-05T11:11:51Z</time>
      </trkpt>
      <trkpt lat="45.99243376404047" lon="9.312888197600842">
        <ele>979.24000000000001</ele>
        <time>2013-05-05T11:11:59Z</time>
      </trkpt>
      <trkpt lat="45.992486905306578" lon="9.312609247863293">
        <ele>979.24000000000001</ele>
        <time>2013-05-05T11:12:16Z</time>
      </trkpt>
      <trkpt lat="45.99257399328053" lon="9.312347564846277">
        <ele>979.72000000000003</ele>
        <time>2013-05-05T11:12:33Z</time>
      </trkpt>
      <trkpt lat="45.992545997723937" lon="9.312116643413901">
        <ele>979.72000000000003</ele>
        <time>2013-05-05T11:12:48Z</time>
      </trkpt>
      <trkpt lat="45.992481205612421" lon="9.31204916909337">
        <ele>979.72000000000003</ele>
        <time>2013-05-05T11:12:55Z</time>
      </trkpt>
      <trkpt lat="45.992430998012424" lon="9.311758317053318">
        <ele>980.67999999999995</ele>
        <time>2013-05-05T11:13:14Z</time>
      </trkpt>
      <trkpt lat="45.99248263053596" lon="9.311531838029623">
        <ele>981.63999999999999</ele>
        <time>2013-05-05T11:13:28Z</time>
      </trkpt>
      <trkpt lat="45.992495119571686" lon="9.311505015939474">
        <ele>981.63999999999999</ele>
        <time>2013-05-05T11:13:30Z</time>
      </trkpt>
      <trkpt lat="45.992566365748644" lon="9.311260264366865">
        <ele>982.60000000000002</ele>
        <time>2013-05-05T11:13:47Z</time>
      </trkpt>
      <trkpt lat="45.992583632469177" lon="9.311123387888074">
        <ele>983.09000000000003</ele>
        <time>2013-05-05T11:13:56Z</time>
      </trkpt>
      <trkpt lat="45.992524204775691" lon="9.310919120907784">
        <ele>984.04999999999995</ele>
        <time>2013-05-05T11:14:11Z</time>
      </trkpt>
      <trkpt lat="45.992470476776361" lon="9.310664059594274">
        <ele>983.09000000000003</ele>
        <time>2013-05-05T11:14:28Z</time>
      </trkpt>
      <trkpt lat="45.992402918636799" lon="9.310468845069408">
        <ele>983.57000000000005</ele>
        <time>2013-05-05T11:14:42Z</time>
      </trkpt>
      <trkpt lat="45.992325218394399" lon="9.310380080714822">
        <ele>983.57000000000005</ele>
        <time>2013-05-05T11:14:57Z</time>
      </trkpt>
      <trkpt lat="45.992342652752995" lon="9.310376141220331">
        <ele>983.57000000000005</ele>
        <time>2013-05-05T11:15:16Z</time>
      </trkpt>
      <trkpt lat="45.992333516478539" lon="9.31039466522634">
        <ele>983.57000000000005</ele>
        <time>2013-05-05T11:15:39Z</time>
      </trkpt>
      <trkpt lat="45.992342233657837" lon="9.310371866449714">
        <ele>983.57000000000005</ele>
        <time>2013-05-05T11:15:56Z</time>
      </trkpt>
      <trkpt lat="45.992363104596734" lon="9.310376895591617">
        <ele>983.57000000000005</ele>
        <time>2013-05-05T11:16:18Z</time>
      </trkpt>
      <trkpt lat="45.99235363304615" lon="9.310348145663738">
        <ele>982.60000000000002</ele>
        <time>2013-05-05T11:16:33Z</time>
      </trkpt>
      <trkpt lat="45.992353465408087" lon="9.31033406406641">
        <ele>982.60000000000002</ele>
        <time>2013-05-05T11:17:05Z</time>
      </trkpt>
      <trkpt lat="45.992356147617102" lon="9.310306403785944">
        <ele>983.09000000000003</ele>
        <time>2013-05-05T11:17:24Z</time>
      </trkpt>
      <trkpt lat="45.992298563942313" lon="9.310314450412989">
        <ele>983.57000000000005</ele>
        <time>2013-05-05T11:17:37Z</time>
      </trkpt>
      <trkpt lat="45.992268305271864" lon="9.310330878943205">
        <ele>984.04999999999995</ele>
        <time>2013-05-05T11:17:51Z</time>
      </trkpt>
      <trkpt lat="45.992246009409428" lon="9.31026809848845">
        <ele>984.04999999999995</ele>
        <time>2013-05-05T11:18:07Z</time>
      </trkpt>
      <trkpt lat="45.992193622514606" lon="9.31022459641099">
        <ele>984.52999999999997</ele>
        <time>2013-05-05T11:18:21Z</time>
      </trkpt>
      <trkpt lat="45.992231173440814" lon="9.310224512591958">
        <ele>984.04999999999995</ele>
        <time>2013-05-05T11:18:35Z</time>
      </trkpt>
      <trkpt lat="45.992305520921946" lon="9.310241779312491">
        <ele>984.04999999999995</ele>
        <time>2013-05-05T11:18:48Z</time>
      </trkpt>
      <trkpt lat="45.992293450981379" lon="9.310254855081439">
        <ele>984.52999999999997</ele>
        <time>2013-05-05T11:19:10Z</time>
      </trkpt>
      <trkpt lat="45.992293450981379" lon="9.310234235599637">
        <ele>984.52999999999997</ele>
        <time>2013-05-05T11:19:21Z</time>
      </trkpt>
      <trkpt lat="45.992289679124951" lon="9.310236498713493">
        <ele>984.04999999999995</ele>
        <time>2013-05-05T11:19:36Z</time>
      </trkpt>
      <trkpt lat="45.992271322757006" lon="9.310236163437367">
        <ele>984.52999999999997</ele>
        <time>2013-05-05T11:19:54Z</time>
      </trkpt>
      <trkpt lat="45.992284649983048" lon="9.3102085031569">
        <ele>984.04999999999995</ele>
        <time>2013-05-05T11:20:14Z</time>
      </trkpt>
      <trkpt lat="45.992291858419776" lon="9.310210347175598">
        <ele>984.52999999999997</ele>
        <time>2013-05-05T11:20:34Z</time>
      </trkpt>
      <trkpt lat="45.992288421839476" lon="9.310211185365915">
        <ele>978.75999999999999</ele>
        <time>2013-05-05T11:21:35Z</time>
      </trkpt>
      <trkpt lat="45.992280961945653" lon="9.310262063518167">
        <ele>978.27999999999997</ele>
        <time>2013-05-05T11:21:43Z</time>
      </trkpt>
      <trkpt lat="45.992289846763015" lon="9.310263488441706">
        <ele>977.79999999999995</ele>
        <time>2013-05-05T11:21:56Z</time>
      </trkpt>
      <trkpt lat="45.992267299443483" lon="9.310259046033025">
        <ele>978.27999999999997</ele>
        <time>2013-05-05T11:22:14Z</time>
      </trkpt>
      <trkpt lat="45.992250870913267" lon="9.310183189809322">
        <ele>977.32000000000005</ele>
        <time>2013-05-05T11:22:26Z</time>
      </trkpt>
      <trkpt lat="45.992219690233469" lon="9.31006969884038">
        <ele>976.36000000000001</ele>
        <time>2013-05-05T11:22:36Z</time>
      </trkpt>
      <trkpt lat="45.992207368835807" lon="9.31000960059464">
        <ele>975.88</ele>
        <time>2013-05-05T11:22:40Z</time>
      </trkpt>
      <trkpt lat="45.992242740467191" lon="9.309718832373619">
        <ele>972.99000000000001</ele>
        <time>2013-05-05T11:22:58Z</time>
      </trkpt>
      <trkpt lat="45.992242321372032" lon="9.309702655300498">
        <ele>972.99000000000001</ele>
        <time>2013-05-05T11:22:59Z</time>
      </trkpt>
      <trkpt lat="45.992234274744987" lon="9.309658231213689">
        <ele>972.02999999999997</ele>
        <time>2013-05-05T11:23:02Z</time>
      </trkpt>
      <trkpt lat="45.992162693291903" lon="9.309594193473458">
        <ele>970.11000000000001</ele>
        <time>2013-05-05T11:23:10Z</time>
      </trkpt>
      <trkpt lat="45.992154227569699" lon="9.309555804356933">
        <ele>969.63</ele>
        <time>2013-05-05T11:23:13Z</time>
      </trkpt>
      <trkpt lat="45.992192449048162" lon="9.309476343914866">
        <ele>968.17999999999995</ele>
        <time>2013-05-05T11:23:19Z</time>
      </trkpt>
      <trkpt lat="45.992281381040812" lon="9.309342820197344">
        <ele>965.29999999999995</ele>
        <time>2013-05-05T11:23:32Z</time>
      </trkpt>
      <trkpt lat="45.992287918925285" lon="9.309300826862454">
        <ele>964.82000000000005</ele>
        <time>2013-05-05T11:23:35Z</time>
      </trkpt>
      <trkpt lat="45.992341060191393" lon="9.309086753055453">
        <ele>961.94000000000005</ele>
        <time>2013-05-05T11:23:51Z</time>
      </trkpt>
      <trkpt lat="45.992343323305249" lon="9.309031097218394">
        <ele>961.46000000000004</ele>
        <time>2013-05-05T11:24:04Z</time>
      </trkpt>
      <trkpt lat="45.992334689944983" lon="9.309017267078161">
        <ele>961.46000000000004</ele>
        <time>2013-05-05T11:24:28Z</time>
      </trkpt>
      <trkpt lat="45.992357069626451" lon="9.309098487719894">
        <ele>961.46000000000004</ele>
        <time>2013-05-05T11:24:42Z</time>
      </trkpt>
      <trkpt lat="45.992381377145648" lon="9.309236370027065">
        <ele>962.41999999999996</ele>
        <time>2013-05-05T11:24:55Z</time>
      </trkpt>
      <trkpt lat="45.99239026196301" lon="9.309256486594677">
        <ele>961.94000000000005</ele>
        <time>2013-05-05T11:24:57Z</time>
      </trkpt>
      <trkpt lat="45.992413982748985" lon="9.309296468272805">
        <ele>961.46000000000004</ele>
        <time>2013-05-05T11:25:01Z</time>
      </trkpt>
      <trkpt lat="45.992457065731287" lon="9.309333767741919">
        <ele>960.49000000000001</ele>
        <time>2013-05-05T11:25:07Z</time>
      </trkpt>
      <trkpt lat="45.992517247796059" lon="9.309366121888161">
        <ele>958.57000000000005</ele>
        <time>2013-05-05T11:25:14Z</time>
      </trkpt>
      <trkpt lat="45.992548177018762" lon="9.309345921501517">
        <ele>957.61000000000001</ele>
        <time>2013-05-05T11:25:18Z</time>
      </trkpt>
      <trkpt lat="45.992549266666174" lon="9.309229329228401">
        <ele>956.16999999999996</ele>
        <time>2013-05-05T11:25:25Z</time>
      </trkpt>
      <trkpt lat="45.992516912519932" lon="9.309043167158961">
        <ele>952.79999999999995</ele>
        <time>2013-05-05T11:25:37Z</time>
      </trkpt>
      <trkpt lat="45.992542561143637" lon="9.308780645951629">
        <ele>950.39999999999998</ele>
        <time>2013-05-05T11:25:51Z</time>
      </trkpt>
      <trkpt lat="45.992558822035789" lon="9.308653408661485">
        <ele>949.91999999999996</ele>
        <time>2013-05-05T11:25:58Z</time>
      </trkpt>
      <trkpt lat="45.992553289979696" lon="9.308580486103892">
        <ele>948.96000000000004</ele>
        <time>2013-05-05T11:26:02Z</time>
      </trkpt>
      <trkpt lat="45.992520181462169" lon="9.308470850810409">
        <ele>948</ele>
        <time>2013-05-05T11:26:09Z</time>
      </trkpt>
      <trkpt lat="45.992526216432452" lon="9.308314276859164">
        <ele>946.55999999999995</ele>
        <time>2013-05-05T11:26:22Z</time>
      </trkpt>
      <trkpt lat="45.992551865056157" lon="9.308218890801072">
        <ele>946.07000000000005</ele>
        <time>2013-05-05T11:26:39Z</time>
      </trkpt>
      <trkpt lat="45.992559492588043" lon="9.308188799768686">
        <ele>945.11000000000001</ele>
        <time>2013-05-05T11:26:42Z</time>
      </trkpt>
      <trkpt lat="45.992554128170013" lon="9.308017557486892">
        <ele>942.71000000000004</ele>
        <time>2013-05-05T11:26:57Z</time>
      </trkpt>
      <trkpt lat="45.992567455396056" lon="9.307838687673211">
        <ele>939.35000000000002</ele>
        <time>2013-05-05T11:27:12Z</time>
      </trkpt>
      <trkpt lat="45.992557983845472" lon="9.307724945247173">
        <ele>937.89999999999998</ele>
        <time>2013-05-05T11:27:20Z</time>
      </trkpt>
      <trkpt lat="45.992516158148646" lon="9.307558983564377">
        <ele>935.01999999999998</ele>
        <time>2013-05-05T11:27:34Z</time>
      </trkpt>
      <trkpt lat="45.992491850629449" lon="9.307412300258875">
        <ele>933.10000000000002</ele>
        <time>2013-05-05T11:27:47Z</time>
      </trkpt>
      <trkpt lat="45.99246452562511" lon="9.307257067412138">
        <ele>930.21000000000004</ele>
        <time>2013-05-05T11:28:01Z</time>
      </trkpt>
      <trkpt lat="45.992487156763673" lon="9.307090938091278">
        <ele>928.76999999999998</ele>
        <time>2013-05-05T11:28:14Z</time>
      </trkpt>
      <trkpt lat="45.992470728233457" lon="9.306944590061903">
        <ele>925.88999999999999</ele>
        <time>2013-05-05T11:28:28Z</time>
      </trkpt>
      <trkpt lat="45.992460586130619" lon="9.306753231212497">
        <ele>923.96000000000004</ele>
        <time>2013-05-05T11:28:43Z</time>
      </trkpt>
      <trkpt lat="45.992500651627779" lon="9.306562123820186">
        <ele>922.51999999999998</ele>
        <time>2013-05-05T11:28:56Z</time>
      </trkpt>
      <trkpt lat="45.99255689419806" lon="9.30636833421886">
        <ele>919.63999999999999</ele>
        <time>2013-05-05T11:29:10Z</time>
      </trkpt>
      <trkpt lat="45.992558402940631" lon="9.306331286206842">
        <ele>919.63999999999999</ele>
        <time>2013-05-05T11:29:14Z</time>
      </trkpt>
      <trkpt lat="45.992566365748644" lon="9.306166749447584">
        <ele>916.75</ele>
        <time>2013-05-05T11:29:30Z</time>
      </trkpt>
      <trkpt lat="45.992644401267171" lon="9.305923087522388">
        <ele>914.35000000000002</ele>
        <time>2013-05-05T11:29:45Z</time>
      </trkpt>
      <trkpt lat="45.992734590545297" lon="9.305782355368137">
        <ele>914.35000000000002</ele>
        <time>2013-05-05T11:29:53Z</time>
      </trkpt>
      <trkpt lat="45.992834502831101" lon="9.305674312636256">
        <ele>913.87</ele>
        <time>2013-05-05T11:30:07Z</time>
      </trkpt>
      <trkpt lat="45.992842381820083" lon="9.305651849135757">
        <ele>913.38999999999999</ele>
        <time>2013-05-05T11:30:09Z</time>
      </trkpt>
      <trkpt lat="45.99286274984479" lon="9.305609436705709">
        <ele>912.90999999999997</ele>
        <time>2013-05-05T11:30:12Z</time>
      </trkpt>
      <trkpt lat="45.992938606068492" lon="9.305412126705051">
        <ele>911.47000000000003</ele>
        <time>2013-05-05T11:30:28Z</time>
      </trkpt>
      <trkpt lat="45.992960650473833" lon="9.305297210812569">
        <ele>910.99000000000001</ele>
        <time>2013-05-05T11:30:44Z</time>
      </trkpt>
      <trkpt lat="45.992965009063482" lon="9.305304754525423">
        <ele>910.99000000000001</ele>
        <time>2013-05-05T11:31:01Z</time>
      </trkpt>
      <trkpt lat="45.992980934679508" lon="9.305205680429936">
        <ele>910.50999999999999</ele>
        <time>2013-05-05T11:31:13Z</time>
      </trkpt>
      <trkpt lat="45.993045726791024" lon="9.304983224719763">
        <ele>909.05999999999995</ele>
        <time>2013-05-05T11:31:28Z</time>
      </trkpt>
      <trkpt lat="45.993060478940606" lon="9.304924132302404">
        <ele>909.05999999999995</ele>
        <time>2013-05-05T11:31:33Z</time>
      </trkpt>
      <trkpt lat="45.993095431476831" lon="9.304834781214595">
        <ele>908.58000000000004</ele>
        <time>2013-05-05T11:31:38Z</time>
      </trkpt>
      <trkpt lat="45.99311831407249" lon="9.304766468703747">
        <ele>909.05999999999995</ele>
        <time>2013-05-05T11:31:42Z</time>
      </trkpt>
      <trkpt lat="45.99318134598434" lon="9.304558765143156">
        <ele>908.58000000000004</ele>
        <time>2013-05-05T11:31:58Z</time>
      </trkpt>
      <trkpt lat="45.993234906345606" lon="9.304377799853683">
        <ele>906.65999999999997</ele>
        <time>2013-05-05T11:32:11Z</time>
      </trkpt>
      <trkpt lat="45.993237756192684" lon="9.30435910820961">
        <ele>906.65999999999997</ele>
        <time>2013-05-05T11:32:12Z</time>
      </trkpt>
      <trkpt lat="45.993312438949943" lon="9.304125169292092">
        <ele>905.70000000000005</ele>
        <time>2013-05-05T11:32:27Z</time>
      </trkpt>
      <trkpt lat="45.993387456983328" lon="9.303987706080079">
        <ele>904.74000000000001</ele>
        <time>2013-05-05T11:32:37Z</time>
      </trkpt>
      <trkpt lat="45.993504300713539" lon="9.303784780204296">
        <ele>904.25999999999999</ele>
        <time>2013-05-05T11:32:53Z</time>
      </trkpt>
      <trkpt lat="45.993542857468128" lon="9.30375074967742">
        <ele>904.25999999999999</ele>
        <time>2013-05-05T11:32:57Z</time>
      </trkpt>
      <trkpt lat="45.993615863844752" lon="9.303726609796286">
        <ele>903.77999999999997</ele>
        <time>2013-05-05T11:33:03Z</time>
      </trkpt>
      <trkpt lat="45.993810575455427" lon="9.303736248984933">
        <ele>902.82000000000005</ele>
        <time>2013-05-05T11:33:19Z</time>
      </trkpt>
      <trkpt lat="45.993939070031047" lon="9.303716635331512">
        <ele>901.37</ele>
        <time>2013-05-05T11:33:33Z</time>
      </trkpt>
      <trkpt lat="45.994087597355247" lon="9.30366282351315">
        <ele>899.45000000000005</ele>
        <time>2013-05-05T11:33:45Z</time>
      </trkpt>
      <trkpt lat="45.994132356718183" lon="9.30366282351315">
        <ele>898.97000000000003</ele>
        <time>2013-05-05T11:33:49Z</time>
      </trkpt>
      <trkpt lat="45.994156077504158" lon="9.303664667531848">
        <ele>898.49000000000001</ele>
        <time>2013-05-05T11:33:51Z</time>
      </trkpt>
      <trkpt lat="45.994236711412668" lon="9.30373415350914">
        <ele>897.52999999999997</ele>
        <time>2013-05-05T11:34:03Z</time>
      </trkpt>
      <trkpt lat="45.994343999773264" lon="9.303750246763229">
        <ele>894.63999999999999</ele>
        <time>2013-05-05T11:34:13Z</time>
      </trkpt>
      <trkpt lat="45.994361685588956" lon="9.303747229278088">
        <ele>894.15999999999997</ele>
        <time>2013-05-05T11:34:15Z</time>
      </trkpt>
      <trkpt lat="45.994406780228019" lon="9.303761143237352">
        <ele>892.24000000000001</ele>
        <time>2013-05-05T11:34:23Z</time>
      </trkpt>
      <trkpt lat="45.994459837675095" lon="9.303655782714486">
        <ele>889.36000000000001</ele>
        <time>2013-05-05T11:34:36Z</time>
      </trkpt>
      <trkpt lat="45.994514571502805" lon="9.303647149354219">
        <ele>889.36000000000001</ele>
        <time>2013-05-05T11:34:48Z</time>
      </trkpt>
      <trkpt lat="45.994545500725508" lon="9.303679503500462">
        <ele>888.39999999999998</ele>
        <time>2013-05-05T11:35:01Z</time>
      </trkpt>
      <trkpt lat="45.994544830173254" lon="9.303680928424001">
        <ele>888.39999999999998</ele>
        <time>2013-05-05T11:35:21Z</time>
      </trkpt>
      <trkpt lat="45.99465312436223" lon="9.30371412076056">
        <ele>885.50999999999999</ele>
        <time>2013-05-05T11:35:36Z</time>
      </trkpt>
      <trkpt lat="45.994669385254383" lon="9.303720658645034">
        <ele>885.02999999999997</ele>
        <time>2013-05-05T11:35:38Z</time>
      </trkpt>
      <trkpt lat="45.994805255904794" lon="9.303660057485104">
        <ele>883.59000000000003</ele>
        <time>2013-05-05T11:35:52Z</time>
      </trkpt>
      <trkpt lat="45.994842136278749" lon="9.303657375276089">
        <ele>883.11000000000001</ele>
        <time>2013-05-05T11:35:55Z</time>
      </trkpt>
      <trkpt lat="45.994988065212965" lon="9.303569868206978">
        <ele>880.71000000000004</ele>
        <time>2013-05-05T11:36:11Z</time>
      </trkpt>
      <trkpt lat="45.995006086304784" lon="9.303560648113489">
        <ele>879.74000000000001</ele>
        <time>2013-05-05T11:36:26Z</time>
      </trkpt>
      <trkpt lat="45.995080769062042" lon="9.303610604256392">
        <ele>878.77999999999997</ele>
        <time>2013-05-05T11:36:39Z</time>
      </trkpt>
      <trkpt lat="45.995104489848018" lon="9.303614962846041">
        <ele>878.29999999999995</ele>
        <time>2013-05-05T11:36:42Z</time>
      </trkpt>
      <trkpt lat="45.995186464861035" lon="9.303599204868078">
        <ele>876.38</ele>
        <time>2013-05-05T11:36:50Z</time>
      </trkpt>
      <trkpt lat="45.995299536734819" lon="9.303542375564575">
        <ele>874.46000000000004</ele>
        <time>2013-05-05T11:37:06Z</time>
      </trkpt>
      <trkpt lat="45.995305236428976" lon="9.303558636456728">
        <ele>874.94000000000005</ele>
        <time>2013-05-05T11:37:23Z</time>
      </trkpt>
      <trkpt lat="45.995301464572549" lon="9.303553607314825">
        <ele>874.94000000000005</ele>
        <time>2013-05-05T11:37:39Z</time>
      </trkpt>
      <trkpt lat="45.995307164266706" lon="9.30355972610414">
        <ele>874.46000000000004</ele>
        <time>2013-05-05T11:37:56Z</time>
      </trkpt>
      <trkpt lat="45.995319988578558" lon="9.303555116057396">
        <ele>874.46000000000004</ele>
        <time>2013-05-05T11:38:21Z</time>
      </trkpt>
      <trkpt lat="45.995376650243998" lon="9.30356559343636">
        <ele>873.98000000000002</ele>
        <time>2013-05-05T11:38:32Z</time>
      </trkpt>
      <trkpt lat="45.995409926399589" lon="9.303564000874758">
        <ele>873.5</ele>
        <time>2013-05-05T11:38:56Z</time>
      </trkpt>
      <trkpt lat="45.995418559759855" lon="9.303568359464407">
        <ele>873.98000000000002</ele>
        <time>2013-05-05T11:39:11Z</time>
      </trkpt>
      <trkpt lat="45.995416296645999" lon="9.303551511839032">
        <ele>873.5</ele>
        <time>2013-05-05T11:39:30Z</time>
      </trkpt>
      <trkpt lat="45.995418978855014" lon="9.303557295352221">
        <ele>873.98000000000002</ele>
        <time>2013-05-05T11:39:32Z</time>
      </trkpt>
      <trkpt lat="45.995507994666696" lon="9.303543884307146">
        <ele>871.57000000000005</ele>
        <time>2013-05-05T11:39:45Z</time>
      </trkpt>
      <trkpt lat="45.995550407096744" lon="9.303480936214328">
        <ele>869.64999999999998</ele>
        <time>2013-05-05T11:39:55Z</time>
      </trkpt>
      <trkpt lat="45.99559910595417" lon="9.303454449400306">
        <ele>867.25</ele>
        <time>2013-05-05T11:40:00Z</time>
      </trkpt>
      <trkpt lat="45.995664736256003" lon="9.303384460508823">
        <ele>866.76999999999998</ele>
        <time>2013-05-05T11:40:08Z</time>
      </trkpt>
      <trkpt lat="45.995777305215597" lon="9.303305838257074">
        <ele>865.79999999999995</ele>
        <time>2013-05-05T11:40:22Z</time>
      </trkpt>
      <trkpt lat="45.995908482000232" lon="9.30329293012619">
        <ele>862.44000000000005</ele>
        <time>2013-05-05T11:40:36Z</time>
      </trkpt>
      <trkpt lat="45.996032701805234" lon="9.303278848528862">
        <ele>860.03999999999996</ele>
        <time>2013-05-05T11:40:51Z</time>
      </trkpt>
      <trkpt lat="45.996181312948465" lon="9.303267449140549">
        <ele>858.11000000000001</ele>
        <time>2013-05-05T11:41:06Z</time>
      </trkpt>
      <trkpt lat="45.996309304609895" lon="9.303255882114172">
        <ele>855.71000000000004</ele>
        <time>2013-05-05T11:41:21Z</time>
      </trkpt>
      <trkpt lat="45.996434027329087" lon="9.303229479119182">
        <ele>853.78999999999996</ele>
        <time>2013-05-05T11:41:34Z</time>
      </trkpt>
      <trkpt lat="45.996591439470649" lon="9.303185977041721">
        <ele>851.38</ele>
        <time>2013-05-05T11:41:49Z</time>
      </trkpt>
      <trkpt lat="45.996727142482996" lon="9.303188994526863">
        <ele>849.46000000000004</ele>
        <time>2013-05-05T11:42:02Z</time>
      </trkpt>
      <trkpt lat="45.996865527704358" lon="9.303201483562589">
        <ele>847.05999999999995</ele>
        <time>2013-05-05T11:42:17Z</time>
      </trkpt>
      <trkpt lat="45.997023694217205" lon="9.303218079730868">
        <ele>845.13999999999999</ele>
        <time>2013-05-05T11:42:31Z</time>
      </trkpt>
      <trkpt lat="45.99716367200017" lon="9.303202070295811">
        <ele>843.69000000000005</ele>
        <time>2013-05-05T11:42:45Z</time>
      </trkpt>
      <trkpt lat="45.997285041958094" lon="9.303154712542892">
        <ele>841.28999999999996</ele>
        <time>2013-05-05T11:42:59Z</time>
      </trkpt>
      <trkpt lat="45.997430300340056" lon="9.303120346739888">
        <ele>838.40999999999997</ele>
        <time>2013-05-05T11:43:16Z</time>
      </trkpt>
      <trkpt lat="45.997398365288973" lon="9.303045580163598">
        <ele>835.51999999999998</ele>
        <time>2013-05-05T11:43:25Z</time>
      </trkpt>
      <trkpt lat="45.997409764677286" lon="9.303007274866104">
        <ele>835.03999999999996</ele>
        <time>2013-05-05T11:43:27Z</time>
      </trkpt>
      <trkpt lat="45.997448656708002" lon="9.302952121943235">
        <ele>834.08000000000004</ele>
        <time>2013-05-05T11:43:32Z</time>
      </trkpt>
      <trkpt lat="45.997567679733038" lon="9.302932005375624">
        <ele>830.72000000000003</ele>
        <time>2013-05-05T11:43:44Z</time>
      </trkpt>
      <trkpt lat="45.997697431594133" lon="9.30293477140367">
        <ele>828.78999999999996</ele>
        <time>2013-05-05T11:43:57Z</time>
      </trkpt>
      <trkpt lat="45.997851323336363" lon="9.30292546749115">
        <ele>827.35000000000002</ele>
        <time>2013-05-05T11:44:12Z</time>
      </trkpt>
      <trkpt lat="45.997897004708648" lon="9.302895376458764">
        <ele>826.87</ele>
        <time>2013-05-05T11:44:17Z</time>
      </trkpt>
      <trkpt lat="45.997960371896625" lon="9.302725223824382">
        <ele>823.02999999999997</ele>
        <time>2013-05-05T11:44:31Z</time>
      </trkpt>
      <trkpt lat="45.997987696900964" lon="9.302687421441078">
        <ele>822.05999999999995</ele>
        <time>2013-05-05T11:44:35Z</time>
      </trkpt>
      <trkpt lat="45.998006807640195" lon="9.302640650421381">
        <ele>821.58000000000004</ele>
        <time>2013-05-05T11:44:38Z</time>
      </trkpt>
      <trkpt lat="45.99816832691431" lon="9.302496062591672">
        <ele>818.22000000000003</ele>
        <time>2013-05-05T11:44:55Z</time>
      </trkpt>
      <trkpt lat="45.998277040198445" lon="9.302272936329246">
        <ele>815.34000000000003</ele>
        <time>2013-05-05T11:45:13Z</time>
      </trkpt>
      <trkpt lat="45.998336048796773" lon="9.302086606621742">
        <ele>813.40999999999997</ele>
        <time>2013-05-05T11:45:28Z</time>
      </trkpt>
      <trkpt lat="45.998355830088258" lon="9.301919303834438">
        <ele>811.49000000000001</ele>
        <time>2013-05-05T11:45:40Z</time>
      </trkpt>
      <trkpt lat="45.998372677713633" lon="9.30177379399538">
        <ele>808.13</ele>
        <time>2013-05-05T11:45:53Z</time>
      </trkpt>
      <trkpt lat="45.998289613053203" lon="9.301649741828442">
        <ele>805.24000000000001</ele>
        <time>2013-05-05T11:46:06Z</time>
      </trkpt>
      <trkpt lat="45.998224318027496" lon="9.301594002172351">
        <ele>802.84000000000003</ele>
        <time>2013-05-05T11:46:15Z</time>
      </trkpt>
      <trkpt lat="45.998219037428498" lon="9.301568269729614">
        <ele>801.88</ele>
        <time>2013-05-05T11:46:17Z</time>
      </trkpt>
      <trkpt lat="45.998278213664889" lon="9.30140096694231">
        <ele>799.47000000000003</ele>
        <time>2013-05-05T11:46:32Z</time>
      </trkpt>
      <trkpt lat="45.998377623036504" lon="9.301319411024451">
        <ele>796.59000000000003</ele>
        <time>2013-05-05T11:46:46Z</time>
      </trkpt>
      <trkpt lat="45.998462364077568" lon="9.301229137927294">
        <ele>794.19000000000005</ele>
        <time>2013-05-05T11:46:56Z</time>
      </trkpt>
      <trkpt lat="45.998589601367712" lon="9.301135260611773">
        <ele>792.25999999999999</ele>
        <time>2013-05-05T11:47:09Z</time>
      </trkpt>
      <trkpt lat="45.998615752905607" lon="9.301117910072208">
        <ele>791.77999999999997</ele>
        <time>2013-05-05T11:47:12Z</time>
      </trkpt>
      <trkpt lat="45.998673001304269" lon="9.301120508462191">
        <ele>790.82000000000005</ele>
        <time>2013-05-05T11:47:16Z</time>
      </trkpt>
      <trkpt lat="45.998830664902925" lon="9.301175745204091">
        <ele>789.38</ele>
        <time>2013-05-05T11:47:30Z</time>
      </trkpt>
      <trkpt lat="45.998973576352" lon="9.301234250888228">
        <ele>787.46000000000004</ele>
        <time>2013-05-05T11:47:43Z</time>
      </trkpt>
      <trkpt lat="45.999016994610429" lon="9.301240788772702">
        <ele>786.5</ele>
        <time>2013-05-05T11:47:47Z</time>
      </trkpt>
      <trkpt lat="45.999086480587721" lon="9.301181361079216">
        <ele>785.04999999999995</ele>
        <time>2013-05-05T11:47:54Z</time>
      </trkpt>
      <trkpt lat="45.999189158901572" lon="9.301045574247837">
        <ele>782.16999999999996</ele>
        <time>2013-05-05T11:48:08Z</time>
      </trkpt>
      <trkpt lat="45.999192930757999" lon="9.301033336669207">
        <ele>782.16999999999996</ele>
        <time>2013-05-05T11:48:09Z</time>
      </trkpt>
      <trkpt lat="45.999263254925609" lon="9.300983548164368">
        <ele>780.25</ele>
        <time>2013-05-05T11:48:17Z</time>
      </trkpt>
      <trkpt lat="45.999344559386373" lon="9.300942476838827">
        <ele>777.84000000000003</ele>
        <time>2013-05-05T11:48:31Z</time>
      </trkpt>
      <trkpt lat="45.999378422275186" lon="9.300853041931987">
        <ele>774.96000000000004</ele>
        <time>2013-05-05T11:48:45Z</time>
      </trkpt>
      <trkpt lat="45.999432653188705" lon="9.300663191825151">
        <ele>771.60000000000002</ele>
        <time>2013-05-05T11:48:58Z</time>
      </trkpt>
      <trkpt lat="45.999517226591706" lon="9.300514161586762">
        <ele>768.71000000000004</ele>
        <time>2013-05-05T11:49:13Z</time>
      </trkpt>
      <trkpt lat="45.999549077823758" lon="9.300486166030169">
        <ele>768.23000000000002</ele>
        <time>2013-05-05T11:49:17Z</time>
      </trkpt>
      <trkpt lat="45.999606996774673" lon="9.300398910418153">
        <ele>767.75</ele>
        <time>2013-05-05T11:49:28Z</time>
      </trkpt>
      <trkpt lat="45.999735407531261" lon="9.300356917083263">
        <ele>766.78999999999996</ele>
        <time>2013-05-05T11:49:44Z</time>
      </trkpt>
      <trkpt lat="45.999777065590024" lon="9.300315929576755">
        <ele>765.35000000000002</ele>
        <time>2013-05-05T11:49:59Z</time>
      </trkpt>
      <trkpt lat="45.999790811911225" lon="9.300296399742365">
        <ele>764.87</ele>
        <time>2013-05-05T11:50:14Z</time>
      </trkpt>
      <trkpt lat="45.999779999256134" lon="9.300316516309977">
        <ele>764.87</ele>
        <time>2013-05-05T11:50:33Z</time>
      </trkpt>
      <trkpt lat="45.99980472587049" lon="9.300320288166404">
        <ele>764.87</ele>
        <time>2013-05-05T11:50:50Z</time>
      </trkpt>
      <trkpt lat="45.999791314825416" lon="9.300307296216488">
        <ele>764.38999999999999</ele>
        <time>2013-05-05T11:51:05Z</time>
      </trkpt>
      <trkpt lat="45.999816795811057" lon="9.300333699211478">
        <ele>764.38999999999999</ele>
        <time>2013-05-05T11:51:15Z</time>
      </trkpt>
      <trkpt lat="45.999949565157294" lon="9.300347613170743">
        <ele>762.46000000000004</ele>
        <time>2013-05-05T11:51:30Z</time>
      </trkpt>
      <trkpt lat="46.000022320076823" lon="9.300344344228506">
        <ele>761.01999999999998</ele>
        <time>2013-05-05T11:51:42Z</time>
      </trkpt>
      <trkpt lat="46.00010572001338" lon="9.300364376977086">
        <ele>759.58000000000004</ele>
        <time>2013-05-05T11:51:54Z</time>
      </trkpt>
      <trkpt lat="46.000179061666131" lon="9.300456829369068">
        <ele>757.65999999999997</ele>
        <time>2013-05-05T11:52:07Z</time>
      </trkpt>
      <trkpt lat="46.000232454389334" lon="9.300477029755712">
        <ele>755.25</ele>
        <time>2013-05-05T11:52:20Z</time>
      </trkpt>
      <trkpt lat="46.000277800485492" lon="9.300460014492273">
        <ele>753.80999999999995</ele>
        <time>2013-05-05T11:52:34Z</time>
      </trkpt>
      <trkpt lat="46.000333456322551" lon="9.3004534766078">
        <ele>752.37</ele>
        <time>2013-05-05T11:52:48Z</time>
      </trkpt>
      <trkpt lat="46.000351812690496" lon="9.300389355048537">
        <ele>750.92999999999995</ele>
        <time>2013-05-05T11:53:00Z</time>
      </trkpt>
      <trkpt lat="46.000372348353267" lon="9.300273517146707">
        <ele>748.03999999999996</ele>
        <time>2013-05-05T11:53:15Z</time>
      </trkpt>
      <trkpt lat="46.000378299504519" lon="9.300162037834525">
        <ele>746.12</ele>
        <time>2013-05-05T11:53:27Z</time>
      </trkpt>
      <trkpt lat="46.000441582873464" lon="9.300181148573756">
        <ele>744.67999999999995</ele>
        <time>2013-05-05T11:53:42Z</time>
      </trkpt>
      <trkpt lat="46.000460777431726" lon="9.300242504104972">
        <ele>743.24000000000001</ele>
        <time>2013-05-05T11:53:55Z</time>
      </trkpt>
      <trkpt lat="46.000477122142911" lon="9.300254490226507">
        <ele>740.83000000000004</ele>
        <time>2013-05-05T11:54:09Z</time>
      </trkpt>
      <trkpt lat="46.000487515702844" lon="9.300270332023501">
        <ele>740.35000000000002</ele>
        <time>2013-05-05T11:54:27Z</time>
      </trkpt>
      <trkpt lat="46.000465555116534" lon="9.300221633166075">
        <ele>740.83000000000004</ele>
        <time>2013-05-05T11:54:53Z</time>
      </trkpt>
      <trkpt lat="46.000506626442075" lon="9.300234289839864">
        <ele>738.90999999999997</ele>
        <time>2013-05-05T11:55:07Z</time>
      </trkpt>
      <trkpt lat="46.000516936182976" lon="9.30026438087225">
        <ele>738.90999999999997</ele>
        <time>2013-05-05T11:55:29Z</time>
      </trkpt>
      <trkpt lat="46.000494975596666" lon="9.300280222669244">
        <ele>739.38999999999999</ele>
        <time>2013-05-05T11:55:56Z</time>
      </trkpt>
      <trkpt lat="46.000489108264446" lon="9.300232026726008">
        <ele>738.90999999999997</ele>
        <time>2013-05-05T11:56:15Z</time>
      </trkpt>
      <trkpt lat="46.000488102436066" lon="9.300199672579765">
        <ele>738.90999999999997</ele>
        <time>2013-05-05T11:56:47Z</time>
      </trkpt>
      <trkpt lat="46.000490449368954" lon="9.300193805247545">
        <ele>739.38999999999999</ele>
        <time>2013-05-05T11:57:05Z</time>
      </trkpt>
      <trkpt lat="46.00050201639533" lon="9.30017058737576">
        <ele>739.38999999999999</ele>
        <time>2013-05-05T11:57:23Z</time>
      </trkpt>
      <trkpt lat="46.000494556501508" lon="9.300197158008814">
        <ele>739.87</ele>
        <time>2013-05-05T11:57:45Z</time>
      </trkpt>
      <trkpt lat="46.000482067465782" lon="9.300236720591784">
        <ele>740.35000000000002</ele>
        <time>2013-05-05T11:58:02Z</time>
      </trkpt>
      <trkpt lat="46.000464549288154" lon="9.300247952342033">
        <ele>739.87</ele>
        <time>2013-05-05T11:58:33Z</time>
      </trkpt>
      <trkpt lat="46.000486593693495" lon="9.300212496891618">
        <ele>739.38999999999999</ele>
        <time>2013-05-05T11:59:03Z</time>
      </trkpt>
      <trkpt lat="46.000499669462442" lon="9.300165642052889">
        <ele>736.99000000000001</ele>
        <time>2013-05-05T11:59:15Z</time>
      </trkpt>
      <trkpt lat="46.000529592856765" lon="9.300147285684943">
        <ele>735.54999999999995</ele>
        <time>2013-05-05T11:59:29Z</time>
      </trkpt>
      <trkpt lat="46.000544596463442" lon="9.300168240442872">
        <ele>735.07000000000005</ele>
        <time>2013-05-05T11:59:51Z</time>
      </trkpt>
      <trkpt lat="46.000537052750587" lon="9.300113003700972">
        <ele>733.62</ele>
        <time>2013-05-05T11:59:56Z</time>
      </trkpt>
      <trkpt lat="46.000581393018365" lon="9.300037231296301">
        <ele>730.74000000000001</ele>
        <time>2013-05-05T12:00:07Z</time>
      </trkpt>
      <trkpt lat="46.000669654458761" lon="9.300041254609823">
        <ele>728.34000000000003</ele>
        <time>2013-05-05T12:00:19Z</time>
      </trkpt>
      <trkpt lat="46.000702930614352" lon="9.300013845786452">
        <ele>727.37</ele>
        <time>2013-05-05T12:00:23Z</time>
      </trkpt>
      <trkpt lat="46.000781385228038" lon="9.299954669550061">
        <ele>724.49000000000001</ele>
        <time>2013-05-05T12:00:36Z</time>
      </trkpt>
      <trkpt lat="46.000822121277452" lon="9.299922650679946">
        <ele>723.52999999999997</ele>
        <time>2013-05-05T12:00:40Z</time>
      </trkpt>
      <trkpt lat="46.000963021069765" lon="9.300072938203812">
        <ele>721.13</ele>
        <time>2013-05-05T12:00:54Z</time>
      </trkpt>
      <trkpt lat="46.000972995534539" lon="9.300079559907317">
        <ele>720.15999999999997</ele>
        <time>2013-05-05T12:00:55Z</time>
      </trkpt>
      <trkpt lat="46.001077769324183" lon="9.300130605697632">
        <ele>717.75999999999999</ele>
        <time>2013-05-05T12:01:06Z</time>
      </trkpt>
      <trkpt lat="46.001125043258071" lon="9.300116021186113">
        <ele>716.32000000000005</ele>
        <time>2013-05-05T12:01:11Z</time>
      </trkpt>
      <trkpt lat="46.001288658007979" lon="9.300055503845215">
        <ele>712.95000000000005</ele>
        <time>2013-05-05T12:01:25Z</time>
      </trkpt>
      <trkpt lat="46.001311875879765" lon="9.300066148862243">
        <ele>712.47000000000003</ele>
        <time>2013-05-05T12:01:27Z</time>
      </trkpt>
      <trkpt lat="46.001444477587938" lon="9.300057180225849">
        <ele>710.54999999999995</ele>
        <time>2013-05-05T12:01:42Z</time>
      </trkpt>
      <trkpt lat="46.001465264707804" lon="9.300061538815498">
        <ele>709.11000000000001</ele>
        <time>2013-05-05T12:01:54Z</time>
      </trkpt>
      <trkpt lat="46.001528883352876" lon="9.300014181062579">
        <ele>706.71000000000004</ele>
        <time>2013-05-05T12:02:08Z</time>
      </trkpt>
      <trkpt lat="46.001553358510137" lon="9.299994902685285">
        <ele>705.75</ele>
        <time>2013-05-05T12:02:11Z</time>
      </trkpt>
      <trkpt lat="46.001707334071398" lon="9.299835059791803">
        <ele>702.86000000000001</ele>
        <time>2013-05-05T12:02:27Z</time>
      </trkpt>
      <trkpt lat="46.001725690439343" lon="9.299813434481621">
        <ele>702.86000000000001</ele>
        <time>2013-05-05T12:02:29Z</time>
      </trkpt>
      <trkpt lat="46.001762906089425" lon="9.299701536074281">
        <ele>700.94000000000005</ele>
        <time>2013-05-05T12:02:39Z</time>
      </trkpt>
      <trkpt lat="46.001770198345184" lon="9.299612604081631">
        <ele>697.57000000000005</ele>
        <time>2013-05-05T12:02:52Z</time>
      </trkpt>
      <trkpt lat="46.001747315749526" lon="9.299508752301335">
        <ele>693.73000000000002</ele>
        <time>2013-05-05T12:03:02Z</time>
      </trkpt>
      <trkpt lat="46.001774724572897" lon="9.299360141158104">
        <ele>690.36000000000001</ele>
        <time>2013-05-05T12:03:11Z</time>
      </trkpt>
      <trkpt lat="46.001820070669055" lon="9.299321165308356">
        <ele>688.91999999999996</ele>
        <time>2013-05-05T12:03:15Z</time>
      </trkpt>
      <trkpt lat="46.001853765919805" lon="9.299264084547758">
        <ele>686.51999999999998</ele>
        <time>2013-05-05T12:03:20Z</time>
      </trkpt>
      <trkpt lat="46.001975890249014" lon="9.299146486446261">
        <ele>682.66999999999996</ele>
        <time>2013-05-05T12:03:32Z</time>
      </trkpt>
      <trkpt lat="46.002021990716457" lon="9.299097200855613">
        <ele>680.75</ele>
        <time>2013-05-05T12:03:37Z</time>
      </trkpt>
      <trkpt lat="46.002183593809605" lon="9.298984380438924">
        <ele>677.87</ele>
        <time>2013-05-05T12:03:51Z</time>
      </trkpt>
      <trkpt lat="46.002285936847329" lon="9.298984464257956">
        <ele>676.41999999999996</ele>
        <time>2013-05-05T12:03:58Z</time>
      </trkpt>
      <trkpt lat="46.002441421151161" lon="9.298946242779493">
        <ele>674.98000000000002</ele>
        <time>2013-05-05T12:04:13Z</time>
      </trkpt>
      <trkpt lat="46.002558348700404" lon="9.298828393220902">
        <ele>672.58000000000004</ele>
        <time>2013-05-05T12:04:26Z</time>
      </trkpt>
      <trkpt lat="46.002583829686046" lon="9.29881758056581">
        <ele>672.10000000000002</ele>
        <time>2013-05-05T12:04:29Z</time>
      </trkpt>
      <trkpt lat="46.002614758908749" lon="9.298778353258967">
        <ele>671.62</ele>
        <time>2013-05-05T12:04:33Z</time>
      </trkpt>
      <trkpt lat="46.002684077247977" lon="9.298678357154131">
        <ele>669.22000000000003</ele>
        <time>2013-05-05T12:04:48Z</time>
      </trkpt>
      <trkpt lat="46.002787426114082" lon="9.29865044541657">
        <ele>665.85000000000002</ele>
        <time>2013-05-05T12:05:02Z</time>
      </trkpt>
      <trkpt lat="46.00279807113111" lon="9.298598142340779">
        <ele>664.88999999999999</ele>
        <time>2013-05-05T12:05:15Z</time>
      </trkpt>
      <trkpt lat="46.002861522138119" lon="9.298615660518408">
        <ele>663.45000000000005</ele>
        <time>2013-05-05T12:05:31Z</time>
      </trkpt>
      <trkpt lat="46.002870155498385" lon="9.298632927238941">
        <ele>663.45000000000005</ele>
        <time>2013-05-05T12:05:33Z</time>
      </trkpt>
      <trkpt lat="46.002907874062657" lon="9.298697216436267">
        <ele>662.49000000000001</ele>
        <time>2013-05-05T12:05:39Z</time>
      </trkpt>
      <trkpt lat="46.003006780520082" lon="9.298666454851627">
        <ele>659.12</ele>
        <time>2013-05-05T12:05:52Z</time>
      </trkpt>
      <trkpt lat="46.003017676994205" lon="9.298643991351128">
        <ele>658.15999999999997</ele>
        <time>2013-05-05T12:05:56Z</time>
      </trkpt>
      <trkpt lat="46.003027400001884" lon="9.298583725467324">
        <ele>657.20000000000005</ele>
        <time>2013-05-05T12:06:00Z</time>
      </trkpt>
      <trkpt lat="46.003087582066655" lon="9.298461265861988">
        <ele>653.83000000000004</ele>
        <time>2013-05-05T12:06:10Z</time>
      </trkpt>
      <trkpt lat="46.00319093093276" lon="9.298325814306736">
        <ele>650.95000000000005</ele>
        <time>2013-05-05T12:06:23Z</time>
      </trkpt>
      <trkpt lat="46.003198642283678" lon="9.29830888286233">
        <ele>649.99000000000001</ele>
        <time>2013-05-05T12:06:24Z</time>
      </trkpt>
      <trkpt lat="46.003262177109718" lon="9.298254819586873">
        <ele>649.99000000000001</ele>
        <time>2013-05-05T12:06:30Z</time>
      </trkpt>
      <trkpt lat="46.003348594531417" lon="9.298262363299727">
        <ele>649.50999999999999</ele>
        <time>2013-05-05T12:06:36Z</time>
      </trkpt>
      <trkpt lat="46.00349678657949" lon="9.298174856230617">
        <ele>648.07000000000005</ele>
        <time>2013-05-05T12:06:48Z</time>
      </trkpt>
      <trkpt lat="46.003586137667298" lon="9.298147279769182">
        <ele>647.10000000000002</ele>
        <time>2013-05-05T12:06:55Z</time>
      </trkpt>
      <trkpt lat="46.00369468331337" lon="9.298026077449322">
        <ele>647.10000000000002</ele>
        <time>2013-05-05T12:07:07Z</time>
      </trkpt>
      <trkpt lat="46.003733491525054" lon="9.298006128519774">
        <ele>648.07000000000005</ele>
        <time>2013-05-05T12:07:11Z</time>
      </trkpt>
      <trkpt lat="46.003842372447252" lon="9.297933457419276">
        <ele>649.02999999999997</ele>
        <time>2013-05-05T12:07:23Z</time>
      </trkpt>
      <trkpt lat="46.003968520089984" lon="9.297892218455672">
        <ele>649.02999999999997</ele>
        <time>2013-05-05T12:07:35Z</time>
      </trkpt>
      <trkpt lat="46.004114365205169" lon="9.297850141301751">
        <ele>645.65999999999997</ele>
        <time>2013-05-05T12:07:46Z</time>
      </trkpt>
      <trkpt lat="46.004127021878958" lon="9.297843351960182">
        <ele>645.65999999999997</ele>
        <time>2013-05-05T12:07:47Z</time>
      </trkpt>
      <trkpt lat="46.004290971904993" lon="9.297756683081389">
        <ele>645.17999999999995</ele>
        <time>2013-05-05T12:08:01Z</time>
      </trkpt>
      <trkpt lat="46.004472356289625" lon="9.297726508229971">
        <ele>643.25999999999999</ele>
        <time>2013-05-05T12:08:16Z</time>
      </trkpt>
      <trkpt lat="46.004583416506648" lon="9.297664482146502">
        <ele>640.86000000000001</ele>
        <time>2013-05-05T12:08:26Z</time>
      </trkpt>
      <trkpt lat="46.004604287445545" lon="9.297664063051343">
        <ele>639.88999999999999</ele>
        <time>2013-05-05T12:08:41Z</time>
      </trkpt>
      <trkpt lat="46.004654746502638" lon="9.297665739431977">
        <ele>637.49000000000001</ele>
        <time>2013-05-05T12:08:54Z</time>
      </trkpt>
      <trkpt lat="46.004680814221501" lon="9.297641851007938">
        <ele>636.04999999999995</ele>
        <time>2013-05-05T12:09:09Z</time>
      </trkpt>
      <trkpt lat="46.004716688767076" lon="9.297586614266038">
        <ele>633.16999999999996</ele>
        <time>2013-05-05T12:09:22Z</time>
      </trkpt>
      <trkpt lat="46.004762118682265" lon="9.29758426733315">
        <ele>631.72000000000003</ele>
        <time>2013-05-05T12:09:36Z</time>
      </trkpt>
      <trkpt lat="46.004828587174416" lon="9.297589464113116">
        <ele>629.79999999999995</ele>
        <time>2013-05-05T12:09:48Z</time>
      </trkpt>
      <trkpt lat="46.004882398992777" lon="9.297608742490411">
        <ele>627.39999999999998</ele>
        <time>2013-05-05T12:10:00Z</time>
      </trkpt>
      <trkpt lat="46.004869071766734" lon="9.297524085268378">
        <ele>624.99000000000001</ele>
        <time>2013-05-05T12:10:12Z</time>
      </trkpt>
      <trkpt lat="46.004851134493947" lon="9.297474296763539">
        <ele>623.54999999999995</ele>
        <time>2013-05-05T12:10:18Z</time>
      </trkpt>
      <trkpt lat="46.004878459498286" lon="9.297239938750863">
        <ele>624.50999999999999</ele>
        <time>2013-05-05T12:10:33Z</time>
      </trkpt>
      <trkpt lat="46.004900503903627" lon="9.2971430439502">
        <ele>627.39999999999998</ele>
        <time>2013-05-05T12:10:45Z</time>
      </trkpt>
      <trkpt lat="46.004885081201792" lon="9.29712250828743">
        <ele>627.88</ele>
        <time>2013-05-05T12:11:01Z</time>
      </trkpt>
      <trkpt lat="46.0048932954669" lon="9.297114126384258">
        <ele>627.88</ele>
        <time>2013-05-05T12:11:16Z</time>
      </trkpt>
      <trkpt lat="46.004928918555379" lon="9.2970428802073">
        <ele>629.32000000000005</ele>
        <time>2013-05-05T12:11:29Z</time>
      </trkpt>
      <trkpt lat="46.004947945475578" lon="9.297029888257384">
        <ele>630.27999999999997</ele>
        <time>2013-05-05T12:11:32Z</time>
      </trkpt>
      <trkpt lat="46.004980970174074" lon="9.297004239633679">
        <ele>630.27999999999997</ele>
        <time>2013-05-05T12:11:36Z</time>
      </trkpt>
      <trkpt lat="46.005087336525321" lon="9.296812377870083">
        <ele>629.79999999999995</ele>
        <time>2013-05-05T12:11:51Z</time>
      </trkpt>
      <trkpt lat="46.005120445042849" lon="9.296799972653389">
        <ele>629.32000000000005</ele>
        <time>2013-05-05T12:12:03Z</time>
      </trkpt>
      <trkpt lat="46.005112901329994" lon="9.296808606013656">
        <ele>628.84000000000003</ele>
        <time>2013-05-05T12:12:38Z</time>
      </trkpt>
      <trkpt lat="46.005109380930662" lon="9.29680684581399">
        <ele>629.79999999999995</ele>
        <time>2013-05-05T12:12:49Z</time>
      </trkpt>
      <trkpt lat="46.005113571882248" lon="9.29679368622601">
        <ele>629.79999999999995</ele>
        <time>2013-05-05T12:13:05Z</time>
      </trkpt>
      <trkpt lat="46.005118517205119" lon="9.296771390363574">
        <ele>628.84000000000003</ele>
        <time>2013-05-05T12:13:19Z</time>
      </trkpt>
      <trkpt lat="46.005121283233166" lon="9.296794189140201">
        <ele>629.79999999999995</ele>
        <time>2013-05-05T12:13:39Z</time>
      </trkpt>
      <trkpt lat="46.005112566053867" lon="9.296763092279434">
        <ele>629.32000000000005</ele>
        <time>2013-05-05T12:13:59Z</time>
      </trkpt>
      <trkpt lat="46.005106447264552" lon="9.296778934076428">
        <ele>628.84000000000003</ele>
        <time>2013-05-05T12:14:14Z</time>
      </trkpt>
      <trkpt lat="46.005105106160045" lon="9.296740042045713">
        <ele>630.27999999999997</ele>
        <time>2013-05-05T12:14:28Z</time>
      </trkpt>
      <trkpt lat="46.005114577710629" lon="9.296732665970922">
        <ele>630.27999999999997</ele>
        <time>2013-05-05T12:14:51Z</time>
      </trkpt>
      <trkpt lat="46.005123797804117" lon="9.296733001247048">
        <ele>630.27999999999997</ele>
        <time>2013-05-05T12:15:07Z</time>
      </trkpt>
      <trkpt lat="46.005131341516972" lon="9.296732833608985">
        <ele>630.27999999999997</ele>
        <time>2013-05-05T12:15:23Z</time>
      </trkpt>
      <trkpt lat="46.005112482234836" lon="9.296744903549552">
        <ele>629.79999999999995</ele>
        <time>2013-05-05T12:15:47Z</time>
      </trkpt>
      <trkpt lat="46.00512052886188" lon="9.296750854700804">
        <ele>629.79999999999995</ele>
        <time>2013-05-05T12:16:00Z</time>
      </trkpt>
      <trkpt lat="46.005125474184752" lon="9.296736102551222">
        <ele>629.79999999999995</ele>
        <time>2013-05-05T12:16:16Z</time>
      </trkpt>
      <trkpt lat="46.005121450871229" lon="9.296723362058401">
        <ele>629.79999999999995</ele>
        <time>2013-05-05T12:16:35Z</time>
      </trkpt>
      <trkpt lat="46.005108375102282" lon="9.296737527474761">
        <ele>629.79999999999995</ele>
        <time>2013-05-05T12:16:55Z</time>
      </trkpt>
      <trkpt lat="46.005118768662214" lon="9.296728642657399">
        <ele>629.79999999999995</ele>
        <time>2013-05-05T12:17:26Z</time>
      </trkpt>
      <trkpt lat="46.005122205242515" lon="9.2967320792377">
        <ele>629.32000000000005</ele>
        <time>2013-05-05T12:17:47Z</time>
      </trkpt>
      <trkpt lat="46.005119020119309" lon="9.296742975711823">
        <ele>629.32000000000005</ele>
        <time>2013-05-05T12:18:01Z</time>
      </trkpt>
      <trkpt lat="46.005108961835504" lon="9.296739706769586">
        <ele>629.32000000000005</ele>
        <time>2013-05-05T12:18:26Z</time>
      </trkpt>
      <trkpt lat="46.005096472799778" lon="9.296733671799302">
        <ele>629.32000000000005</ele>
        <time>2013-05-05T12:18:47Z</time>
      </trkpt>
      <trkpt lat="46.005095131695271" lon="9.296735599637032">
        <ele>629.32000000000005</ele>
        <time>2013-05-05T12:19:07Z</time>
      </trkpt>
      <trkpt lat="46.005117259919643" lon="9.296722607687116">
        <ele>628.84000000000003</ele>
        <time>2013-05-05T12:19:27Z</time>
      </trkpt>
      <trkpt lat="46.005138801410794" lon="9.296678770333529">
        <ele>627.88</ele>
        <time>2013-05-05T12:19:32Z</time>
      </trkpt>
      <trkpt lat="46.005205605179071" lon="9.296617917716503">
        <ele>627.39999999999998</ele>
        <time>2013-05-05T12:19:45Z</time>
      </trkpt>
      <trkpt lat="46.005271319299936" lon="9.296588832512498">
        <ele>624.50999999999999</ele>
        <time>2013-05-05T12:19:58Z</time>
      </trkpt>
      <trkpt lat="46.00541515275836" lon="9.296482717618346">
        <ele>623.54999999999995</ele>
        <time>2013-05-05T12:20:11Z</time>
      </trkpt>
      <trkpt lat="46.005540378391743" lon="9.296336118131876">
        <ele>624.02999999999997</ele>
        <time>2013-05-05T12:20:26Z</time>
      </trkpt>
      <trkpt lat="46.005573067814112" lon="9.29632555693388">
        <ele>624.50999999999999</ele>
        <time>2013-05-05T12:20:29Z</time>
      </trkpt>
      <trkpt lat="46.005594106391072" lon="9.296338967978954">
        <ele>624.99000000000001</ele>
        <time>2013-05-05T12:20:31Z</time>
      </trkpt>
      <trkpt lat="46.005756296217442" lon="9.296269482001662">
        <ele>622.11000000000001</ele>
        <time>2013-05-05T12:20:44Z</time>
      </trkpt>
      <trkpt lat="46.005859477445483" lon="9.296157332137227">
        <ele>622.11000000000001</ele>
        <time>2013-05-05T12:21:00Z</time>
      </trkpt>
      <trkpt lat="46.005934663116932" lon="9.296132437884808">
        <ele>619.23000000000002</ele>
        <time>2013-05-05T12:21:11Z</time>
      </trkpt>
      <trkpt lat="46.006048992276192" lon="9.296121876686811">
        <ele>615.86000000000001</ele>
        <time>2013-05-05T12:21:24Z</time>
      </trkpt>
      <trkpt lat="46.006092997267842" lon="9.29605582728982">
        <ele>616.34000000000003</ele>
        <time>2013-05-05T12:21:31Z</time>
      </trkpt>
      <trkpt lat="46.006227694451809" lon="9.295934624969959">
        <ele>615.86000000000001</ele>
        <time>2013-05-05T12:21:47Z</time>
      </trkpt>
      <trkpt lat="46.006330624222755" lon="9.295874945819378">
        <ele>612.98000000000002</ele>
        <time>2013-05-05T12:22:01Z</time>
      </trkpt>
      <trkpt lat="46.006394410505891" lon="9.29581006988883">
        <ele>610.09000000000003</ele>
        <time>2013-05-05T12:22:15Z</time>
      </trkpt>
      <trkpt lat="46.006451658904552" lon="9.295785091817379">
        <ele>608.16999999999996</ele>
        <time>2013-05-05T12:22:27Z</time>
      </trkpt>
      <trkpt lat="46.006493819877505" lon="9.295744942501187">
        <ele>604.80999999999995</ele>
        <time>2013-05-05T12:22:38Z</time>
      </trkpt>
      <trkpt lat="46.006494909524918" lon="9.295736728236079">
        <ele>604.80999999999995</ele>
        <time>2013-05-05T12:22:39Z</time>
      </trkpt>
      <trkpt lat="46.006568670272827" lon="9.29562583565712">
        <ele>600.96000000000004</ele>
        <time>2013-05-05T12:22:53Z</time>
      </trkpt>
      <trkpt lat="46.006619716063142" lon="9.295608066022396">
        <ele>599.03999999999996</ele>
        <time>2013-05-05T12:23:05Z</time>
      </trkpt>
      <trkpt lat="46.006658691912889" lon="9.295565905049443">
        <ele>597.12</ele>
        <time>2013-05-05T12:23:16Z</time>
      </trkpt>
      <trkpt lat="46.006704457104206" lon="9.295522822067142">
        <ele>594.71000000000004</ele>
        <time>2013-05-05T12:23:22Z</time>
      </trkpt>
      <trkpt lat="46.006743013858795" lon="9.295462723821402">
        <ele>592.30999999999995</ele>
        <time>2013-05-05T12:23:28Z</time>
      </trkpt>
      <trkpt lat="46.006753407418728" lon="9.29543917067349">
        <ele>591.83000000000004</ele>
        <time>2013-05-05T12:23:30Z</time>
      </trkpt>
      <trkpt lat="46.006883746013045" lon="9.295304892584682">
        <ele>589.90999999999997</ele>
        <time>2013-05-05T12:23:42Z</time>
      </trkpt>
      <trkpt lat="46.006927331909537" lon="9.295220235362649">
        <ele>590.38999999999999</ele>
        <time>2013-05-05T12:23:56Z</time>
      </trkpt>
      <trkpt lat="46.006939318031073" lon="9.295235238969326">
        <ele>590.87</ele>
        <time>2013-05-05T12:24:09Z</time>
      </trkpt>
      <trkpt lat="46.006958428770304" lon="9.295274382457137">
        <ele>590.38999999999999</ele>
        <time>2013-05-05T12:24:12Z</time>
      </trkpt>
      <trkpt lat="46.007048785686493" lon="9.295324170961976">
        <ele>589.42999999999995</ele>
        <time>2013-05-05T12:24:22Z</time>
      </trkpt>
      <trkpt lat="46.007147692143917" lon="9.29539667442441">
        <ele>586.53999999999996</ele>
        <time>2013-05-05T12:24:36Z</time>
      </trkpt>
      <trkpt lat="46.007177615538239" lon="9.295432381331921">
        <ele>584.62</ele>
        <time>2013-05-05T12:24:46Z</time>
      </trkpt>
      <trkpt lat="46.007171832025051" lon="9.295495497062802">
        <ele>582.70000000000005</ele>
        <time>2013-05-05T12:24:59Z</time>
      </trkpt>
      <trkpt lat="46.007223967462778" lon="9.295560708269477">
        <ele>579.80999999999995</ele>
        <time>2013-05-05T12:25:12Z</time>
      </trkpt>
      <trkpt lat="46.007215417921543" lon="9.295678054913878">
        <ele>577.88999999999999</ele>
        <time>2013-05-05T12:25:24Z</time>
      </trkpt>
      <trkpt lat="46.007217848673463" lon="9.295693812891841">
        <ele>577.40999999999997</ele>
        <time>2013-05-05T12:25:27Z</time>
      </trkpt>
      <trkpt lat="46.007222458720207" lon="9.295774279162288">
        <ele>574.52999999999997</ele>
        <time>2013-05-05T12:25:36Z</time>
      </trkpt>
      <trkpt lat="46.007207036018372" lon="9.295823313295841">
        <ele>572.12</ele>
        <time>2013-05-05T12:25:47Z</time>
      </trkpt>
      <trkpt lat="46.007216339930892" lon="9.29582666605711">
        <ele>571.15999999999997</ele>
        <time>2013-05-05T12:26:04Z</time>
      </trkpt>
      <trkpt lat="46.007271157577634" lon="9.295839741826057">
        <ele>568.75999999999999</ele>
        <time>2013-05-05T12:26:09Z</time>
      </trkpt>
      <trkpt lat="46.007313570007682" lon="9.295924063771963">
        <ele>567.32000000000005</ele>
        <time>2013-05-05T12:26:16Z</time>
      </trkpt>
      <trkpt lat="46.00729051977396" lon="9.295946611091495">
        <ele>565.38999999999999</ele>
        <time>2013-05-05T12:26:23Z</time>
      </trkpt>
      <trkpt lat="46.007340392097831" lon="9.295908305794001">
        <ele>563.47000000000003</ele>
        <time>2013-05-05T12:26:31Z</time>
      </trkpt>
      <trkpt lat="46.007398394867778" lon="9.295858852565289">
        <ele>560.11000000000001</ele>
        <time>2013-05-05T12:26:42Z</time>
      </trkpt>
      <trkpt lat="46.00744835101068" lon="9.29588726721704">
        <ele>558.65999999999997</ele>
        <time>2013-05-05T12:26:51Z</time>
      </trkpt>
      <trkpt lat="46.007523201406002" lon="9.295811746269465">
        <ele>555.77999999999997</ele>
        <time>2013-05-05T12:27:03Z</time>
      </trkpt>
      <trkpt lat="46.00754507817328" lon="9.295792216435075">
        <ele>555.29999999999995</ele>
        <time>2013-05-05T12:27:05Z</time>
      </trkpt>
      <trkpt lat="46.007601572200656" lon="9.29559507407248">
        <ele>553.38</ele>
        <time>2013-05-05T12:27:19Z</time>
      </trkpt>
      <trkpt lat="46.007602410390973" lon="9.295419389382005">
        <ele>551.92999999999995</ele>
        <time>2013-05-05T12:27:31Z</time>
      </trkpt>
      <trkpt lat="46.007591262459755" lon="9.295231215655804">
        <ele>551.45000000000005</ele>
        <time>2013-05-05T12:27:44Z</time>
      </trkpt>
      <trkpt lat="46.007587071508169" lon="9.295142870396376">
        <ele>548.57000000000005</ele>
        <time>2013-05-05T12:27:53Z</time>
      </trkpt>
      <trkpt lat="46.007569804787636" lon="9.295128285884857">
        <ele>548.09000000000003</ele>
        <time>2013-05-05T12:27:55Z</time>
      </trkpt>
      <trkpt lat="46.00748791359365" lon="9.294945728033781">
        <ele>546.16999999999996</ele>
        <time>2013-05-05T12:28:09Z</time>
      </trkpt>
      <trkpt lat="46.007443908601999" lon="9.294837433844805">
        <ele>543.27999999999997</ele>
        <time>2013-05-05T12:28:21Z</time>
      </trkpt>
      <trkpt lat="46.007388588041067" lon="9.294776162132621">
        <ele>539.91999999999996</ele>
        <time>2013-05-05T12:28:31Z</time>
      </trkpt>
      <trkpt lat="46.007376685738564" lon="9.294731905683875">
        <ele>538.96000000000004</ele>
        <time>2013-05-05T12:28:35Z</time>
      </trkpt>
      <trkpt lat="46.007438376545906" lon="9.294581534340978">
        <ele>535.59000000000003</ele>
        <time>2013-05-05T12:28:49Z</time>
      </trkpt>
      <trkpt lat="46.007481543347239" lon="9.294489249587059">
        <ele>532.71000000000004</ele>
        <time>2013-05-05T12:29:00Z</time>
      </trkpt>
      <trkpt lat="46.007509287446737" lon="9.294430743902922">
        <ele>531.26999999999998</ele>
        <time>2013-05-05T12:29:06Z</time>
      </trkpt>
      <trkpt lat="46.007568882778287" lon="9.294336279854178">
        <ele>528.86000000000001</ele>
        <time>2013-05-05T12:29:18Z</time>
      </trkpt>
      <trkpt lat="46.007586317136884" lon="9.294284395873547">
        <ele>529.34000000000003</ele>
        <time>2013-05-05T12:29:34Z</time>
      </trkpt>
      <trkpt lat="46.007559662684798" lon="9.294321946799755">
        <ele>529.34000000000003</ele>
        <time>2013-05-05T12:30:02Z</time>
      </trkpt>
      <trkpt lat="46.007563937455416" lon="9.294313061982393">
        <ele>528.86000000000001</ele>
        <time>2013-05-05T12:30:25Z</time>
      </trkpt>
      <trkpt lat="46.007458409294486" lon="9.294277271255851">
        <ele>525.5</ele>
        <time>2013-05-05T12:30:38Z</time>
      </trkpt>
      <trkpt lat="46.007362939417362" lon="9.294199319556356">
        <ele>522.13</ele>
        <time>2013-05-05T12:30:49Z</time>
      </trkpt>
      <trkpt lat="46.007320526987314" lon="9.294029669836164">
        <ele>518.76999999999998</ele>
        <time>2013-05-05T12:31:00Z</time>
      </trkpt>
      <trkpt lat="46.007313234731555" lon="9.293917352333665">
        <ele>515.88</ele>
        <time>2013-05-05T12:31:12Z</time>
      </trkpt>
      <trkpt lat="46.007284484803677" lon="9.293890027329326">
        <ele>513.48000000000002</ele>
        <time>2013-05-05T12:31:26Z</time>
      </trkpt>
      <trkpt lat="46.00730711594224" lon="9.293810399249196">
        <ele>513.48000000000002</ele>
        <time>2013-05-05T12:31:51Z</time>
      </trkpt>
      <trkpt lat="46.007361514493823" lon="9.293730519711971">
        <ele>510.60000000000002</ele>
        <time>2013-05-05T12:32:03Z</time>
      </trkpt>
      <trkpt lat="46.007445165887475" lon="9.293663883581758">
        <ele>507.70999999999998</ele>
        <time>2013-05-05T12:32:16Z</time>
      </trkpt>
      <trkpt lat="46.007479364052415" lon="9.293613256886601">
        <ele>504.82999999999998</ele>
        <time>2013-05-05T12:32:25Z</time>
      </trkpt>
      <trkpt lat="46.007542898878455" lon="9.293539663776755">
        <ele>501.94999999999999</ele>
        <time>2013-05-05T12:32:39Z</time>
      </trkpt>
      <trkpt lat="46.007608026266098" lon="9.293522899970412">
        <ele>500.01999999999998</ele>
        <time>2013-05-05T12:32:51Z</time>
      </trkpt>
      <trkpt lat="46.007666783407331" lon="9.293482415378094">
        <ele>498.10000000000002</ele>
        <time>2013-05-05T12:33:04Z</time>
      </trkpt>
      <trkpt lat="46.007740376517177" lon="9.293442768976092">
        <ele>495.69999999999999</ele>
        <time>2013-05-05T12:33:13Z</time>
      </trkpt>
      <trkpt lat="46.00786660797894" lon="9.293455509468913">
        <ele>492.32999999999998</ele>
        <time>2013-05-05T12:33:25Z</time>
      </trkpt>
      <trkpt lat="46.007887730374932" lon="9.293453078716993">
        <ele>491.85000000000002</ele>
        <time>2013-05-05T12:33:27Z</time>
      </trkpt>
      <trkpt lat="46.007984289899468" lon="9.293436063453555">
        <ele>488.97000000000003</ele>
        <time>2013-05-05T12:33:37Z</time>
      </trkpt>
      <trkpt lat="46.008117981255054" lon="9.293394489213824">
        <ele>486.07999999999998</ele>
        <time>2013-05-05T12:33:51Z</time>
      </trkpt>
      <trkpt lat="46.0082399379462" lon="9.293377473950386">
        <ele>483.68000000000001</ele>
        <time>2013-05-05T12:34:04Z</time>
      </trkpt>
      <trkpt lat="46.008354602381587" lon="9.293365404009819">
        <ele>481.27999999999997</ele>
        <time>2013-05-05T12:34:16Z</time>
      </trkpt>
      <trkpt lat="46.008459879085422" lon="9.293282926082611">
        <ele>478.38999999999999</ele>
        <time>2013-05-05T12:34:30Z</time>
      </trkpt>
      <trkpt lat="46.008469602093101" lon="9.29316071793437">
        <ele>475.99000000000001</ele>
        <time>2013-05-05T12:34:42Z</time>
      </trkpt>
      <trkpt lat="46.008543195202947" lon="9.292986961081624">
        <ele>472.63</ele>
        <time>2013-05-05T12:34:58Z</time>
      </trkpt>
      <trkpt lat="46.008554846048355" lon="9.292946979403496">
        <ele>472.13999999999999</ele>
        <time>2013-05-05T12:35:01Z</time>
      </trkpt>
      <trkpt lat="46.008623158559203" lon="9.292840613052249">
        <ele>469.74000000000001</ele>
        <time>2013-05-05T12:35:11Z</time>
      </trkpt>
      <trkpt lat="46.008726339787245" lon="9.292731145396829">
        <ele>467.33999999999997</ele>
        <time>2013-05-05T12:35:25Z</time>
      </trkpt>
      <trkpt lat="46.00873002782464" lon="9.292702060192823">
        <ele>466.86000000000001</ele>
        <time>2013-05-05T12:35:34Z</time>
      </trkpt>
      <trkpt lat="46.008761124685407" lon="9.292613714933395">
        <ele>465.42000000000002</ele>
        <time>2013-05-05T12:35:47Z</time>
      </trkpt>
      <trkpt lat="46.008724579587579" lon="9.292476419359446">
        <ele>461.56999999999999</ele>
        <time>2013-05-05T12:36:00Z</time>
      </trkpt>
      <trkpt lat="46.008678982034326" lon="9.292357144877315">
        <ele>459.17000000000002</ele>
        <time>2013-05-05T12:36:11Z</time>
      </trkpt>
      <trkpt lat="46.008652998134494" lon="9.2922352720052">
        <ele>456.75999999999999</ele>
        <time>2013-05-05T12:36:20Z</time>
      </trkpt>
      <trkpt lat="46.008650064468384" lon="9.29207056760788">
        <ele>453.88</ele>
        <time>2013-05-05T12:36:33Z</time>
      </trkpt>
      <trkpt lat="46.00863229483366" lon="9.291908964514732">
        <ele>450.51999999999998</ele>
        <time>2013-05-05T12:36:45Z</time>
      </trkpt>
      <trkpt lat="46.008648807182908" lon="9.291801089420915">
        <ele>449.06999999999999</ele>
        <time>2013-05-05T12:36:53Z</time>
      </trkpt>
      <trkpt lat="46.008711671456695" lon="9.291819529607892">
        <ele>447.14999999999998</ele>
        <time>2013-05-05T12:37:00Z</time>
      </trkpt>
      <trkpt lat="46.008751569315791" lon="9.291865210980177">
        <ele>446.19</ele>
        <time>2013-05-05T12:37:05Z</time>
      </trkpt>
      <trkpt lat="46.008806554600596" lon="9.291908126324415">
        <ele>444.75</ele>
        <time>2013-05-05T12:37:14Z</time>
      </trkpt>
      <trkpt lat="46.00891912356019" lon="9.291965877637267">
        <ele>440.89999999999998</ele>
        <time>2013-05-05T12:37:27Z</time>
      </trkpt>
      <trkpt lat="46.009016940370202" lon="9.292051121592522">
        <ele>438.01999999999998</ele>
        <time>2013-05-05T12:37:40Z</time>
      </trkpt>
      <trkpt lat="46.009033201262355" lon="9.292070902884007">
        <ele>437.54000000000002</ele>
        <time>2013-05-05T12:37:42Z</time>
      </trkpt>
      <trkpt lat="46.009113164618611" lon="9.292214484885335">
        <ele>433.69</ele>
        <time>2013-05-05T12:37:57Z</time>
      </trkpt>
      <trkpt lat="46.009209556505084" lon="9.29226066917181">
        <ele>430.81</ele>
        <time>2013-05-05T12:38:09Z</time>
      </trkpt>
      <trkpt lat="46.009231684729457" lon="9.292209539562464">
        <ele>429.37</ele>
        <time>2013-05-05T12:38:15Z</time>
      </trkpt>
      <trkpt lat="46.009338302537799" lon="9.292216328904033">
        <ele>426.48000000000002</ele>
        <time>2013-05-05T12:38:28Z</time>
      </trkpt>
      <trkpt lat="46.009414158761501" lon="9.292185232043266">
        <ele>423.12</ele>
        <time>2013-05-05T12:38:43Z</time>
      </trkpt>
      <trkpt lat="46.009478699415922" lon="9.292165115475655">
        <ele>420.70999999999998</ele>
        <time>2013-05-05T12:38:54Z</time>
      </trkpt>
      <trkpt lat="46.009551202878356" lon="9.292219933122397">
        <ele>418.31</ele>
        <time>2013-05-05T12:39:04Z</time>
      </trkpt>
      <trkpt lat="46.009630998596549" lon="9.292198726907373">
        <ele>414.94999999999999</ele>
        <time>2013-05-05T12:39:17Z</time>
      </trkpt>
      <trkpt lat="46.009729150682688" lon="9.292186740785837">
        <ele>411.57999999999998</ele>
        <time>2013-05-05T12:39:30Z</time>
      </trkpt>
      <trkpt lat="46.009855046868324" lon="9.2921541351825">
        <ele>409.18000000000001</ele>
        <time>2013-05-05T12:39:45Z</time>
      </trkpt>
      <trkpt lat="46.009877091273665" lon="9.292159918695688">
        <ele>408.69999999999999</ele>
        <time>2013-05-05T12:40:00Z</time>
      </trkpt>
      <trkpt lat="46.009935848414898" lon="9.292111471295357">
        <ele>407.74000000000001</ele>
        <time>2013-05-05T12:40:14Z</time>
      </trkpt>
      <trkpt lat="46.009959820657969" lon="9.29209060035646">
        <ele>406.29000000000002</ele>
        <time>2013-05-05T12:40:20Z</time>
      </trkpt>
      <trkpt lat="46.010019751265645" lon="9.291989933699369">
        <ele>404.85000000000002</ele>
        <time>2013-05-05T12:40:29Z</time>
      </trkpt>
      <trkpt lat="46.010094685479999" lon="9.291755240410566">
        <ele>401.49000000000001</ele>
        <time>2013-05-05T12:40:45Z</time>
      </trkpt>
      <trkpt lat="46.010143719613552" lon="9.291508728638291">
        <ele>399.07999999999998</ele>
        <time>2013-05-05T12:41:00Z</time>
      </trkpt>
      <trkpt lat="46.010148245841265" lon="9.291450139135122">
        <ele>398.12</ele>
        <time>2013-05-05T12:41:03Z</time>
      </trkpt>
      <trkpt lat="46.010201387107372" lon="9.291277639567852">
        <ele>396.19999999999999</ele>
        <time>2013-05-05T12:41:17Z</time>
      </trkpt>
      <trkpt lat="46.010221252217889" lon="9.291239334270358">
        <ele>394.75999999999999</ele>
        <time>2013-05-05T12:41:33Z</time>
      </trkpt>
      <trkpt lat="46.010235082358122" lon="9.29120471701026">
        <ele>394.27999999999997</ele>
        <time>2013-05-05T12:41:38Z</time>
      </trkpt>
      <trkpt lat="46.010264335200191" lon="9.291098099201918">
        <ele>392.36000000000001</ele>
        <time>2013-05-05T12:41:46Z</time>
      </trkpt>
      <trkpt lat="46.010315883904696" lon="9.29094672203064">
        <ele>389.47000000000003</ele>
        <time>2013-05-05T12:42:01Z</time>
      </trkpt>
      <trkpt lat="46.010384699329734" lon="9.29079283028841">
        <ele>388.02999999999997</ele>
        <time>2013-05-05T12:42:10Z</time>
      </trkpt>
      <trkpt lat="46.010411772876978" lon="9.29076936095953">
        <ele>387.06999999999999</ele>
        <time>2013-05-05T12:42:13Z</time>
      </trkpt>
      <trkpt lat="46.010383777320385" lon="9.29075812920928">
        <ele>387.55000000000001</ele>
        <time>2013-05-05T12:42:26Z</time>
      </trkpt>
      <trkpt lat="46.010384280234575" lon="9.290797105059028">
        <ele>387.55000000000001</ele>
        <time>2013-05-05T12:42:34Z</time>
      </trkpt>
      <trkpt lat="46.010405654087663" lon="9.290878241881728">
        <ele>386.11000000000001</ele>
        <time>2013-05-05T12:42:40Z</time>
      </trkpt>
      <trkpt lat="46.0104123596102" lon="9.291024170815945">
        <ele>384.66000000000003</ele>
        <time>2013-05-05T12:42:54Z</time>
      </trkpt>
      <trkpt lat="46.010393919423223" lon="9.291014531627297">
        <ele>383.22000000000003</ele>
        <time>2013-05-05T12:43:18Z</time>
      </trkpt>
      <trkpt lat="46.010388471186161" lon="9.291030373424292">
        <ele>383.22000000000003</ele>
        <time>2013-05-05T12:43:40Z</time>
      </trkpt>
      <trkpt lat="46.010411772876978" lon="9.291056273505092">
        <ele>383.69999999999999</ele>
        <time>2013-05-05T12:44:17Z</time>
      </trkpt>
      <trkpt lat="46.010384447872639" lon="9.291042611002922">
        <ele>383.22000000000003</ele>
        <time>2013-05-05T12:44:46Z</time>
      </trkpt>
      <trkpt lat="46.010395679622889" lon="9.291051328182221">
        <ele>383.22000000000003</ele>
        <time>2013-05-05T12:45:15Z</time>
      </trkpt>
      <trkpt lat="46.01041872985661" lon="9.291048645973206">
        <ele>383.69999999999999</ele>
        <time>2013-05-05T12:45:42Z</time>
      </trkpt>
      <trkpt lat="46.010358799248934" lon="9.291039174422622">
        <ele>383.69999999999999</ele>
        <time>2013-05-05T12:46:12Z</time>
      </trkpt>
      <trkpt lat="46.010375311598182" lon="9.291035989299417">
        <ele>383.22000000000003</ele>
        <time>2013-05-05T12:46:35Z</time>
      </trkpt>
      <trkpt lat="46.010434068739414" lon="9.291078904643655">
        <ele>383.22000000000003</ele>
        <time>2013-05-05T12:47:02Z</time>
      </trkpt>
      <trkpt lat="46.010409174486995" lon="9.291078234091401">
        <ele>383.22000000000003</ele>
        <time>2013-05-05T12:47:27Z</time>
      </trkpt>
      <trkpt lat="46.010398445650935" lon="9.291045712307096">
        <ele>383.22000000000003</ele>
        <time>2013-05-05T12:48:03Z</time>
      </trkpt>
      <trkpt lat="46.01042166352272" lon="9.291051495820284">
        <ele>383.22000000000003</ele>
        <time>2013-05-05T12:48:30Z</time>
      </trkpt>
      <trkpt lat="46.010385202243924" lon="9.291052082553506">
        <ele>382.74000000000001</ele>
        <time>2013-05-05T12:49:08Z</time>
      </trkpt>
      <trkpt lat="46.010405570268631" lon="9.29107672534883">
        <ele>382.74000000000001</ele>
        <time>2013-05-05T12:49:41Z</time>
      </trkpt>
      <trkpt lat="46.010427195578814" lon="9.29110161960125">
        <ele>383.22000000000003</ele>
        <time>2013-05-05T12:50:01Z</time>
      </trkpt>
      <trkpt lat="46.010421495884657" lon="9.291131794452667">
        <ele>383.22000000000003</ele>
        <time>2013-05-05T12:50:22Z</time>
      </trkpt>
      <trkpt lat="46.010426273569465" lon="9.291149564087391">
        <ele>382.74000000000001</ele>
        <time>2013-05-05T12:50:56Z</time>
      </trkpt>
      <trkpt lat="46.010397356003523" lon="9.2910938244313">
        <ele>383.22000000000003</ele>
        <time>2013-05-05T12:51:19Z</time>
      </trkpt>
      <trkpt lat="46.010375814512372" lon="9.291095836088061">
        <ele>383.69999999999999</ele>
        <time>2013-05-05T12:51:48Z</time>
      </trkpt>
      <trkpt lat="46.010427949950099" lon="9.291070271283388">
        <ele>383.22000000000003</ele>
        <time>2013-05-05T12:52:15Z</time>
      </trkpt>
      <trkpt lat="46.010451754555106" lon="9.291032217442989">
        <ele>383.69999999999999</ele>
        <time>2013-05-05T12:52:35Z</time>
      </trkpt>
      <trkpt lat="46.010424932464957" lon="9.291021740064025">
        <ele>384.66000000000003</ele>
        <time>2013-05-05T12:52:48Z</time>
      </trkpt>
      <trkpt lat="46.010416299104691" lon="9.291002126410604">
        <ele>384.18000000000001</ele>
        <time>2013-05-05T12:53:04Z</time>
      </trkpt>
      <trkpt lat="46.010402468964458" lon="9.291013525798917">
        <ele>384.66000000000003</ele>
        <time>2013-05-05T12:53:20Z</time>
      </trkpt>
      <trkpt lat="46.010397439822555" lon="9.291017130017281">
        <ele>384.66000000000003</ele>
        <time>2013-05-05T12:53:51Z</time>
      </trkpt>
      <trkpt lat="46.010376065969467" lon="9.291000533849001">
        <ele>385.14999999999998</ele>
        <time>2013-05-05T12:54:11Z</time>
      </trkpt>
      <trkpt lat="46.010414119809866" lon="9.290870195254684">
        <ele>384.18000000000001</ele>
        <time>2013-05-05T12:54:25Z</time>
      </trkpt>
      <trkpt lat="46.010416634380817" lon="9.290863322094083">
        <ele>384.18000000000001</ele>
        <time>2013-05-05T12:54:26Z</time>
      </trkpt>
      <trkpt lat="46.010478409007192" lon="9.290676070377231">
        <ele>383.22000000000003</ele>
        <time>2013-05-05T12:54:42Z</time>
      </trkpt>
      <trkpt lat="46.010530041530728" lon="9.290528716519475">
        <ele>383.22000000000003</ele>
        <time>2013-05-05T12:54:54Z</time>
      </trkpt>
      <trkpt lat="46.010553007945418" lon="9.290498374029994">
        <ele>379.86000000000001</ele>
        <time>2013-05-05T12:54:57Z</time>
      </trkpt>
      <trkpt lat="46.010560803115368" lon="9.290489489212632">
        <ele>379.86000000000001</ele>
        <time>2013-05-05T12:54:58Z</time>
      </trkpt>
      <trkpt lat="46.010613357648253" lon="9.290328808128834">
        <ele>376.97000000000003</ele>
        <time>2013-05-05T12:55:13Z</time>
      </trkpt>
      <trkpt lat="46.010620146989822" lon="9.29024406708777">
        <ele>376.00999999999999</ele>
        <time>2013-05-05T12:55:20Z</time>
      </trkpt>
      <trkpt lat="46.010627103969455" lon="9.290103502571583">
        <ele>375.52999999999997</ele>
        <time>2013-05-05T12:55:33Z</time>
      </trkpt>
      <trkpt lat="46.010644873604178" lon="9.29005010984838">
        <ele>375.05000000000001</ele>
        <time>2013-05-05T12:55:38Z</time>
      </trkpt>
      <trkpt lat="46.010694410651922" lon="9.289881298318505">
        <ele>372.17000000000002</ele>
        <time>2013-05-05T12:55:52Z</time>
      </trkpt>
      <trkpt lat="46.010712599381804" lon="9.289787421002984">
        <ele>370.24000000000001</ele>
        <time>2013-05-05T12:56:00Z</time>
      </trkpt>
      <trkpt lat="46.010804967954755" lon="9.289586674422026">
        <ele>367.36000000000001</ele>
        <time>2013-05-05T12:56:17Z</time>
      </trkpt>
      <trkpt lat="46.010879818350077" lon="9.289475027471781">
        <ele>366.88</ele>
        <time>2013-05-05T12:56:26Z</time>
      </trkpt>
      <trkpt lat="46.010981323197484" lon="9.289254499599338">
        <ele>365.44</ele>
        <time>2013-05-05T12:56:44Z</time>
      </trkpt>
      <trkpt lat="46.010968331247568" lon="9.289199011400342">
        <ele>364.95999999999998</ele>
        <time>2013-05-05T12:56:57Z</time>
      </trkpt>
      <trkpt lat="46.011016611009836" lon="9.289168082177639">
        <ele>363.04000000000002</ele>
        <time>2013-05-05T12:57:16Z</time>
      </trkpt>
      <trkpt lat="46.011098921298981" lon="9.289092645049095">
        <ele>363.04000000000002</ele>
        <time>2013-05-05T12:57:26Z</time>
      </trkpt>
      <trkpt lat="46.011122558265924" lon="9.289026847109199">
        <ele>363.04000000000002</ele>
        <time>2013-05-05T12:57:33Z</time>
      </trkpt>
      <trkpt lat="46.011171424761415" lon="9.288864824920893">
        <ele>364</ele>
        <time>2013-05-05T12:57:49Z</time>
      </trkpt>
      <trkpt lat="46.011222135275602" lon="9.288785280659795">
        <ele>365.44</ele>
        <time>2013-05-05T12:57:58Z</time>
      </trkpt>
      <trkpt lat="46.011315761134028" lon="9.288657288998365">
        <ele>366.88</ele>
        <time>2013-05-05T12:58:11Z</time>
      </trkpt>
      <trkpt lat="46.011310899630189" lon="9.28864236921072">
        <ele>367.36000000000001</ele>
        <time>2013-05-05T12:58:13Z</time>
      </trkpt>
      <trkpt lat="46.011153487488627" lon="9.288536673411727">
        <ele>367.83999999999997</ele>
        <time>2013-05-05T12:58:29Z</time>
      </trkpt>
      <trkpt lat="46.011162372305989" lon="9.288469450548291">
        <ele>367.83999999999997</ele>
        <time>2013-05-05T12:58:33Z</time>
      </trkpt>
      <trkpt lat="46.011163042858243" lon="9.288410609588027">
        <ele>368.31999999999999</ele>
        <time>2013-05-05T12:58:37Z</time>
      </trkpt>
      <trkpt lat="46.011126330122352" lon="9.288348248228431">
        <ele>367.83999999999997</ele>
        <time>2013-05-05T12:58:51Z</time>
      </trkpt>
      <trkpt lat="46.011119373142719" lon="9.288418237119913">
        <ele>367.83999999999997</ele>
        <time>2013-05-05T12:59:06Z</time>
      </trkpt>
      <trkpt lat="46.01112917996943" lon="9.288450507447124">
        <ele>367.83999999999997</ele>
        <time>2013-05-05T12:59:31Z</time>
      </trkpt>
      <trkpt lat="46.011134041473269" lon="9.288367442786694">
        <ele>367.83999999999997</ele>
        <time>2013-05-05T12:59:45Z</time>
      </trkpt>
      <trkpt lat="46.011141669005156" lon="9.288341291248798">
        <ele>366.88</ele>
        <time>2013-05-05T13:00:00Z</time>
      </trkpt>
      <trkpt lat="46.011176621541381" lon="9.288315810263157">
        <ele>366.88</ele>
        <time>2013-05-05T13:00:25Z</time>
      </trkpt>
      <trkpt lat="46.011210568249226" lon="9.288326790556312">
        <ele>366.88</ele>
        <time>2013-05-05T13:00:48Z</time>
      </trkpt>
      <trkpt lat="46.011188859120011" lon="9.288359228521586">
        <ele>367.83999999999997</ele>
        <time>2013-05-05T13:00:57Z</time>
      </trkpt>
      <trkpt lat="46.011167569085956" lon="9.288341710343957">
        <ele>367.83999999999997</ele>
        <time>2013-05-05T13:01:14Z</time>
      </trkpt>
      <trkpt lat="46.011111829429865" lon="9.288365682587028">
        <ele>368.31999999999999</ele>
        <time>2013-05-05T13:01:27Z</time>
      </trkpt>
      <trkpt lat="46.011041840538383" lon="9.288327125832439">
        <ele>370.73000000000002</ele>
        <time>2013-05-05T13:01:40Z</time>
      </trkpt>
      <trkpt lat="46.011072685942054" lon="9.288294604048133">
        <ele>372.17000000000002</ele>
        <time>2013-05-05T13:01:52Z</time>
      </trkpt>
      <trkpt lat="46.011024992913008" lon="9.288302063941956">
        <ele>372.17000000000002</ele>
        <time>2013-05-05T13:02:07Z</time>
      </trkpt>
      <trkpt lat="46.011024322360754" lon="9.288293682038784">
        <ele>372.64999999999998</ele>
        <time>2013-05-05T13:02:08Z</time>
      </trkpt>
      <trkpt lat="46.01102264598012" lon="9.288171222433448">
        <ele>373.13</ele>
        <time>2013-05-05T13:02:18Z</time>
      </trkpt>
      <trkpt lat="46.011037984862924" lon="9.288013055920601">
        <ele>375.52999999999997</ele>
        <time>2013-05-05T13:02:33Z</time>
      </trkpt>
      <trkpt lat="46.011050222441554" lon="9.287972990423441">
        <ele>376.00999999999999</ele>
        <time>2013-05-05T13:02:37Z</time>
      </trkpt>
      <trkpt lat="46.011062124744058" lon="9.287807028740645">
        <ele>377.44999999999999</ele>
        <time>2013-05-05T13:02:50Z</time>
      </trkpt>
      <trkpt lat="46.011039912700653" lon="9.28771541453898">
        <ele>380.33999999999997</ele>
        <time>2013-05-05T13:03:04Z</time>
      </trkpt>
      <trkpt lat="46.011046366766095" lon="9.287556326016784">
        <ele>382.25999999999999</ele>
        <time>2013-05-05T13:03:16Z</time>
      </trkpt>
      <trkpt lat="46.011045947670937" lon="9.287372846156359">
        <ele>382.74000000000001</ele>
        <time>2013-05-05T13:03:30Z</time>
      </trkpt>
      <trkpt lat="46.011038571596146" lon="9.287318447604775">
        <ele>383.22000000000003</ele>
        <time>2013-05-05T13:03:34Z</time>
      </trkpt>
      <trkpt lat="46.011024657636881" lon="9.287160700187087">
        <ele>383.69999999999999</ele>
        <time>2013-05-05T13:03:46Z</time>
      </trkpt>
      <trkpt lat="46.010967744514346" lon="9.28707436658442">
        <ele>383.69999999999999</ele>
        <time>2013-05-05T13:03:57Z</time>
      </trkpt>
      <trkpt lat="46.010951651260257" lon="9.287026422098279">
        <ele>384.18000000000001</ele>
        <time>2013-05-05T13:04:15Z</time>
      </trkpt>
      <trkpt lat="46.010915525257587" lon="9.286998426541686">
        <ele>383.69999999999999</ele>
        <time>2013-05-05T13:04:34Z</time>
      </trkpt>
      <trkpt lat="46.010919380933046" lon="9.286979315802455">
        <ele>384.18000000000001</ele>
        <time>2013-05-05T13:04:36Z</time>
      </trkpt>
      <trkpt lat="46.010947292670608" lon="9.286876386031508">
        <ele>383.69999999999999</ele>
        <time>2013-05-05T13:04:51Z</time>
      </trkpt>
      <trkpt lat="46.010943856090307" lon="9.286916870623827">
        <ele>384.18000000000001</ele>
        <time>2013-05-05T13:05:12Z</time>
      </trkpt>
      <trkpt lat="46.01094301789999" lon="9.286883594468236">
        <ele>384.18000000000001</ele>
        <time>2013-05-05T13:05:27Z</time>
      </trkpt>
      <trkpt lat="46.010944191366434" lon="9.286980908364058">
        <ele>383.69999999999999</ele>
        <time>2013-05-05T13:05:44Z</time>
      </trkpt>
      <trkpt lat="46.010937737300992" lon="9.287006054073572">
        <ele>384.18000000000001</ele>
        <time>2013-05-05T13:06:03Z</time>
      </trkpt>
      <trkpt lat="46.01093664765358" lon="9.287027847021818">
        <ele>383.69999999999999</ele>
        <time>2013-05-05T13:06:22Z</time>
      </trkpt>
      <trkpt lat="46.010927092283964" lon="9.287039414048195">
        <ele>383.69999999999999</ele>
        <time>2013-05-05T13:06:44Z</time>
      </trkpt>
      <trkpt lat="46.0109200514853" lon="9.287035558372736">
        <ele>383.69999999999999</ele>
        <time>2013-05-05T13:07:00Z</time>
      </trkpt>
      <trkpt lat="46.010943688452244" lon="9.287031451240182">
        <ele>382.74000000000001</ele>
        <time>2013-05-05T13:07:20Z</time>
      </trkpt>
      <trkpt lat="46.010960703715682" lon="9.287049807608128">
        <ele>383.22000000000003</ele>
        <time>2013-05-05T13:07:37Z</time>
      </trkpt>
      <trkpt lat="46.010997500270605" lon="9.287029104307294">
        <ele>383.22000000000003</ele>
        <time>2013-05-05T13:08:04Z</time>
      </trkpt>
      <trkpt lat="46.010975707322359" lon="9.287026841193438">
        <ele>383.22000000000003</ele>
        <time>2013-05-05T13:08:21Z</time>
      </trkpt>
      <trkpt lat="46.010968163609505" lon="9.287038911134005">
        <ele>382.74000000000001</ele>
        <time>2013-05-05T13:08:41Z</time>
      </trkpt>
      <trkpt lat="46.010933965444565" lon="9.286982584744692">
        <ele>383.22000000000003</ele>
        <time>2013-05-05T13:08:55Z</time>
      </trkpt>
      <trkpt lat="46.010950561612844" lon="9.286891222000122">
        <ele>383.22000000000003</ele>
        <time>2013-05-05T13:09:10Z</time>
      </trkpt>
      <trkpt lat="46.010934468358755" lon="9.286775970831513">
        <ele>384.18000000000001</ele>
        <time>2013-05-05T13:09:23Z</time>
      </trkpt>
      <trkpt lat="46.010915776714683" lon="9.286701874807477">
        <ele>383.69999999999999</ele>
        <time>2013-05-05T13:09:29Z</time>
      </trkpt>
      <trkpt lat="46.010907478630543" lon="9.286682512611151">
        <ele>383.69999999999999</ele>
        <time>2013-05-05T13:09:31Z</time>
      </trkpt>
      <trkpt lat="46.010862132534385" lon="9.286433905363083">
        <ele>385.14999999999998</ele>
        <time>2013-05-05T13:09:48Z</time>
      </trkpt>
      <trkpt lat="46.010854840278625" lon="9.286404820159078">
        <ele>384.66000000000003</ele>
        <time>2013-05-05T13:09:50Z</time>
      </trkpt>
      <trkpt lat="46.010862719267607" lon="9.286256209015846">
        <ele>385.63</ele>
        <time>2013-05-05T13:10:04Z</time>
      </trkpt>
      <trkpt lat="46.010825000703335" lon="9.286162247881293">
        <ele>385.63</ele>
        <time>2013-05-05T13:10:17Z</time>
      </trkpt>
      <trkpt lat="46.010835142806172" lon="9.286111202090979">
        <ele>385.14999999999998</ele>
        <time>2013-05-05T13:10:31Z</time>
      </trkpt>
      <trkpt lat="46.010840842500329" lon="9.286082200706005">
        <ele>385.14999999999998</ele>
        <time>2013-05-05T13:10:47Z</time>
      </trkpt>
      <trkpt lat="46.010831370949745" lon="9.28615621291101">
        <ele>385.14999999999998</ele>
        <time>2013-05-05T13:11:02Z</time>
      </trkpt>
      <trkpt lat="46.010821312665939" lon="9.286148753017187">
        <ele>385.63</ele>
        <time>2013-05-05T13:11:13Z</time>
      </trkpt>
      <trkpt lat="46.010821899399161" lon="9.286176329478622">
        <ele>385.63</ele>
        <time>2013-05-05T13:11:31Z</time>
      </trkpt>
      <trkpt lat="46.010789796710014" lon="9.286273727193475">
        <ele>387.55000000000001</ele>
        <time>2013-05-05T13:11:44Z</time>
      </trkpt>
      <trkpt lat="46.010746797546744" lon="9.28638000972569">
        <ele>389.47000000000003</ele>
        <time>2013-05-05T13:11:57Z</time>
      </trkpt>
      <trkpt lat="46.010711761191487" lon="9.286400461569428">
        <ele>388.99000000000001</ele>
        <time>2013-05-05T13:12:10Z</time>
      </trkpt>
      <trkpt lat="46.010701451450586" lon="9.286433318629861">
        <ele>389.47000000000003</ele>
        <time>2013-05-05T13:12:38Z</time>
      </trkpt>
      <trkpt lat="46.010704217478633" lon="9.286397360265255">
        <ele>389.47000000000003</ele>
        <time>2013-05-05T13:12:55Z</time>
      </trkpt>
      <trkpt lat="46.010689968243241" lon="9.286406664177775">
        <ele>389.47000000000003</ele>
        <time>2013-05-05T13:13:21Z</time>
      </trkpt>
      <trkpt lat="46.010720562189817" lon="9.286389984190464">
        <ele>388.99000000000001</ele>
        <time>2013-05-05T13:13:44Z</time>
      </trkpt>
      <trkpt lat="46.010736403986812" lon="9.286451088264585">
        <ele>388.99000000000001</ele>
        <time>2013-05-05T13:13:58Z</time>
      </trkpt>
      <trkpt lat="46.010727435350418" lon="9.286540104076266">
        <ele>389.47000000000003</ele>
        <time>2013-05-05T13:14:08Z</time>
      </trkpt>
      <trkpt lat="46.010727435350418" lon="9.286533901467919">
        <ele>389.94999999999999</ele>
        <time>2013-05-05T13:14:20Z</time>
      </trkpt>
      <trkpt lat="46.010709078982472" lon="9.286503894254565">
        <ele>389.47000000000003</ele>
        <time>2013-05-05T13:14:29Z</time>
      </trkpt>
      <trkpt lat="46.010654093697667" lon="9.286509342491627">
        <ele>389.47000000000003</ele>
        <time>2013-05-05T13:14:43Z</time>
      </trkpt>
      <trkpt lat="46.01066205650568" lon="9.286605147644877">
        <ele>390.91000000000003</ele>
        <time>2013-05-05T13:14:55Z</time>
      </trkpt>
      <trkpt lat="46.01075392216444" lon="9.286644877865911">
        <ele>390.91000000000003</ele>
        <time>2013-05-05T13:15:07Z</time>
      </trkpt>
      <trkpt lat="46.010748306289315" lon="9.286713441833854">
        <ele>391.38999999999999</ele>
        <time>2013-05-05T13:15:27Z</time>
      </trkpt>
      <trkpt lat="46.010678568854928" lon="9.286713860929012">
        <ele>391.38999999999999</ele>
        <time>2013-05-05T13:15:38Z</time>
      </trkpt>
      <trkpt lat="46.010678485035896" lon="9.286674549803138">
        <ele>390.91000000000003</ele>
        <time>2013-05-05T13:15:49Z</time>
      </trkpt>
      <trkpt lat="46.010732715949416" lon="9.286607159301639">
        <ele>393.80000000000001</ele>
        <time>2013-05-05T13:16:03Z</time>
      </trkpt>
      <trkpt lat="46.01072215475142" lon="9.286646638065577">
        <ele>393.80000000000001</ele>
        <time>2013-05-05T13:16:09Z</time>
      </trkpt>
      <trkpt lat="46.01062249392271" lon="9.286739509552717">
        <ele>394.27999999999997</ele>
        <time>2013-05-05T13:16:22Z</time>
      </trkpt>
      <trkpt lat="46.010396098718047" lon="9.28678167052567">
        <ele>397.16000000000003</ele>
        <time>2013-05-05T13:16:43Z</time>
      </trkpt>
      <trkpt lat="46.010600030422211" lon="9.286698773503304">
        <ele>398.60000000000002</ele>
        <time>2013-05-05T13:17:03Z</time>
      </trkpt>
      <trkpt lat="46.010702792555094" lon="9.28668930195272">
        <ele>400.52999999999997</ele>
        <time>2013-05-05T13:17:23Z</time>
      </trkpt>
      <trkpt lat="46.010706396773458" lon="9.286699611693621">
        <ele>403.88999999999999</ele>
        <time>2013-05-05T13:17:43Z</time>
      </trkpt>
      <trkpt lat="46.010699355974793" lon="9.286698773503304">
        <ele>407.25999999999999</ele>
        <time>2013-05-05T13:18:00Z</time>
      </trkpt>
      <trkpt lat="46.0106938239187" lon="9.286742024123669">
        <ele>406.76999999999998</ele>
        <time>2013-05-05T13:18:14Z</time>
      </trkpt>
      <trkpt lat="46.010662475600839" lon="9.286676896736026">
        <ele>406.29000000000002</ele>
        <time>2013-05-05T13:18:27Z</time>
      </trkpt>
      <trkpt lat="46.010699523612857" lon="9.286679411306977">
        <ele>406.76999999999998</ele>
        <time>2013-05-05T13:18:39Z</time>
      </trkpt>
      <trkpt lat="46.010685861110687" lon="9.286708747968078">
        <ele>406.76999999999998</ele>
        <time>2013-05-05T13:18:59Z</time>
      </trkpt>
      <trkpt lat="46.010694494470954" lon="9.286726517602801">
        <ele>406.76999999999998</ele>
        <time>2013-05-05T13:19:13Z</time>
      </trkpt>
      <trkpt lat="46.010705893859267" lon="9.286686284467578">
        <ele>407.25999999999999</ele>
        <time>2013-05-05T13:19:28Z</time>
      </trkpt>
      <trkpt lat="46.010693991556764" lon="9.286685446277261">
        <ele>406.76999999999998</ele>
        <time>2013-05-05T13:19:49Z</time>
      </trkpt>
      <trkpt lat="46.010707318782806" lon="9.286674214527011">
        <ele>406.29000000000002</ele>
        <time>2013-05-05T13:20:02Z</time>
      </trkpt>
      <trkpt lat="46.010702708736062" lon="9.286694079637528">
        <ele>406.76999999999998</ele>
        <time>2013-05-05T13:20:16Z</time>
      </trkpt>
      <trkpt lat="46.010723160579801" lon="9.286715788766742">
        <ele>406.76999999999998</ele>
        <time>2013-05-05T13:20:30Z</time>
      </trkpt>
      <trkpt lat="46.010697847232223" lon="9.286720817908645">
        <ele>405.32999999999998</ele>
        <time>2013-05-05T13:20:48Z</time>
      </trkpt>
      <trkpt lat="46.010680915787816" lon="9.286705227568746">
        <ele>406.76999999999998</ele>
        <time>2013-05-05T13:21:03Z</time>
      </trkpt>
      <trkpt lat="46.010712515562773" lon="9.286697180941701">
        <ele>406.29000000000002</ele>
        <time>2013-05-05T13:21:21Z</time>
      </trkpt>
      <trkpt lat="46.010700026527047" lon="9.286716040223837">
        <ele>404.37</ele>
        <time>2013-05-05T13:21:35Z</time>
      </trkpt>
      <trkpt lat="46.010680999606848" lon="9.286642111837864">
        <ele>402.93000000000001</ele>
        <time>2013-05-05T13:22:00Z</time>
      </trkpt>
      <trkpt lat="46.010697260499001" lon="9.286685697734356">
        <ele>400.52999999999997</ele>
        <time>2013-05-05T13:22:15Z</time>
      </trkpt>
      <trkpt lat="46.010680245235562" lon="9.286574553698301">
        <ele>398.60000000000002</ele>
        <time>2013-05-05T13:22:39Z</time>
      </trkpt>
      <trkpt lat="46.010644789785147" lon="9.286636495962739">
        <ele>399.07999999999998</ele>
        <time>2013-05-05T13:22:59Z</time>
      </trkpt>
      <trkpt lat="46.010602796450257" lon="9.286796003580093">
        <ele>396.19999999999999</ele>
        <time>2013-05-05T13:23:17Z</time>
      </trkpt>
      <trkpt lat="46.010692315176129" lon="9.286678740754724">
        <ele>392.83999999999997</ele>
        <time>2013-05-05T13:23:35Z</time>
      </trkpt>
      <trkpt lat="46.010661050677299" lon="9.286649152636528">
        <ele>392.36000000000001</ele>
        <time>2013-05-05T13:23:47Z</time>
      </trkpt>
      <trkpt lat="46.010680748149753" lon="9.28660380654037">
        <ele>392.83999999999997</ele>
        <time>2013-05-05T13:23:49Z</time>
      </trkpt>
      <trkpt lat="46.010693404823542" lon="9.286601878702641">
        <ele>392.36000000000001</ele>
        <time>2013-05-05T13:24:04Z</time>
      </trkpt>
      <trkpt lat="46.010640095919371" lon="9.286642195656896">
        <ele>388.99000000000001</ele>
        <time>2013-05-05T13:24:14Z</time>
      </trkpt>
      <trkpt lat="46.01064738817513" lon="9.286714615300298">
        <ele>389.47000000000003</ele>
        <time>2013-05-05T13:24:21Z</time>
      </trkpt>
      <trkpt lat="46.010649483650923" lon="9.286814779043198">
        <ele>389.47000000000003</ele>
        <time>2013-05-05T13:24:33Z</time>
      </trkpt>
      <trkpt lat="46.010665241628885" lon="9.286793572828174">
        <ele>391.38999999999999</ele>
        <time>2013-05-05T13:24:44Z</time>
      </trkpt>
      <trkpt lat="46.010621571913362" lon="9.286762811243534">
        <ele>393.80000000000001</ele>
        <time>2013-05-05T13:25:05Z</time>
      </trkpt>
      <trkpt lat="46.010624505579472" lon="9.286818383261561">
        <ele>394.27999999999997</ele>
        <time>2013-05-05T13:25:20Z</time>
      </trkpt>
      <trkpt lat="46.010597012937069" lon="9.286797596141696">
        <ele>393.80000000000001</ele>
        <time>2013-05-05T13:25:42Z</time>
      </trkpt>
      <trkpt lat="46.01058142259717" lon="9.28680757060647">
        <ele>393.80000000000001</ele>
        <time>2013-05-05T13:26:01Z</time>
      </trkpt>
      <trkpt lat="46.01058779284358" lon="9.286784436553717">
        <ele>393.80000000000001</ele>
        <time>2013-05-05T13:26:23Z</time>
      </trkpt>
      <trkpt lat="46.010634480044246" lon="9.286749064922333">
        <ele>390.91000000000003</ele>
        <time>2013-05-05T13:26:37Z</time>
      </trkpt>
      <trkpt lat="46.010614028200507" lon="9.286723583936691">
        <ele>388.99000000000001</ele>
        <time>2013-05-05T13:26:49Z</time>
      </trkpt>
      <trkpt lat="46.010617800056934" lon="9.286716794595122">
        <ele>388.50999999999999</ele>
        <time>2013-05-05T13:26:50Z</time>
      </trkpt>
      <trkpt lat="46.010637665167451" lon="9.286630796268582">
        <ele>388.99000000000001</ele>
        <time>2013-05-05T13:27:04Z</time>
      </trkpt>
      <trkpt lat="46.010622158646584" lon="9.28656323812902">
        <ele>388.02999999999997</ele>
        <time>2013-05-05T13:27:18Z</time>
      </trkpt>
      <trkpt lat="46.010585110634565" lon="9.286555191501975">
        <ele>386.58999999999997</ele>
        <time>2013-05-05T13:27:33Z</time>
      </trkpt>
      <trkpt lat="46.010592151433229" lon="9.286561142653227">
        <ele>386.11000000000001</ele>
        <time>2013-05-05T13:27:41Z</time>
      </trkpt>
      <trkpt lat="46.010532723739743" lon="9.286490231752396">
        <ele>386.11000000000001</ele>
        <time>2013-05-05T13:27:53Z</time>
      </trkpt>
      <trkpt lat="46.010534735396504" lon="9.286433653905988">
        <ele>386.58999999999997</ele>
        <time>2013-05-05T13:28:02Z</time>
      </trkpt>
      <trkpt lat="46.010565245524049" lon="9.286373471841216">
        <ele>386.11000000000001</ele>
        <time>2013-05-05T13:28:18Z</time>
      </trkpt>
      <trkpt lat="46.010609501972795" lon="9.286315971985459">
        <ele>386.11000000000001</ele>
        <time>2013-05-05T13:28:38Z</time>
      </trkpt>
      <trkpt lat="46.010641939938068" lon="9.286310020834208">
        <ele>386.11000000000001</ele>
        <time>2013-05-05T13:28:56Z</time>
      </trkpt>
      <trkpt lat="46.010669684037566" lon="9.286365006119013">
        <ele>386.11000000000001</ele>
        <time>2013-05-05T13:29:12Z</time>
      </trkpt>
      <trkpt lat="46.010692231357098" lon="9.286369951441884">
        <ele>386.11000000000001</ele>
        <time>2013-05-05T13:29:30Z</time>
      </trkpt>
      <trkpt lat="46.010720813646913" lon="9.286363916471601">
        <ele>386.58999999999997</ele>
        <time>2013-05-05T13:29:47Z</time>
      </trkpt>
      <trkpt lat="46.0107197239995" lon="9.286396438255906">
        <ele>385.63</ele>
        <time>2013-05-05T13:30:06Z</time>
      </trkpt>
      <trkpt lat="46.010754257440567" lon="9.286303399130702">
        <ele>385.63</ele>
        <time>2013-05-05T13:30:22Z</time>
      </trkpt>
      <trkpt lat="46.010763058438897" lon="9.286274062469602">
        <ele>384.66000000000003</ele>
        <time>2013-05-05T13:30:25Z</time>
      </trkpt>
      <trkpt lat="46.010777726769447" lon="9.286234751343727">
        <ele>383.69999999999999</ele>
        <time>2013-05-05T13:30:28Z</time>
      </trkpt>
      <trkpt lat="46.010792143642902" lon="9.286175407469273">
        <ele>383.22000000000003</ele>
        <time>2013-05-05T13:30:33Z</time>
      </trkpt>
      <trkpt lat="46.010782420635223" lon="9.286060994490981">
        <ele>381.30000000000001</ele>
        <time>2013-05-05T13:30:48Z</time>
      </trkpt>
      <trkpt lat="46.010788539424539" lon="9.286070382222533">
        <ele>381.30000000000001</ele>
        <time>2013-05-05T13:31:15Z</time>
      </trkpt>
      <trkpt lat="46.010818714275956" lon="9.286054540425539">
        <ele>381.77999999999997</ele>
        <time>2013-05-05T13:31:36Z</time>
      </trkpt>
      <trkpt lat="46.010822402313352" lon="9.28603358566761">
        <ele>381.77999999999997</ele>
        <time>2013-05-05T13:31:53Z</time>
      </trkpt>
      <trkpt lat="46.010786863043904" lon="9.286083457991481">
        <ele>380.81999999999999</ele>
        <time>2013-05-05T13:32:03Z</time>
      </trkpt>
      <trkpt lat="46.010768422856927" lon="9.286103574559093">
        <ele>379.86000000000001</ele>
        <time>2013-05-05T13:32:07Z</time>
      </trkpt>
      <trkpt lat="46.010740427300334" lon="9.286096366122365">
        <ele>378.89999999999998</ele>
        <time>2013-05-05T13:32:10Z</time>
      </trkpt>
      <trkpt lat="46.010760376229882" lon="9.285998716950417">
        <ele>376.49000000000001</ele>
        <time>2013-05-05T13:32:18Z</time>
      </trkpt>
      <trkpt lat="46.010745456442237" lon="9.28600718267262">
        <ele>376.49000000000001</ele>
        <time>2013-05-05T13:32:31Z</time>
      </trkpt>
      <trkpt lat="46.010744534432888" lon="9.286008272320032">
        <ele>375.05000000000001</ele>
        <time>2013-05-05T13:32:45Z</time>
      </trkpt>
      <trkpt lat="46.010752581059933" lon="9.286043643951416">
        <ele>376.49000000000001</ele>
        <time>2013-05-05T13:32:50Z</time>
      </trkpt>
      <trkpt lat="46.01069332100451" lon="9.286086140200496">
        <ele>376.00999999999999</ele>
        <time>2013-05-05T13:33:06Z</time>
      </trkpt>
      <trkpt lat="46.010624505579472" lon="9.286140454933047">
        <ele>373.13</ele>
        <time>2013-05-05T13:33:20Z</time>
      </trkpt>
      <trkpt lat="46.010585781186819" lon="9.286168115213513">
        <ele>370.73000000000002</ele>
        <time>2013-05-05T13:33:26Z</time>
      </trkpt>
      <trkpt lat="46.010508164763451" lon="9.286223351955414">
        <ele>367.36000000000001</ele>
        <time>2013-05-05T13:33:38Z</time>
      </trkpt>
      <trkpt lat="46.010682927444577" lon="9.286042554304004">
        <ele>376.49000000000001</ele>
        <time>2013-05-05T13:35:39Z</time>
      </trkpt>
      <trkpt lat="46.010725507512689" lon="9.28605261258781">
        <ele>376.97000000000003</ele>
        <time>2013-05-05T13:35:44Z</time>
      </trkpt>
      <trkpt lat="46.010764064267278" lon="9.286041548475623">
        <ele>377.44999999999999</ele>
        <time>2013-05-05T13:35:58Z</time>
      </trkpt>
      <trkpt lat="46.010764483362436" lon="9.286084463819861">
        <ele>379.38</ele>
        <time>2013-05-05T13:36:10Z</time>
      </trkpt>
      <trkpt lat="46.010822569951415" lon="9.286048673093319">
        <ele>381.30000000000001</ele>
        <time>2013-05-05T13:36:23Z</time>
      </trkpt>
      <trkpt lat="46.010835645720363" lon="9.286117991432548">
        <ele>381.77999999999997</ele>
        <time>2013-05-05T13:36:37Z</time>
      </trkpt>
      <trkpt lat="46.010824413970113" lon="9.286158978939056">
        <ele>381.77999999999997</ele>
        <time>2013-05-05T13:36:47Z</time>
      </trkpt>
      <trkpt lat="46.010839836671948" lon="9.286193177103996">
        <ele>381.30000000000001</ele>
        <time>2013-05-05T13:37:08Z</time>
      </trkpt>
      <trkpt lat="46.010843021795154" lon="9.286231147125363">
        <ele>381.30000000000001</ele>
        <time>2013-05-05T13:37:11Z</time>
      </trkpt>
      <trkpt lat="46.010865066200495" lon="9.286349080502987">
        <ele>381.30000000000001</ele>
        <time>2013-05-05T13:37:25Z</time>
      </trkpt>
      <trkpt lat="46.010881243273616" lon="9.286446059122682">
        <ele>380.81999999999999</ele>
        <time>2013-05-05T13:37:33Z</time>
      </trkpt>
      <trkpt lat="46.010926757007837" lon="9.286617720499635">
        <ele>380.81999999999999</ele>
        <time>2013-05-05T13:37:46Z</time>
      </trkpt>
      <trkpt lat="46.010946957394481" lon="9.286792566999793">
        <ele>379.86000000000001</ele>
        <time>2013-05-05T13:38:00Z</time>
      </trkpt>
      <trkpt lat="46.010966738685966" lon="9.286956768482924">
        <ele>379.86000000000001</ele>
        <time>2013-05-05T13:38:13Z</time>
      </trkpt>
      <trkpt lat="46.010952405631542" lon="9.286977220326662">
        <ele>379.38</ele>
        <time>2013-05-05T13:38:27Z</time>
      </trkpt>
      <trkpt lat="46.010904964059591" lon="9.287004293873906">
        <ele>378.42000000000002</ele>
        <time>2013-05-05T13:38:51Z</time>
      </trkpt>
      <trkpt lat="46.010953914374113" lon="9.287074701860547">
        <ele>378.42000000000002</ele>
        <time>2013-05-05T13:39:35Z</time>
      </trkpt>
      <trkpt lat="46.010918626561761" lon="9.287036480382085">
        <ele>378.42000000000002</ele>
        <time>2013-05-05T13:40:20Z</time>
      </trkpt>
      <trkpt lat="46.010904796421528" lon="9.287023320794106">
        <ele>377.94</ele>
        <time>2013-05-05T13:40:51Z</time>
      </trkpt>
      <trkpt lat="46.010926924645901" lon="9.286990379914641">
        <ele>377.94</ele>
        <time>2013-05-05T13:41:28Z</time>
      </trkpt>
      <trkpt lat="46.010902365669608" lon="9.286963138729334">
        <ele>378.42000000000002</ele>
        <time>2013-05-05T13:42:02Z</time>
      </trkpt>
      <trkpt lat="46.010888954624534" lon="9.286974957212806">
        <ele>378.42000000000002</ele>
        <time>2013-05-05T13:42:26Z</time>
      </trkpt>
      <trkpt lat="46.010916782543063" lon="9.287043772637844">
        <ele>378.42000000000002</ele>
        <time>2013-05-05T13:42:58Z</time>
      </trkpt>
      <trkpt lat="46.010912843048573" lon="9.287074198946357">
        <ele>378.42000000000002</ele>
        <time>2013-05-05T13:43:29Z</time>
      </trkpt>
      <trkpt lat="46.010935055091977" lon="9.287091381847858">
        <ele>378.42000000000002</ele>
        <time>2013-05-05T13:44:07Z</time>
      </trkpt>
      <trkpt lat="46.010918626561761" lon="9.287077719345689">
        <ele>378.89999999999998</ele>
        <time>2013-05-05T13:44:38Z</time>
      </trkpt>
      <trkpt lat="46.010918710380793" lon="9.287064475938678">
        <ele>378.89999999999998</ele>
        <time>2013-05-05T13:45:09Z</time>
      </trkpt>
      <trkpt lat="46.010896833613515" lon="9.287068750709295">
        <ele>379.38</ele>
        <time>2013-05-05T13:45:46Z</time>
      </trkpt>
      <trkpt lat="46.010888870805502" lon="9.287062715739012">
        <ele>378.89999999999998</ele>
        <time>2013-05-05T13:46:08Z</time>
      </trkpt>
      <trkpt lat="46.010899599641562" lon="9.287030948325992">
        <ele>378.89999999999998</ele>
        <time>2013-05-05T13:46:43Z</time>
      </trkpt>
      <trkpt lat="46.010926757007837" lon="9.287039833143354">
        <ele>379.38</ele>
        <time>2013-05-05T13:47:09Z</time>
      </trkpt>
      <trkpt lat="46.010910328477621" lon="9.287054166197777">
        <ele>379.38</ele>
        <time>2013-05-05T13:47:39Z</time>
      </trkpt>
      <trkpt lat="46.010935641825199" lon="9.287083502858877">
        <ele>379.86000000000001</ele>
        <time>2013-05-05T13:48:13Z</time>
      </trkpt>
      <trkpt lat="46.010979143902659" lon="9.287059111520648">
        <ele>379.86000000000001</ele>
        <time>2013-05-05T13:48:45Z</time>
      </trkpt>
      <trkpt lat="46.01099724881351" lon="9.287018124014139">
        <ele>379.86000000000001</ele>
        <time>2013-05-05T13:49:23Z</time>
      </trkpt>
      <trkpt lat="46.010954668745399" lon="9.287049723789096">
        <ele>379.86000000000001</ele>
        <time>2013-05-05T13:50:01Z</time>
      </trkpt>
      <trkpt lat="46.010938659310341" lon="9.287013513967395">
        <ele>380.33999999999997</ele>
        <time>2013-05-05T13:50:19Z</time>
      </trkpt>
      <trkpt lat="46.010954082012177" lon="9.287027763202786">
        <ele>380.81999999999999</ele>
        <time>2013-05-05T13:50:30Z</time>
      </trkpt>
      <trkpt lat="46.010918123647571" lon="9.287045616656542">
        <ele>381.30000000000001</ele>
        <time>2013-05-05T13:50:45Z</time>
      </trkpt>
      <trkpt lat="46.010902784764767" lon="9.287081239745021">
        <ele>381.30000000000001</ele>
        <time>2013-05-05T13:51:06Z</time>
      </trkpt>
      <trkpt lat="46.010935055091977" lon="9.287031786516309">
        <ele>381.30000000000001</ele>
        <time>2013-05-05T13:51:22Z</time>
      </trkpt>
      <trkpt lat="46.010938407853246" lon="9.286990212276578">
        <ele>381.30000000000001</ele>
        <time>2013-05-05T13:51:50Z</time>
      </trkpt>
      <trkpt lat="46.010909574106336" lon="9.286946961656213">
        <ele>381.30000000000001</ele>
        <time>2013-05-05T13:52:05Z</time>
      </trkpt>
      <trkpt lat="46.010890798643231" lon="9.28690530359745">
        <ele>381.30000000000001</ele>
        <time>2013-05-05T13:52:25Z</time>
      </trkpt>
      <trkpt lat="46.01088828407228" lon="9.2869130987674">
        <ele>381.30000000000001</ele>
        <time>2013-05-05T13:52:44Z</time>
      </trkpt>
      <trkpt lat="46.010900856927037" lon="9.286921061575413">
        <ele>380.81999999999999</ele>
        <time>2013-05-05T13:53:00Z</time>
      </trkpt>
      <trkpt lat="46.010922566056252" lon="9.286947967484593">
        <ele>380.81999999999999</ele>
        <time>2013-05-05T13:53:20Z</time>
      </trkpt>
      <trkpt lat="46.01093128323555" lon="9.28697956725955">
        <ele>380.81999999999999</ele>
        <time>2013-05-05T13:53:38Z</time>
      </trkpt>
      <trkpt lat="46.01092248223722" lon="9.286940339952707">
        <ele>380.81999999999999</ele>
        <time>2013-05-05T13:54:04Z</time>
      </trkpt>
      <trkpt lat="46.010930947959423" lon="9.286928018555045">
        <ele>380.81999999999999</ele>
        <time>2013-05-05T13:54:31Z</time>
      </trkpt>
      <trkpt lat="46.010943353176117" lon="9.286961546167731">
        <ele>381.30000000000001</ele>
        <time>2013-05-05T13:54:48Z</time>
      </trkpt>
      <trkpt lat="46.010941425338387" lon="9.286996331065893">
        <ele>380.81999999999999</ele>
        <time>2013-05-05T13:55:09Z</time>
      </trkpt>
      <trkpt lat="46.011017533019185" lon="9.287071684375405">
        <ele>380.81999999999999</ele>
        <time>2013-05-05T13:55:28Z</time>
      </trkpt>
      <trkpt lat="46.011033039540052" lon="9.28712910041213">
        <ele>380.81999999999999</ele>
        <time>2013-05-05T13:55:44Z</time>
      </trkpt>
      <trkpt lat="46.011051395907998" lon="9.287183163687587">
        <ele>380.33999999999997</ele>
        <time>2013-05-05T13:55:59Z</time>
      </trkpt>
      <trkpt lat="46.011078888550401" lon="9.28738315589726">
        <ele>379.38</ele>
        <time>2013-05-05T13:56:16Z</time>
      </trkpt>
      <trkpt lat="46.011067824438214" lon="9.287625309079886">
        <ele>377.94</ele>
        <time>2013-05-05T13:56:34Z</time>
      </trkpt>
      <trkpt lat="46.011027004569769" lon="9.287714911624789">
        <ele>376.49000000000001</ele>
        <time>2013-05-05T13:56:51Z</time>
      </trkpt>
      <trkpt lat="46.011043852195144" lon="9.28771105594933">
        <ele>375.05000000000001</ele>
        <time>2013-05-05T13:56:59Z</time>
      </trkpt>
      <trkpt lat="46.011057263240218" lon="9.287956394255161">
        <ele>372.64999999999998</ele>
        <time>2013-05-05T13:57:17Z</time>
      </trkpt>
      <trkpt lat="46.011054161936045" lon="9.288088073953986">
        <ele>371.20999999999998</ele>
        <time>2013-05-05T13:57:30Z</time>
      </trkpt>
      <trkpt lat="46.011050306260586" lon="9.288214724510908">
        <ele>368.31999999999999</ele>
        <time>2013-05-05T13:57:45Z</time>
      </trkpt>
      <trkpt lat="46.011022813618183" lon="9.288322683423758">
        <ele>365.92000000000002</ele>
        <time>2013-05-05T13:57:59Z</time>
      </trkpt>
      <trkpt lat="46.011014096438885" lon="9.288332238793373">
        <ele>364.95999999999998</ele>
        <time>2013-05-05T13:58:03Z</time>
      </trkpt>
      <trkpt lat="46.011109314858913" lon="9.288333328440785">
        <ele>364</ele>
        <time>2013-05-05T13:58:18Z</time>
      </trkpt>
      <trkpt lat="46.011142591014504" lon="9.288360737264156">
        <ele>363.51999999999998</ele>
        <time>2013-05-05T13:58:23Z</time>
      </trkpt>
      <trkpt lat="46.011158600449562" lon="9.288446567952633">
        <ele>363.04000000000002</ele>
        <time>2013-05-05T13:58:29Z</time>
      </trkpt>
      <trkpt lat="46.011165389791131" lon="9.28851580247283">
        <ele>363.04000000000002</ele>
        <time>2013-05-05T13:58:37Z</time>
      </trkpt>
      <trkpt lat="46.011261278763413" lon="9.288565004244447">
        <ele>362.06999999999999</ele>
        <time>2013-05-05T13:58:50Z</time>
      </trkpt>
      <trkpt lat="46.011294890195131" lon="9.288630886003375">
        <ele>362.06999999999999</ele>
        <time>2013-05-05T13:58:53Z</time>
      </trkpt>
      <trkpt lat="46.011235294863582" lon="9.288766672834754">
        <ele>361.11000000000001</ele>
        <time>2013-05-05T13:59:03Z</time>
      </trkpt>
      <trkpt lat="46.01121224462986" lon="9.288826687261462">
        <ele>358.23000000000002</ele>
        <time>2013-05-05T13:59:16Z</time>
      </trkpt>
      <trkpt lat="46.011225236579776" lon="9.288786789402366">
        <ele>358.70999999999998</ele>
        <time>2013-05-05T13:59:40Z</time>
      </trkpt>
      <trkpt lat="46.011250298470259" lon="9.288803553208709">
        <ele>359.19</ele>
        <time>2013-05-05T14:00:06Z</time>
      </trkpt>
      <trkpt lat="46.011225152760744" lon="9.288828279823065">
        <ele>359.19</ele>
        <time>2013-05-05T14:00:14Z</time>
      </trkpt>
      <trkpt lat="46.011155331507325" lon="9.289023159071803">
        <ele>357.75</ele>
        <time>2013-05-05T14:00:33Z</time>
      </trkpt>
      <trkpt lat="46.011190116405487" lon="9.289091806858778">
        <ele>355.33999999999997</ele>
        <time>2013-05-05T14:00:45Z</time>
      </trkpt>
      <trkpt lat="46.011204198002815" lon="9.289134806022048">
        <ele>353.89999999999998</ele>
        <time>2013-05-05T14:00:59Z</time>
      </trkpt>
      <trkpt lat="46.011208975687623" lon="9.289097087457776">
        <ele>352.94</ele>
        <time>2013-05-05T14:01:13Z</time>
      </trkpt>
      <trkpt lat="46.011285670101643" lon="9.289002707228065">
        <ele>350.06</ele>
        <time>2013-05-05T14:01:24Z</time>
      </trkpt>
      <trkpt lat="46.011334452778101" lon="9.288944536820054">
        <ele>348.13</ele>
        <time>2013-05-05T14:01:38Z</time>
      </trkpt>
      <trkpt lat="46.011368315666914" lon="9.288944285362959">
        <ele>346.69</ele>
        <time>2013-05-05T14:01:54Z</time>
      </trkpt>
      <trkpt lat="46.01144777610898" lon="9.288918050006032">
        <ele>344.29000000000002</ele>
        <time>2013-05-05T14:02:07Z</time>
      </trkpt>
      <trkpt lat="46.011483650654554" lon="9.288907237350941">
        <ele>342.37</ele>
        <time>2013-05-05T14:02:14Z</time>
      </trkpt>
      <trkpt lat="46.011566966772079" lon="9.288886953145266">
        <ele>339.95999999999998</ele>
        <time>2013-05-05T14:02:26Z</time>
      </trkpt>
      <trkpt lat="46.011617593467236" lon="9.288882343098521">
        <ele>338.04000000000002</ele>
        <time>2013-05-05T14:02:40Z</time>
      </trkpt>
      <trkpt lat="46.011622035875916" lon="9.288872200995684">
        <ele>339</ele>
        <time>2013-05-05T14:02:51Z</time>
      </trkpt>
      <trkpt lat="46.011649277061224" lon="9.288887707516551">
        <ele>338.51999999999998</ele>
        <time>2013-05-05T14:03:14Z</time>
      </trkpt>
      <trkpt lat="46.011671237647533" lon="9.288954930379987">
        <ele>338.51999999999998</ele>
        <time>2013-05-05T14:03:29Z</time>
      </trkpt>
      <trkpt lat="46.01177123375237" lon="9.288943195715547">
        <ele>336.12</ele>
        <time>2013-05-05T14:03:42Z</time>
      </trkpt>
      <trkpt lat="46.011892268434167" lon="9.289005221799016">
        <ele>333.23000000000002</ele>
        <time>2013-05-05T14:03:55Z</time>
      </trkpt>
      <trkpt lat="46.011978099122643" lon="9.288975801318884">
        <ele>330.82999999999998</ele>
        <time>2013-05-05T14:04:07Z</time>
      </trkpt>
      <trkpt lat="46.012074574828148" lon="9.288939340040088">
        <ele>328.43000000000001</ele>
        <time>2013-05-05T14:04:20Z</time>
      </trkpt>
      <trkpt lat="46.01215286180377" lon="9.288859376683831">
        <ele>326.01999999999998</ele>
        <time>2013-05-05T14:04:31Z</time>
      </trkpt>
      <trkpt lat="46.012246739119291" lon="9.288725601509213">
        <ele>323.13999999999999</ele>
        <time>2013-05-05T14:04:45Z</time>
      </trkpt>
      <trkpt lat="46.012322092428803" lon="9.288632646203041">
        <ele>320.25999999999999</ele>
        <time>2013-05-05T14:04:56Z</time>
      </trkpt>
      <trkpt lat="46.01240012794733" lon="9.288505576550961">
        <ele>316.88999999999999</ele>
        <time>2013-05-05T14:05:09Z</time>
      </trkpt>
      <trkpt lat="46.012465506792068" lon="9.288418404757977">
        <ele>314.97000000000003</ele>
        <time>2013-05-05T14:05:21Z</time>
      </trkpt>
      <trkpt lat="46.012509344145656" lon="9.288392001762986">
        <ele>313.05000000000001</ele>
        <time>2013-05-05T14:05:31Z</time>
      </trkpt>
      <trkpt lat="46.012533316388726" lon="9.288330059498549">
        <ele>311.60000000000002</ele>
        <time>2013-05-05T14:05:48Z</time>
      </trkpt>
      <trkpt lat="46.012584948912263" lon="9.288261830806732">
        <ele>308.24000000000001</ele>
        <time>2013-05-05T14:06:00Z</time>
      </trkpt>
      <trkpt lat="46.012591067701578" lon="9.288252107799053">
        <ele>307.75999999999999</ele>
        <time>2013-05-05T14:06:02Z</time>
      </trkpt>
      <trkpt lat="46.01264831610024" lon="9.288151524960995">
        <ele>304.88</ele>
        <time>2013-05-05T14:06:16Z</time>
      </trkpt>
      <trkpt lat="46.012711599469185" lon="9.288026802241802">
        <ele>302.47000000000003</ele>
        <time>2013-05-05T14:06:30Z</time>
      </trkpt>
      <trkpt lat="46.012786282226443" lon="9.287929907441139">
        <ele>299.11000000000001</ele>
        <time>2013-05-05T14:06:46Z</time>
      </trkpt>
      <trkpt lat="46.01284570991993" lon="9.287800490856171">
        <ele>297.18000000000001</ele>
        <time>2013-05-05T14:07:00Z</time>
      </trkpt>
      <trkpt lat="46.012959619984031" lon="9.287703176960349">
        <ele>294.30000000000001</ele>
        <time>2013-05-05T14:07:15Z</time>
      </trkpt>
      <trkpt lat="46.012967498973012" lon="9.287696219980717">
        <ele>294.30000000000001</ele>
        <time>2013-05-05T14:07:16Z</time>
      </trkpt>
      <trkpt lat="46.013054503127933" lon="9.28757325746119">
        <ele>290.94</ele>
        <time>2013-05-05T14:07:30Z</time>
      </trkpt>
      <trkpt lat="46.013155840337276" lon="9.287394471466541">
        <ele>289.00999999999999</ele>
        <time>2013-05-05T14:07:46Z</time>
      </trkpt>
      <trkpt lat="46.013226332142949" lon="9.287203866988421">
        <ele>286.13</ele>
        <time>2013-05-05T14:08:04Z</time>
      </trkpt>
      <trkpt lat="46.013255165889859" lon="9.287147708237171">
        <ele>285.64999999999998</ele>
        <time>2013-05-05T14:08:09Z</time>
      </trkpt>
      <trkpt lat="46.013323394581676" lon="9.28688962943852">
        <ele>283.73000000000002</ele>
        <time>2013-05-05T14:08:28Z</time>
      </trkpt>
      <trkpt lat="46.013344768434763" lon="9.286801787093282">
        <ele>281.80000000000001</ele>
        <time>2013-05-05T14:08:35Z</time>
      </trkpt>
      <trkpt lat="46.013367986306548" lon="9.286715285852552">
        <ele>280.36000000000001</ele>
        <time>2013-05-05T14:08:42Z</time>
      </trkpt>
      <trkpt lat="46.01343504153192" lon="9.28651143796742">
        <ele>277.95999999999998</ele>
        <time>2013-05-05T14:08:56Z</time>
      </trkpt>
      <trkpt lat="46.013482315465808" lon="9.286365676671267">
        <ele>274.58999999999997</ele>
        <time>2013-05-05T14:09:08Z</time>
      </trkpt>
      <trkpt lat="46.013522129505873" lon="9.286214970052242">
        <ele>271.70999999999998</ele>
        <time>2013-05-05T14:09:19Z</time>
      </trkpt>
      <trkpt lat="46.013523554429412" lon="9.286030568182468">
        <ele>268.82999999999998</ele>
        <time>2013-05-05T14:09:33Z</time>
      </trkpt>
      <trkpt lat="46.013522548601031" lon="9.286005422472954">
        <ele>268.35000000000002</ele>
        <time>2013-05-05T14:09:35Z</time>
      </trkpt>
      <trkpt lat="46.013493547216058" lon="9.285806100815535">
        <ele>264.5</ele>
        <time>2013-05-05T14:09:51Z</time>
      </trkpt>
      <trkpt lat="46.013490278273821" lon="9.28571549244225">
        <ele>263.06</ele>
        <time>2013-05-05T14:10:08Z</time>
      </trkpt>
      <trkpt lat="46.013510897755623" lon="9.28565782494843">
        <ele>263.06</ele>
        <time>2013-05-05T14:10:25Z</time>
      </trkpt>
      <trkpt lat="46.013486254960299" lon="9.285573335364461">
        <ele>259.69</ele>
        <time>2013-05-05T14:10:38Z</time>
      </trkpt>
      <trkpt lat="46.013507544994354" lon="9.28543109446764">
        <ele>256.81</ele>
        <time>2013-05-05T14:10:53Z</time>
      </trkpt>
      <trkpt lat="46.013525985181332" lon="9.285302180796862">
        <ele>253.93000000000001</ele>
        <time>2013-05-05T14:11:05Z</time>
      </trkpt>
      <trkpt lat="46.013558926060796" lon="9.285164633765817">
        <ele>250.56</ele>
        <time>2013-05-05T14:11:18Z</time>
      </trkpt>
      <trkpt lat="46.013549035415053" lon="9.285022728145123">
        <ele>248.16</ele>
        <time>2013-05-05T14:11:33Z</time>
      </trkpt>
      <trkpt lat="46.013586334884167" lon="9.284887276589871">
        <ele>245.75</ele>
        <time>2013-05-05T14:11:45Z</time>
      </trkpt>
      <trkpt lat="46.013575773686171" lon="9.284734558314085">
        <ele>242.87</ele>
        <time>2013-05-05T14:11:59Z</time>
      </trkpt>
      <trkpt lat="46.013596476987004" lon="9.284565411508083">
        <ele>239.99000000000001</ele>
        <time>2013-05-05T14:12:14Z</time>
      </trkpt>
      <trkpt lat="46.013621287420392" lon="9.284438006579876">
        <ele>236.62</ele>
        <time>2013-05-05T14:12:25Z</time>
      </trkpt>
      <trkpt lat="46.013620868325233" lon="9.28438737988472">
        <ele>235.66</ele>
        <time>2013-05-05T14:12:32Z</time>
      </trkpt>
      <trkpt lat="46.01354693993926" lon="9.284327030181885">
        <ele>232.30000000000001</ele>
        <time>2013-05-05T14:12:48Z</time>
      </trkpt>
      <trkpt lat="46.013534618541598" lon="9.284313535317779">
        <ele>232.30000000000001</ele>
        <time>2013-05-05T14:12:50Z</time>
      </trkpt>
      <trkpt lat="46.013667220249772" lon="9.284271793439984">
        <ele>230.37</ele>
        <time>2013-05-05T14:13:02Z</time>
      </trkpt>
      <trkpt lat="46.013725809752941" lon="9.284283947199583">
        <ele>229.88999999999999</ele>
        <time>2013-05-05T14:13:08Z</time>
      </trkpt>
      <trkpt lat="46.013841480016708" lon="9.284435492008925">
        <ele>227.00999999999999</ele>
        <time>2013-05-05T14:13:24Z</time>
      </trkpt>
      <trkpt lat="46.013880874961615" lon="9.284406658262014">
        <ele>226.05000000000001</ele>
        <time>2013-05-05T14:13:29Z</time>
      </trkpt>
      <trkpt lat="46.013888837769628" lon="9.284212030470371">
        <ele>223.16</ele>
        <time>2013-05-05T14:13:43Z</time>
      </trkpt>
      <trkpt lat="46.013913480564952" lon="9.284172300249338">
        <ele>222.19999999999999</ele>
        <time>2013-05-05T14:13:47Z</time>
      </trkpt>
      <trkpt lat="46.013926137238741" lon="9.284099461510778">
        <ele>221.24000000000001</ele>
        <time>2013-05-05T14:13:59Z</time>
      </trkpt>
      <trkpt lat="46.013965867459774" lon="9.284064341336489">
        <ele>220.75999999999999</ele>
        <time>2013-05-05T14:14:02Z</time>
      </trkpt>
      <trkpt lat="46.014002077281475" lon="9.28406585007906">
        <ele>220.75999999999999</ele>
        <time>2013-05-05T14:14:05Z</time>
      </trkpt>
      <trkpt lat="46.014215061441064" lon="9.284117901697755">
        <ele>219.80000000000001</ele>
        <time>2013-05-05T14:14:24Z</time>
      </trkpt>
      <trkpt lat="46.014395272359252" lon="9.284207168966532">
        <ele>218.36000000000001</ele>
        <time>2013-05-05T14:14:41Z</time>
      </trkpt>
      <trkpt lat="46.014558803290129" lon="9.284316468983889">
        <ele>217.40000000000001</ele>
        <time>2013-05-05T14:14:57Z</time>
      </trkpt>
      <trkpt lat="46.014678161591291" lon="9.284386709332466">
        <ele>216.91</ele>
        <time>2013-05-05T14:15:13Z</time>
      </trkpt>
      <trkpt lat="46.014706240966916" lon="9.284357456490398">
        <ele>216.91</ele>
        <time>2013-05-05T14:15:34Z</time>
      </trkpt>
      <trkpt lat="46.014709090813994" lon="9.284404814243317">
        <ele>216.91</ele>
        <time>2013-05-05T14:15:52Z</time>
      </trkpt>
      <trkpt lat="46.014717556536198" lon="9.284421410411596">
        <ele>216.91</ele>
        <time>2013-05-05T14:16:20Z</time>
      </trkpt>
      <trkpt lat="46.014700876548886" lon="9.284405400976539">
        <ele>216.91</ele>
        <time>2013-05-05T14:16:38Z</time>
      </trkpt>
      <trkpt lat="46.014701128005981" lon="9.28442501462996">
        <ele>216.43000000000001</ele>
        <time>2013-05-05T14:16:56Z</time>
      </trkpt>
      <trkpt lat="46.014674892649055" lon="9.284330131486058">
        <ele>216.43000000000001</ele>
        <time>2013-05-05T14:17:08Z</time>
      </trkpt>
      <trkpt lat="46.014674892649055" lon="9.284304482862353">
        <ele>216.91</ele>
        <time>2013-05-05T14:17:23Z</time>
      </trkpt>
      <trkpt lat="46.014673300087452" lon="9.284283947199583">
        <ele>216.91</ele>
        <time>2013-05-05T14:17:25Z</time>
      </trkpt>
      <trkpt lat="46.014673886820674" lon="9.284243797883391">
        <ele>216.43000000000001</ele>
        <time>2013-05-05T14:17:28Z</time>
      </trkpt>
      <trkpt lat="46.014649076387286" lon="9.283906510099769">
        <ele>214.99000000000001</ele>
        <time>2013-05-05T14:17:47Z</time>
      </trkpt>
      <trkpt lat="46.014641029760242" lon="9.283528234809637">
        <ele>214.03</ele>
        <time>2013-05-05T14:18:07Z</time>
      </trkpt>
      <trkpt lat="46.014627870172262" lon="9.283301336690784">
        <ele>213.55000000000001</ele>
        <time>2013-05-05T14:18:20Z</time>
      </trkpt>
      <trkpt lat="46.014605825766921" lon="9.283071672543883">
        <ele>213.55000000000001</ele>
        <time>2013-05-05T14:18:38Z</time>
      </trkpt>
      <trkpt lat="46.014606496319175" lon="9.283078964799643">
        <ele>213.06999999999999</ele>
        <time>2013-05-05T14:18:53Z</time>
      </trkpt>
      <trkpt lat="46.014610687270761" lon="9.283100757747889">
        <ele>213.06999999999999</ele>
        <time>2013-05-05T14:18:55Z</time>
      </trkpt>
      <trkpt lat="46.014626529067755" lon="9.283150378614664">
        <ele>213.55000000000001</ele>
        <time>2013-05-05T14:18:59Z</time>
      </trkpt>
      <trkpt lat="46.0146414488554" lon="9.283367889001966">
        <ele>213.55000000000001</ele>
        <time>2013-05-05T14:19:14Z</time>
      </trkpt>
      <trkpt lat="46.01465511135757" lon="9.283613562583923">
        <ele>214.03</ele>
        <time>2013-05-05T14:19:29Z</time>
      </trkpt>
      <trkpt lat="46.01467614993453" lon="9.28392025642097">
        <ele>214.50999999999999</ele>
        <time>2013-05-05T14:19:48Z</time>
      </trkpt>
      <trkpt lat="46.014688890427351" lon="9.284171629697084">
        <ele>215.94999999999999</ele>
        <time>2013-05-05T14:20:04Z</time>
      </trkpt>
      <trkpt lat="46.014713533222675" lon="9.284406239166856">
        <ele>216.43000000000001</ele>
        <time>2013-05-05T14:20:19Z</time>
      </trkpt>
      <trkpt lat="46.014800453558564" lon="9.284507744014263">
        <ele>215.94999999999999</ele>
        <time>2013-05-05T14:20:29Z</time>
      </trkpt>
      <trkpt lat="46.014800705015659" lon="9.28471963852644">
        <ele>216.43000000000001</ele>
        <time>2013-05-05T14:20:46Z</time>
      </trkpt>
      <trkpt lat="46.014800621196628" lon="9.284814521670342">
        <ele>215.94999999999999</ele>
        <time>2013-05-05T14:20:56Z</time>
      </trkpt>
      <trkpt lat="46.014816546812654" lon="9.284866908565164">
        <ele>216.43000000000001</ele>
        <time>2013-05-05T14:20:59Z</time>
      </trkpt>
      <trkpt lat="46.014788970351219" lon="9.285109816119075">
        <ele>216.91</ele>
        <time>2013-05-05T14:21:14Z</time>
      </trkpt>
      <trkpt lat="46.014738930389285" lon="9.285373510792851">
        <ele>217.88</ele>
        <time>2013-05-05T14:21:28Z</time>
      </trkpt>
      <trkpt lat="46.014902461320162" lon="9.2854193598032">
        <ele>217.88</ele>
        <time>2013-05-05T14:21:43Z</time>
      </trkpt>
      <trkpt lat="46.015044953674078" lon="9.285525726154447">
        <ele>219.80000000000001</ele>
        <time>2013-05-05T14:21:59Z</time>
      </trkpt>
      <trkpt lat="46.015140172094107" lon="9.285614658147097">
        <ele>223.16</ele>
        <time>2013-05-05T14:22:13Z</time>
      </trkpt>
      <trkpt lat="46.015166407451034" lon="9.285636870190501">
        <ele>223.16</ele>
        <time>2013-05-05T14:22:16Z</time>
      </trkpt>
      <trkpt lat="46.015260284766555" lon="9.285711804404855">
        <ele>223.16</ele>
        <time>2013-05-05T14:22:30Z</time>
      </trkpt>
      <trkpt lat="46.015267074108124" lon="9.28570132702589">
        <ele>223.63999999999999</ele>
        <time>2013-05-05T14:22:34Z</time>
      </trkpt>
      <trkpt lat="46.015326669439673" lon="9.285631254315376">
        <ele>224.12</ele>
        <time>2013-05-05T14:22:40Z</time>
      </trkpt>
      <trkpt lat="46.015523560345173" lon="9.285642150789499">
        <ele>226.05000000000001</ele>
        <time>2013-05-05T14:22:58Z</time>
      </trkpt>
      <trkpt lat="46.015505203977227" lon="9.285913221538067">
        <ele>227.00999999999999</ele>
        <time>2013-05-05T14:23:13Z</time>
      </trkpt>
      <trkpt lat="46.015361286699772" lon="9.286034675315023">
        <ele>227.97</ele>
        <time>2013-05-05T14:23:28Z</time>
      </trkpt>
      <trkpt lat="46.015320299193263" lon="9.286091001704335">
        <ele>228.44999999999999</ele>
        <time>2013-05-05T14:23:34Z</time>
      </trkpt>
      <trkpt lat="46.015331530943513" lon="9.286169540137053">
        <ele>228.93000000000001</ele>
        <time>2013-05-05T14:23:39Z</time>
      </trkpt>
      <trkpt lat="46.015373859554529" lon="9.286230308935046">
        <ele>228.44999999999999</ele>
        <time>2013-05-05T14:23:57Z</time>
      </trkpt>
    </trkseg>
  </trk>

</gpx>